<?xml version="1.0" encoding="UTF-8" standalone="no" ?>
<gpx xmlns="http://www.topografix.com/GPX/1/1" xmlns:xsi="http://www.w3.org/2001/XMLSchema-instance" xsi:schemaLocation="http://www.topografix.com/GPX/1/1 http://www.topografix.com/GPX/1/1/gpx.xsd" version="1.1" creator="VisuGPX - https://www.visugpx.com">
  <metadata>
    <name>Parc des Volcans via le Lac de la Cassière et le chateau de Montlosier</name>
    <desc><![CDATA[Sortie roulante, aucune difficulté majeure.]]></desc>
  </metadata>
  <trk>
    <name><![CDATA[2014-11-01 08:32]]></name>
    <desc><![CDATA[<h1>OruxMaps</h1><br /><hr align="center" width="480" style="height: 2px; width: 517px"/><h2>Nom: 2014-11-01 08:32</h2><br /><p>Temps de départ: 11/01/2014 08:31</p><p>Temps d'arrivée: 11/01/2014 11:49</p><p>Distance: 42,3 km (03:17)</p><p>Temps déplacement: 02:54</p><p>Vitesse moyenne: 12,9 km/h</p><p>Vitesse moyenne: 14,5 km/h</p><p>Vitess Max.: 53,1 km/h</p><p>Altitude minimale: 641 m</p><p>Altitude maximale: 1098 m</p><p>Vitesse d'élévation: 661,4 m/h</p><p>Vitesse de descente: -1064,4 m/h</p><p>Gain Altitude: 1165 m</p><p>Perte Altitude: -1164 m</p><p>Temps d'élévation: 01:45</p><p>Temps de descente: 01:05</p><hr align="center" width="480" style="height: 2px; width: 517px"/>]]></desc>
    <trkseg>
      <trkpt lat="45.78018" lon="3.03444">
        <ele>706.3</ele>
        <time>2014-11-01T07:31:39Z</time>
      </trkpt>
      <trkpt lat="45.78047" lon="3.03574">
        <ele>641.42</ele>
        <time>2014-11-01T07:31:41Z</time>
      </trkpt>
      <trkpt lat="45.78004" lon="3.03445">
        <ele>671.11</ele>
        <time>2014-11-01T07:31:42Z</time>
      </trkpt>
      <trkpt lat="45.77986" lon="3.03428">
        <ele>696.59</ele>
        <time>2014-11-01T07:31:50Z</time>
      </trkpt>
      <trkpt lat="45.77976" lon="3.03404">
        <ele>696.6</ele>
        <time>2014-11-01T07:31:55Z</time>
      </trkpt>
      <trkpt lat="45.77968" lon="3.03379">
        <ele>700.39</ele>
        <time>2014-11-01T07:32:00Z</time>
      </trkpt>
      <trkpt lat="45.77954" lon="3.03356">
        <ele>699.07</ele>
        <time>2014-11-01T07:32:05Z</time>
      </trkpt>
      <trkpt lat="45.77941" lon="3.03335">
        <ele>699.31</ele>
        <time>2014-11-01T07:32:10Z</time>
      </trkpt>
      <trkpt lat="45.77924" lon="3.03319">
        <ele>698.75</ele>
        <time>2014-11-01T07:32:15Z</time>
      </trkpt>
      <trkpt lat="45.77907" lon="3.03308">
        <ele>701.36</ele>
        <time>2014-11-01T07:32:21Z</time>
      </trkpt>
      <trkpt lat="45.77896" lon="3.03282">
        <ele>703.26</ele>
        <time>2014-11-01T07:32:28Z</time>
      </trkpt>
      <trkpt lat="45.77894" lon="3.03256">
        <ele>707.82</ele>
        <time>2014-11-01T07:32:34Z</time>
      </trkpt>
      <trkpt lat="45.77891" lon="3.03229">
        <ele>711.46</ele>
        <time>2014-11-01T07:32:41Z</time>
      </trkpt>
      <trkpt lat="45.77881" lon="3.03205">
        <ele>711.69</ele>
        <time>2014-11-01T07:32:48Z</time>
      </trkpt>
      <trkpt lat="45.7787" lon="3.03183">
        <ele>708.84</ele>
        <time>2014-11-01T07:32:55Z</time>
      </trkpt>
      <trkpt lat="45.77858" lon="3.03162">
        <ele>710.83</ele>
        <time>2014-11-01T07:33:02Z</time>
      </trkpt>
      <trkpt lat="45.77846" lon="3.03141">
        <ele>712.27</ele>
        <time>2014-11-01T07:33:09Z</time>
      </trkpt>
      <trkpt lat="45.77832" lon="3.0312">
        <ele>717.86</ele>
        <time>2014-11-01T07:33:17Z</time>
      </trkpt>
      <trkpt lat="45.77822" lon="3.03096">
        <ele>720.51</ele>
        <time>2014-11-01T07:33:25Z</time>
      </trkpt>
      <trkpt lat="45.77809" lon="3.03074">
        <ele>723.57</ele>
        <time>2014-11-01T07:33:33Z</time>
      </trkpt>
      <trkpt lat="45.77794" lon="3.03059">
        <ele>726.14</ele>
        <time>2014-11-01T07:33:41Z</time>
      </trkpt>
      <trkpt lat="45.77778" lon="3.03043">
        <ele>729.23</ele>
        <time>2014-11-01T07:33:49Z</time>
      </trkpt>
      <trkpt lat="45.77766" lon="3.03023">
        <ele>731.66</ele>
        <time>2014-11-01T07:33:59Z</time>
      </trkpt>
      <trkpt lat="45.77751" lon="3.03007">
        <ele>735.45</ele>
        <time>2014-11-01T07:34:06Z</time>
      </trkpt>
      <trkpt lat="45.77739" lon="3.02988">
        <ele>740.29</ele>
        <time>2014-11-01T07:34:14Z</time>
      </trkpt>
      <trkpt lat="45.77725" lon="3.02968">
        <ele>739.8</ele>
        <time>2014-11-01T07:34:22Z</time>
      </trkpt>
      <trkpt lat="45.77711" lon="3.02942">
        <ele>739.15</ele>
        <time>2014-11-01T07:34:31Z</time>
      </trkpt>
      <trkpt lat="45.77708" lon="3.02915">
        <ele>737.67</ele>
        <time>2014-11-01T07:34:39Z</time>
      </trkpt>
      <trkpt lat="45.77702" lon="3.02888">
        <ele>741.24</ele>
        <time>2014-11-01T07:34:46Z</time>
      </trkpt>
      <trkpt lat="45.77702" lon="3.02861">
        <ele>739.81</ele>
        <time>2014-11-01T07:34:53Z</time>
      </trkpt>
      <trkpt lat="45.77703" lon="3.02832">
        <ele>744.38</ele>
        <time>2014-11-01T07:35:01Z</time>
      </trkpt>
      <trkpt lat="45.77702" lon="3.02803">
        <ele>745.79</ele>
        <time>2014-11-01T07:35:08Z</time>
      </trkpt>
      <trkpt lat="45.77697" lon="3.02774">
        <ele>745.42</ele>
        <time>2014-11-01T07:35:15Z</time>
      </trkpt>
      <trkpt lat="45.77692" lon="3.0275">
        <ele>744.06</ele>
        <time>2014-11-01T07:35:21Z</time>
      </trkpt>
      <trkpt lat="45.77687" lon="3.02724">
        <ele>744.65</ele>
        <time>2014-11-01T07:35:27Z</time>
      </trkpt>
      <trkpt lat="45.77683" lon="3.02699">
        <ele>746.95</ele>
        <time>2014-11-01T07:35:33Z</time>
      </trkpt>
      <trkpt lat="45.77677" lon="3.02672">
        <ele>749.65</ele>
        <time>2014-11-01T07:35:39Z</time>
      </trkpt>
      <trkpt lat="45.77668" lon="3.02646">
        <ele>749.86</ele>
        <time>2014-11-01T07:35:45Z</time>
      </trkpt>
      <trkpt lat="45.77662" lon="3.02619">
        <ele>749.86</ele>
        <time>2014-11-01T07:35:52Z</time>
      </trkpt>
      <trkpt lat="45.7766" lon="3.02592">
        <ele>753.1</ele>
        <time>2014-11-01T07:35:59Z</time>
      </trkpt>
      <trkpt lat="45.77649" lon="3.02567">
        <ele>748.82</ele>
        <time>2014-11-01T07:36:05Z</time>
      </trkpt>
      <trkpt lat="45.7764" lon="3.02542">
        <ele>746.3</ele>
        <time>2014-11-01T07:36:13Z</time>
      </trkpt>
      <trkpt lat="45.7764" lon="3.02513">
        <ele>747.58</ele>
        <time>2014-11-01T07:36:22Z</time>
      </trkpt>
      <trkpt lat="45.77641" lon="3.02487">
        <ele>748.55</ele>
        <time>2014-11-01T07:36:31Z</time>
      </trkpt>
      <trkpt lat="45.77634" lon="3.02463">
        <ele>749.05</ele>
        <time>2014-11-01T07:36:37Z</time>
      </trkpt>
      <trkpt lat="45.77635" lon="3.02436">
        <ele>750.05</ele>
        <time>2014-11-01T07:36:45Z</time>
      </trkpt>
      <trkpt lat="45.7764" lon="3.02408">
        <ele>750.64</ele>
        <time>2014-11-01T07:36:52Z</time>
      </trkpt>
      <trkpt lat="45.77652" lon="3.02384">
        <ele>747.98</ele>
        <time>2014-11-01T07:36:57Z</time>
      </trkpt>
      <trkpt lat="45.77659" lon="3.02356">
        <ele>747.8</ele>
        <time>2014-11-01T07:37:03Z</time>
      </trkpt>
      <trkpt lat="45.77673" lon="3.02335">
        <ele>750.94</ele>
        <time>2014-11-01T07:37:10Z</time>
      </trkpt>
      <trkpt lat="45.77679" lon="3.02309">
        <ele>754.51</ele>
        <time>2014-11-01T07:37:17Z</time>
      </trkpt>
      <trkpt lat="45.77682" lon="3.02277">
        <ele>758.96</ele>
        <time>2014-11-01T07:37:25Z</time>
      </trkpt>
      <trkpt lat="45.77684" lon="3.02249">
        <ele>757.83</ele>
        <time>2014-11-01T07:37:31Z</time>
      </trkpt>
      <trkpt lat="45.77687" lon="3.02223">
        <ele>757.6</ele>
        <time>2014-11-01T07:37:38Z</time>
      </trkpt>
      <trkpt lat="45.77694" lon="3.02198">
        <ele>761.46</ele>
        <time>2014-11-01T07:37:46Z</time>
      </trkpt>
      <trkpt lat="45.77699" lon="3.0217">
        <ele>759.48</ele>
        <time>2014-11-01T07:37:52Z</time>
      </trkpt>
      <trkpt lat="45.77701" lon="3.02144">
        <ele>760.4</ele>
        <time>2014-11-01T07:37:58Z</time>
      </trkpt>
      <trkpt lat="45.77701" lon="3.02115">
        <ele>764.32</ele>
        <time>2014-11-01T07:38:06Z</time>
      </trkpt>
      <trkpt lat="45.77702" lon="3.02087">
        <ele>769.82</ele>
        <time>2014-11-01T07:38:14Z</time>
      </trkpt>
      <trkpt lat="45.77694" lon="3.02064">
        <ele>772.68</ele>
        <time>2014-11-01T07:38:22Z</time>
      </trkpt>
      <trkpt lat="45.77677" lon="3.0205">
        <ele>767.44</ele>
        <time>2014-11-01T07:38:29Z</time>
      </trkpt>
      <trkpt lat="45.7766" lon="3.02038">
        <ele>769.95</ele>
        <time>2014-11-01T07:38:37Z</time>
      </trkpt>
      <trkpt lat="45.77646" lon="3.0202">
        <ele>774.69</ele>
        <time>2014-11-01T07:38:46Z</time>
      </trkpt>
      <trkpt lat="45.77642" lon="3.01985">
        <ele>772.98</ele>
        <time>2014-11-01T07:38:59Z</time>
      </trkpt>
      <trkpt lat="45.77625" lon="3.0197">
        <ele>768.44</ele>
        <time>2014-11-01T07:39:05Z</time>
      </trkpt>
      <trkpt lat="45.77609" lon="3.01958">
        <ele>766.75</ele>
        <time>2014-11-01T07:39:13Z</time>
      </trkpt>
      <trkpt lat="45.77591" lon="3.01951">
        <ele>770.1</ele>
        <time>2014-11-01T07:39:21Z</time>
      </trkpt>
      <trkpt lat="45.77572" lon="3.01951">
        <ele>771.13</ele>
        <time>2014-11-01T07:39:28Z</time>
      </trkpt>
      <trkpt lat="45.77551" lon="3.01951">
        <ele>769.65</ele>
        <time>2014-11-01T07:39:34Z</time>
      </trkpt>
      <trkpt lat="45.77532" lon="3.01953">
        <ele>768.1</ele>
        <time>2014-11-01T07:39:38Z</time>
      </trkpt>
      <trkpt lat="45.77511" lon="3.01954">
        <ele>769.25</ele>
        <time>2014-11-01T07:39:43Z</time>
      </trkpt>
      <trkpt lat="45.77493" lon="3.01947">
        <ele>772.09</ele>
        <time>2014-11-01T07:39:48Z</time>
      </trkpt>
      <trkpt lat="45.77479" lon="3.01929">
        <ele>774.59</ele>
        <time>2014-11-01T07:39:53Z</time>
      </trkpt>
      <trkpt lat="45.77467" lon="3.01908">
        <ele>776.19</ele>
        <time>2014-11-01T07:39:59Z</time>
      </trkpt>
      <trkpt lat="45.77452" lon="3.01892">
        <ele>777.6</ele>
        <time>2014-11-01T07:40:05Z</time>
      </trkpt>
      <trkpt lat="45.77433" lon="3.01881">
        <ele>781.08</ele>
        <time>2014-11-01T07:40:11Z</time>
      </trkpt>
      <trkpt lat="45.77412" lon="3.01878">
        <ele>781.21</ele>
        <time>2014-11-01T07:40:16Z</time>
      </trkpt>
      <trkpt lat="45.77392" lon="3.01874">
        <ele>779.79</ele>
        <time>2014-11-01T07:40:22Z</time>
      </trkpt>
      <trkpt lat="45.77373" lon="3.01863">
        <ele>782.21</ele>
        <time>2014-11-01T07:40:28Z</time>
      </trkpt>
      <trkpt lat="45.77354" lon="3.01855">
        <ele>784.04</ele>
        <time>2014-11-01T07:40:34Z</time>
      </trkpt>
      <trkpt lat="45.77338" lon="3.0184">
        <ele>782.71</ele>
        <time>2014-11-01T07:40:39Z</time>
      </trkpt>
      <trkpt lat="45.77322" lon="3.01826">
        <ele>781.86</ele>
        <time>2014-11-01T07:40:44Z</time>
      </trkpt>
      <trkpt lat="45.77307" lon="3.01806">
        <ele>784.1</ele>
        <time>2014-11-01T07:40:51Z</time>
      </trkpt>
      <trkpt lat="45.77303" lon="3.01778">
        <ele>788.38</ele>
        <time>2014-11-01T07:40:58Z</time>
      </trkpt>
      <trkpt lat="45.77305" lon="3.01752">
        <ele>783.83</ele>
        <time>2014-11-01T07:41:05Z</time>
      </trkpt>
      <trkpt lat="45.77307" lon="3.01725">
        <ele>783.68</ele>
        <time>2014-11-01T07:41:12Z</time>
      </trkpt>
      <trkpt lat="45.77301" lon="3.01699">
        <ele>785.73</ele>
        <time>2014-11-01T07:41:19Z</time>
      </trkpt>
      <trkpt lat="45.77288" lon="3.01676">
        <ele>786.27</ele>
        <time>2014-11-01T07:41:26Z</time>
      </trkpt>
      <trkpt lat="45.77276" lon="3.01654">
        <ele>784.92</ele>
        <time>2014-11-01T07:41:32Z</time>
      </trkpt>
      <trkpt lat="45.77264" lon="3.01632">
        <ele>785.74</ele>
        <time>2014-11-01T07:41:39Z</time>
      </trkpt>
      <trkpt lat="45.77252" lon="3.01611">
        <ele>789.36</ele>
        <time>2014-11-01T07:41:46Z</time>
      </trkpt>
      <trkpt lat="45.77237" lon="3.01589">
        <ele>791.91</ele>
        <time>2014-11-01T07:41:53Z</time>
      </trkpt>
      <trkpt lat="45.77224" lon="3.01569">
        <ele>791.41</ele>
        <time>2014-11-01T07:42:00Z</time>
      </trkpt>
      <trkpt lat="45.7721" lon="3.01551">
        <ele>793.48</ele>
        <time>2014-11-01T07:42:07Z</time>
      </trkpt>
      <trkpt lat="45.77196" lon="3.01534">
        <ele>795.34</ele>
        <time>2014-11-01T07:42:14Z</time>
      </trkpt>
      <trkpt lat="45.77181" lon="3.01515">
        <ele>797.76</ele>
        <time>2014-11-01T07:42:22Z</time>
      </trkpt>
      <trkpt lat="45.77168" lon="3.01495">
        <ele>800.97</ele>
        <time>2014-11-01T07:42:31Z</time>
      </trkpt>
      <trkpt lat="45.77157" lon="3.01474">
        <ele>802.28</ele>
        <time>2014-11-01T07:42:38Z</time>
      </trkpt>
      <trkpt lat="45.77148" lon="3.01448">
        <ele>803.29</ele>
        <time>2014-11-01T07:42:45Z</time>
      </trkpt>
      <trkpt lat="45.77141" lon="3.01421">
        <ele>804.76</ele>
        <time>2014-11-01T07:42:52Z</time>
      </trkpt>
      <trkpt lat="45.77132" lon="3.01399">
        <ele>806.08</ele>
        <time>2014-11-01T07:42:58Z</time>
      </trkpt>
      <trkpt lat="45.77121" lon="3.01377">
        <ele>804.85</ele>
        <time>2014-11-01T07:43:04Z</time>
      </trkpt>
      <trkpt lat="45.7711" lon="3.01355">
        <ele>806.6</ele>
        <time>2014-11-01T07:43:10Z</time>
      </trkpt>
      <trkpt lat="45.77097" lon="3.01336">
        <ele>805.72</ele>
        <time>2014-11-01T07:43:16Z</time>
      </trkpt>
      <trkpt lat="45.77085" lon="3.01315">
        <ele>804.92</ele>
        <time>2014-11-01T07:43:22Z</time>
      </trkpt>
      <trkpt lat="45.77076" lon="3.01289">
        <ele>806.27</ele>
        <time>2014-11-01T07:43:29Z</time>
      </trkpt>
      <trkpt lat="45.77065" lon="3.01266">
        <ele>805.79</ele>
        <time>2014-11-01T07:43:35Z</time>
      </trkpt>
      <trkpt lat="45.77055" lon="3.01243">
        <ele>804.74</ele>
        <time>2014-11-01T07:43:41Z</time>
      </trkpt>
      <trkpt lat="45.77043" lon="3.01219">
        <ele>804.24</ele>
        <time>2014-11-01T07:43:47Z</time>
      </trkpt>
      <trkpt lat="45.76991" lon="3.01072">
        <ele>809.83</ele>
        <time>2014-11-01T07:44:22Z</time>
      </trkpt>
      <trkpt lat="45.76981" lon="3.01047">
        <ele>815.11</ele>
        <time>2014-11-01T07:44:27Z</time>
      </trkpt>
      <trkpt lat="45.76966" lon="3.01023">
        <ele>807.96</ele>
        <time>2014-11-01T07:44:30Z</time>
      </trkpt>
      <trkpt lat="45.76961" lon="3.00993">
        <ele>801.37</ele>
        <time>2014-11-01T07:44:35Z</time>
      </trkpt>
      <trkpt lat="45.76958" lon="3.00965">
        <ele>802.81</ele>
        <time>2014-11-01T07:44:41Z</time>
      </trkpt>
      <trkpt lat="45.76941" lon="3.00952">
        <ele>801.24</ele>
        <time>2014-11-01T07:44:48Z</time>
      </trkpt>
      <trkpt lat="45.76922" lon="3.00945">
        <ele>799.24</ele>
        <time>2014-11-01T07:44:56Z</time>
      </trkpt>
      <trkpt lat="45.76903" lon="3.00938">
        <ele>799.99</ele>
        <time>2014-11-01T07:45:04Z</time>
      </trkpt>
      <trkpt lat="45.76884" lon="3.00933">
        <ele>800.96</ele>
        <time>2014-11-01T07:45:11Z</time>
      </trkpt>
      <trkpt lat="45.76867" lon="3.00924">
        <ele>803.28</ele>
        <time>2014-11-01T07:45:18Z</time>
      </trkpt>
      <trkpt lat="45.76849" lon="3.00911">
        <ele>808.62</ele>
        <time>2014-11-01T07:45:26Z</time>
      </trkpt>
      <trkpt lat="45.76834" lon="3.00894">
        <ele>813.09</ele>
        <time>2014-11-01T07:45:35Z</time>
      </trkpt>
      <trkpt lat="45.76818" lon="3.00878">
        <ele>814.32</ele>
        <time>2014-11-01T07:45:43Z</time>
      </trkpt>
      <trkpt lat="45.76804" lon="3.00861">
        <ele>814.86</ele>
        <time>2014-11-01T07:45:50Z</time>
      </trkpt>
      <trkpt lat="45.76789" lon="3.00844">
        <ele>814.78</ele>
        <time>2014-11-01T07:45:57Z</time>
      </trkpt>
      <trkpt lat="45.76775" lon="3.00828">
        <ele>816.49</ele>
        <time>2014-11-01T07:46:04Z</time>
      </trkpt>
      <trkpt lat="45.76758" lon="3.00817">
        <ele>816.36</ele>
        <time>2014-11-01T07:46:11Z</time>
      </trkpt>
      <trkpt lat="45.76752" lon="3.00792">
        <ele>820.68</ele>
        <time>2014-11-01T07:46:19Z</time>
      </trkpt>
      <trkpt lat="45.76741" lon="3.00769">
        <ele>819.87</ele>
        <time>2014-11-01T07:46:26Z</time>
      </trkpt>
      <trkpt lat="45.76734" lon="3.00743">
        <ele>820.89</ele>
        <time>2014-11-01T07:46:33Z</time>
      </trkpt>
      <trkpt lat="45.76729" lon="3.00715">
        <ele>823.34</ele>
        <time>2014-11-01T07:46:40Z</time>
      </trkpt>
      <trkpt lat="45.76723" lon="3.0069">
        <ele>820.4</ele>
        <time>2014-11-01T07:46:46Z</time>
      </trkpt>
      <trkpt lat="45.76723" lon="3.00661">
        <ele>824.09</ele>
        <time>2014-11-01T07:46:53Z</time>
      </trkpt>
      <trkpt lat="45.7672" lon="3.00632">
        <ele>825.69</ele>
        <time>2014-11-01T07:47:00Z</time>
      </trkpt>
      <trkpt lat="45.76714" lon="3.00606">
        <ele>831.3</ele>
        <time>2014-11-01T07:47:09Z</time>
      </trkpt>
      <trkpt lat="45.76699" lon="3.00587">
        <ele>824.59</ele>
        <time>2014-11-01T07:47:15Z</time>
      </trkpt>
      <trkpt lat="45.767" lon="3.0056">
        <ele>826</ele>
        <time>2014-11-01T07:47:24Z</time>
      </trkpt>
      <trkpt lat="45.76689" lon="3.00537">
        <ele>825.8</ele>
        <time>2014-11-01T07:47:32Z</time>
      </trkpt>
      <trkpt lat="45.76683" lon="3.00513">
        <ele>830.08</ele>
        <time>2014-11-01T07:47:41Z</time>
      </trkpt>
      <trkpt lat="45.7667" lon="3.0049">
        <ele>827.96</ele>
        <time>2014-11-01T07:47:49Z</time>
      </trkpt>
      <trkpt lat="45.76662" lon="3.00465">
        <ele>828.89</ele>
        <time>2014-11-01T07:47:57Z</time>
      </trkpt>
      <trkpt lat="45.76654" lon="3.00442">
        <ele>824.53</ele>
        <time>2014-11-01T07:48:04Z</time>
      </trkpt>
      <trkpt lat="45.76655" lon="3.00416">
        <ele>828.3</ele>
        <time>2014-11-01T07:48:12Z</time>
      </trkpt>
      <trkpt lat="45.76647" lon="3.00391">
        <ele>829.97</ele>
        <time>2014-11-01T07:48:20Z</time>
      </trkpt>
      <trkpt lat="45.7664" lon="3.00364">
        <ele>829.24</ele>
        <time>2014-11-01T07:48:29Z</time>
      </trkpt>
      <trkpt lat="45.76635" lon="3.00339">
        <ele>832.43</ele>
        <time>2014-11-01T07:48:37Z</time>
      </trkpt>
      <trkpt lat="45.76628" lon="3.00316">
        <ele>832.13</ele>
        <time>2014-11-01T07:48:45Z</time>
      </trkpt>
      <trkpt lat="45.76623" lon="3.00282">
        <ele>835.11</ele>
        <time>2014-11-01T07:48:56Z</time>
      </trkpt>
      <trkpt lat="45.76609" lon="3.00263">
        <ele>828.9</ele>
        <time>2014-11-01T07:49:01Z</time>
      </trkpt>
      <trkpt lat="45.76601" lon="3.00238">
        <ele>831.45</ele>
        <time>2014-11-01T07:49:11Z</time>
      </trkpt>
      <trkpt lat="45.76594" lon="3.00213">
        <ele>829.9</ele>
        <time>2014-11-01T07:49:18Z</time>
      </trkpt>
      <trkpt lat="45.76587" lon="3.00188">
        <ele>831.28</ele>
        <time>2014-11-01T07:49:27Z</time>
      </trkpt>
      <trkpt lat="45.76569" lon="3.00191">
        <ele>824.79</ele>
        <time>2014-11-01T07:49:35Z</time>
      </trkpt>
      <trkpt lat="45.76551" lon="3.00204">
        <ele>824.29</ele>
        <time>2014-11-01T07:49:47Z</time>
      </trkpt>
      <trkpt lat="45.76537" lon="3.00223">
        <ele>825.33</ele>
        <time>2014-11-01T07:49:58Z</time>
      </trkpt>
      <trkpt lat="45.76529" lon="3.00247">
        <ele>826.58</ele>
        <time>2014-11-01T07:50:07Z</time>
      </trkpt>
      <trkpt lat="45.7652" lon="3.0027">
        <ele>825.81</ele>
        <time>2014-11-01T07:50:16Z</time>
      </trkpt>
      <trkpt lat="45.76507" lon="3.00291">
        <ele>828.64</ele>
        <time>2014-11-01T07:50:25Z</time>
      </trkpt>
      <trkpt lat="45.76493" lon="3.0031">
        <ele>830.64</ele>
        <time>2014-11-01T07:50:34Z</time>
      </trkpt>
      <trkpt lat="45.76485" lon="3.00333">
        <ele>832.76</ele>
        <time>2014-11-01T07:50:42Z</time>
      </trkpt>
      <trkpt lat="45.76486" lon="3.00361">
        <ele>835.72</ele>
        <time>2014-11-01T07:50:50Z</time>
      </trkpt>
      <trkpt lat="45.76487" lon="3.00387">
        <ele>836.55</ele>
        <time>2014-11-01T07:50:57Z</time>
      </trkpt>
      <trkpt lat="45.76476" lon="3.00411">
        <ele>836.77</ele>
        <time>2014-11-01T07:51:05Z</time>
      </trkpt>
      <trkpt lat="45.76459" lon="3.00419">
        <ele>837.02</ele>
        <time>2014-11-01T07:51:13Z</time>
      </trkpt>
      <trkpt lat="45.76458" lon="3.00391">
        <ele>837.67</ele>
        <time>2014-11-01T07:51:23Z</time>
      </trkpt>
      <trkpt lat="45.76454" lon="3.00364">
        <ele>842.33</ele>
        <time>2014-11-01T07:51:31Z</time>
      </trkpt>
      <trkpt lat="45.76445" lon="3.00341">
        <ele>843.43</ele>
        <time>2014-11-01T07:51:39Z</time>
      </trkpt>
      <trkpt lat="45.76437" lon="3.00315">
        <ele>846.32</ele>
        <time>2014-11-01T07:51:48Z</time>
      </trkpt>
      <trkpt lat="45.76436" lon="3.00289">
        <ele>849.89</ele>
        <time>2014-11-01T07:51:56Z</time>
      </trkpt>
      <trkpt lat="45.76432" lon="3.00262">
        <ele>851.49</ele>
        <time>2014-11-01T07:52:03Z</time>
      </trkpt>
      <trkpt lat="45.76427" lon="3.00236">
        <ele>853.03</ele>
        <time>2014-11-01T07:52:09Z</time>
      </trkpt>
      <trkpt lat="45.76423" lon="3.00208">
        <ele>855.64</ele>
        <time>2014-11-01T07:52:16Z</time>
      </trkpt>
      <trkpt lat="45.76416" lon="3.00181">
        <ele>853.83</ele>
        <time>2014-11-01T07:52:22Z</time>
      </trkpt>
      <trkpt lat="45.7641" lon="3.00153">
        <ele>855.03</ele>
        <time>2014-11-01T07:52:29Z</time>
      </trkpt>
      <trkpt lat="45.76404" lon="3.00128">
        <ele>854.24</ele>
        <time>2014-11-01T07:52:35Z</time>
      </trkpt>
      <trkpt lat="45.76397" lon="3.00101">
        <ele>855.76</ele>
        <time>2014-11-01T07:52:41Z</time>
      </trkpt>
      <trkpt lat="45.76389" lon="3.00075">
        <ele>857.05</ele>
        <time>2014-11-01T07:52:46Z</time>
      </trkpt>
      <trkpt lat="45.76383" lon="3.0005">
        <ele>859.12</ele>
        <time>2014-11-01T07:52:51Z</time>
      </trkpt>
      <trkpt lat="45.76374" lon="3.00023">
        <ele>859.9</ele>
        <time>2014-11-01T07:52:57Z</time>
      </trkpt>
      <trkpt lat="45.76361" lon="2.99998">
        <ele>861.66</ele>
        <time>2014-11-01T07:53:03Z</time>
      </trkpt>
      <trkpt lat="45.7635" lon="2.99975">
        <ele>863.36</ele>
        <time>2014-11-01T07:53:09Z</time>
      </trkpt>
      <trkpt lat="45.76336" lon="2.99955">
        <ele>856.65</ele>
        <time>2014-11-01T07:53:13Z</time>
      </trkpt>
      <trkpt lat="45.76323" lon="2.99935">
        <ele>855.2</ele>
        <time>2014-11-01T07:53:19Z</time>
      </trkpt>
      <trkpt lat="45.76308" lon="2.99919">
        <ele>858.9</ele>
        <time>2014-11-01T07:53:26Z</time>
      </trkpt>
      <trkpt lat="45.76291" lon="2.99905">
        <ele>863.01</ele>
        <time>2014-11-01T07:53:34Z</time>
      </trkpt>
      <trkpt lat="45.76277" lon="2.99887">
        <ele>864.68</ele>
        <time>2014-11-01T07:53:41Z</time>
      </trkpt>
      <trkpt lat="45.76263" lon="2.99869">
        <ele>869.38</ele>
        <time>2014-11-01T07:53:49Z</time>
      </trkpt>
      <trkpt lat="45.76236" lon="2.99844">
        <ele>862.12</ele>
        <time>2014-11-01T07:53:56Z</time>
      </trkpt>
      <trkpt lat="45.7622" lon="2.99828">
        <ele>857</ele>
        <time>2014-11-01T07:54:02Z</time>
      </trkpt>
      <trkpt lat="45.76203" lon="2.99815">
        <ele>854.87</ele>
        <time>2014-11-01T07:54:07Z</time>
      </trkpt>
      <trkpt lat="45.76185" lon="2.99803">
        <ele>853.35</ele>
        <time>2014-11-01T07:54:14Z</time>
      </trkpt>
      <trkpt lat="45.76167" lon="2.99793">
        <ele>856.48</ele>
        <time>2014-11-01T07:54:22Z</time>
      </trkpt>
      <trkpt lat="45.76149" lon="2.99785">
        <ele>858.74</ele>
        <time>2014-11-01T07:54:30Z</time>
      </trkpt>
      <trkpt lat="45.76131" lon="2.99784">
        <ele>857.83</ele>
        <time>2014-11-01T07:54:36Z</time>
      </trkpt>
      <trkpt lat="45.7611" lon="2.99782">
        <ele>856.24</ele>
        <time>2014-11-01T07:54:43Z</time>
      </trkpt>
      <trkpt lat="45.7609" lon="2.99781">
        <ele>859.22</ele>
        <time>2014-11-01T07:54:50Z</time>
      </trkpt>
      <trkpt lat="45.76072" lon="2.99785">
        <ele>861.42</ele>
        <time>2014-11-01T07:54:57Z</time>
      </trkpt>
      <trkpt lat="45.76055" lon="2.99795">
        <ele>862.58</ele>
        <time>2014-11-01T07:55:05Z</time>
      </trkpt>
      <trkpt lat="45.76036" lon="2.99804">
        <ele>864.36</ele>
        <time>2014-11-01T07:55:12Z</time>
      </trkpt>
      <trkpt lat="45.76018" lon="2.99816">
        <ele>865.29</ele>
        <time>2014-11-01T07:55:19Z</time>
      </trkpt>
      <trkpt lat="45.76" lon="2.99827">
        <ele>865.83</ele>
        <time>2014-11-01T07:55:26Z</time>
      </trkpt>
      <trkpt lat="45.75982" lon="2.99832">
        <ele>867.19</ele>
        <time>2014-11-01T07:55:32Z</time>
      </trkpt>
      <trkpt lat="45.75962" lon="2.99841">
        <ele>868.3</ele>
        <time>2014-11-01T07:55:39Z</time>
      </trkpt>
      <trkpt lat="45.75944" lon="2.9985">
        <ele>870.01</ele>
        <time>2014-11-01T07:55:46Z</time>
      </trkpt>
      <trkpt lat="45.75928" lon="2.99868">
        <ele>870.93</ele>
        <time>2014-11-01T07:55:54Z</time>
      </trkpt>
      <trkpt lat="45.75918" lon="2.9989">
        <ele>877.79</ele>
        <time>2014-11-01T07:56:02Z</time>
      </trkpt>
      <trkpt lat="45.75907" lon="2.99912">
        <ele>883.1</ele>
        <time>2014-11-01T07:56:09Z</time>
      </trkpt>
      <trkpt lat="45.75893" lon="2.99933">
        <ele>886.51</ele>
        <time>2014-11-01T07:56:16Z</time>
      </trkpt>
      <trkpt lat="45.75878" lon="2.99955">
        <ele>876.81</ele>
        <time>2014-11-01T07:56:22Z</time>
      </trkpt>
      <trkpt lat="45.75862" lon="2.9997">
        <ele>874.16</ele>
        <time>2014-11-01T07:56:29Z</time>
      </trkpt>
      <trkpt lat="45.75845" lon="2.99981">
        <ele>873.71</ele>
        <time>2014-11-01T07:56:36Z</time>
      </trkpt>
      <trkpt lat="45.75829" lon="2.99993">
        <ele>876.64</ele>
        <time>2014-11-01T07:56:42Z</time>
      </trkpt>
      <trkpt lat="45.75813" lon="3.00012">
        <ele>878.3</ele>
        <time>2014-11-01T07:56:49Z</time>
      </trkpt>
      <trkpt lat="45.75803" lon="3.00034">
        <ele>878.85</ele>
        <time>2014-11-01T07:56:55Z</time>
      </trkpt>
      <trkpt lat="45.75789" lon="3.00054">
        <ele>879.3</ele>
        <time>2014-11-01T07:57:01Z</time>
      </trkpt>
      <trkpt lat="45.75775" lon="3.00076">
        <ele>880.33</ele>
        <time>2014-11-01T07:57:08Z</time>
      </trkpt>
      <trkpt lat="45.75762" lon="3.00096">
        <ele>879.82</ele>
        <time>2014-11-01T07:57:14Z</time>
      </trkpt>
      <trkpt lat="45.75748" lon="3.00113">
        <ele>878.83</ele>
        <time>2014-11-01T07:57:20Z</time>
      </trkpt>
      <trkpt lat="45.75733" lon="3.00129">
        <ele>882.6</ele>
        <time>2014-11-01T07:57:27Z</time>
      </trkpt>
      <trkpt lat="45.75719" lon="3.00147">
        <ele>885.78</ele>
        <time>2014-11-01T07:57:33Z</time>
      </trkpt>
      <trkpt lat="45.75704" lon="3.00163">
        <ele>885.71</ele>
        <time>2014-11-01T07:57:40Z</time>
      </trkpt>
      <trkpt lat="45.75686" lon="3.00173">
        <ele>889.15</ele>
        <time>2014-11-01T07:57:48Z</time>
      </trkpt>
      <trkpt lat="45.75669" lon="3.00185">
        <ele>888.83</ele>
        <time>2014-11-01T07:57:55Z</time>
      </trkpt>
      <trkpt lat="45.75651" lon="3.00197">
        <ele>884.29</ele>
        <time>2014-11-01T07:58:04Z</time>
      </trkpt>
      <trkpt lat="45.75633" lon="3.00205">
        <ele>886.32</ele>
        <time>2014-11-01T07:58:11Z</time>
      </trkpt>
      <trkpt lat="45.75615" lon="3.00215">
        <ele>884.81</ele>
        <time>2014-11-01T07:58:19Z</time>
      </trkpt>
      <trkpt lat="45.75596" lon="3.00226">
        <ele>884.79</ele>
        <time>2014-11-01T07:58:26Z</time>
      </trkpt>
      <trkpt lat="45.75577" lon="3.00235">
        <ele>886.73</ele>
        <time>2014-11-01T07:58:33Z</time>
      </trkpt>
      <trkpt lat="45.75557" lon="3.00244">
        <ele>888.61</ele>
        <time>2014-11-01T07:58:41Z</time>
      </trkpt>
      <trkpt lat="45.75538" lon="3.00247">
        <ele>890.43</ele>
        <time>2014-11-01T07:58:49Z</time>
      </trkpt>
      <trkpt lat="45.75515" lon="3.00247">
        <ele>891.28</ele>
        <time>2014-11-01T07:58:57Z</time>
      </trkpt>
      <trkpt lat="45.75496" lon="3.00242">
        <ele>892.73</ele>
        <time>2014-11-01T07:59:05Z</time>
      </trkpt>
      <trkpt lat="45.75477" lon="3.00234">
        <ele>893.77</ele>
        <time>2014-11-01T07:59:13Z</time>
      </trkpt>
      <trkpt lat="45.7546" lon="3.00223">
        <ele>893.8</ele>
        <time>2014-11-01T07:59:20Z</time>
      </trkpt>
      <trkpt lat="45.75442" lon="3.00209">
        <ele>893.8</ele>
        <time>2014-11-01T07:59:28Z</time>
      </trkpt>
      <trkpt lat="45.75426" lon="3.00195">
        <ele>894.74</ele>
        <time>2014-11-01T07:59:36Z</time>
      </trkpt>
      <trkpt lat="45.75409" lon="3.00183">
        <ele>896.24</ele>
        <time>2014-11-01T07:59:44Z</time>
      </trkpt>
      <trkpt lat="45.75398" lon="3.00161">
        <ele>903.8</ele>
        <time>2014-11-01T07:59:55Z</time>
      </trkpt>
      <trkpt lat="45.75395" lon="3.00134">
        <ele>908.88</ele>
        <time>2014-11-01T08:00:03Z</time>
      </trkpt>
      <trkpt lat="45.75398" lon="3.00106">
        <ele>906.38</ele>
        <time>2014-11-01T08:00:12Z</time>
      </trkpt>
      <trkpt lat="45.75404" lon="3.00079">
        <ele>906.55</ele>
        <time>2014-11-01T08:00:22Z</time>
      </trkpt>
      <trkpt lat="45.7541" lon="3.00054">
        <ele>914.07</ele>
        <time>2014-11-01T08:00:32Z</time>
      </trkpt>
      <trkpt lat="45.75413" lon="3.00027">
        <ele>921.32</ele>
        <time>2014-11-01T08:00:43Z</time>
      </trkpt>
      <trkpt lat="45.75412" lon="3">
        <ele>920.62</ele>
        <time>2014-11-01T08:00:54Z</time>
      </trkpt>
      <trkpt lat="45.75407" lon="2.99974">
        <ele>920.91</ele>
        <time>2014-11-01T08:01:04Z</time>
      </trkpt>
      <trkpt lat="45.75414" lon="2.99948">
        <ele>929.18</ele>
        <time>2014-11-01T08:01:14Z</time>
      </trkpt>
      <trkpt lat="45.75424" lon="2.99924">
        <ele>938.98</ele>
        <time>2014-11-01T08:01:24Z</time>
      </trkpt>
      <trkpt lat="45.7542" lon="2.99897">
        <ele>937.26</ele>
        <time>2014-11-01T08:01:32Z</time>
      </trkpt>
      <trkpt lat="45.75425" lon="2.99871">
        <ele>943.87</ele>
        <time>2014-11-01T08:01:42Z</time>
      </trkpt>
      <trkpt lat="45.75413" lon="2.99847">
        <ele>941.26</ele>
        <time>2014-11-01T08:01:51Z</time>
      </trkpt>
      <trkpt lat="45.75394" lon="2.99845">
        <ele>932.25</ele>
        <time>2014-11-01T08:01:59Z</time>
      </trkpt>
      <trkpt lat="45.75375" lon="2.99845">
        <ele>926.1</ele>
        <time>2014-11-01T08:02:07Z</time>
      </trkpt>
      <trkpt lat="45.75357" lon="2.99846">
        <ele>919.25</ele>
        <time>2014-11-01T08:02:15Z</time>
      </trkpt>
      <trkpt lat="45.75339" lon="2.99846">
        <ele>922.48</ele>
        <time>2014-11-01T08:02:22Z</time>
      </trkpt>
      <trkpt lat="45.75319" lon="2.99849">
        <ele>926.79</ele>
        <time>2014-11-01T08:02:32Z</time>
      </trkpt>
      <trkpt lat="45.75302" lon="2.99857">
        <ele>933.97</ele>
        <time>2014-11-01T08:02:43Z</time>
      </trkpt>
      <trkpt lat="45.75283" lon="2.99865">
        <ele>937.55</ele>
        <time>2014-11-01T08:02:52Z</time>
      </trkpt>
      <trkpt lat="45.7529" lon="2.99838">
        <ele>942.1</ele>
        <time>2014-11-01T08:03:12Z</time>
      </trkpt>
      <trkpt lat="45.75272" lon="2.99824">
        <ele>941.11</ele>
        <time>2014-11-01T08:03:20Z</time>
      </trkpt>
      <trkpt lat="45.75254" lon="2.99832">
        <ele>941.63</ele>
        <time>2014-11-01T08:03:28Z</time>
      </trkpt>
      <trkpt lat="45.75236" lon="2.99842">
        <ele>943.88</ele>
        <time>2014-11-01T08:03:37Z</time>
      </trkpt>
      <trkpt lat="45.75218" lon="2.9985">
        <ele>948.51</ele>
        <time>2014-11-01T08:03:47Z</time>
      </trkpt>
      <trkpt lat="45.75199" lon="2.99871">
        <ele>944.44</ele>
        <time>2014-11-01T08:03:58Z</time>
      </trkpt>
      <trkpt lat="45.75181" lon="2.99877">
        <ele>944.54</ele>
        <time>2014-11-01T08:04:07Z</time>
      </trkpt>
      <trkpt lat="45.75162" lon="2.99883">
        <ele>945.57</ele>
        <time>2014-11-01T08:04:17Z</time>
      </trkpt>
      <trkpt lat="45.75145" lon="2.99896">
        <ele>945.68</ele>
        <time>2014-11-01T08:04:30Z</time>
      </trkpt>
      <trkpt lat="45.75126" lon="2.99902">
        <ele>950.85</ele>
        <time>2014-11-01T08:04:38Z</time>
      </trkpt>
      <trkpt lat="45.75112" lon="2.9992">
        <ele>947.45</ele>
        <time>2014-11-01T08:04:48Z</time>
      </trkpt>
      <trkpt lat="45.75093" lon="2.99927">
        <ele>945.93</ele>
        <time>2014-11-01T08:04:57Z</time>
      </trkpt>
      <trkpt lat="45.75076" lon="2.9994">
        <ele>947.54</ele>
        <time>2014-11-01T08:05:07Z</time>
      </trkpt>
      <trkpt lat="45.75059" lon="2.9995">
        <ele>953.56</ele>
        <time>2014-11-01T08:05:17Z</time>
      </trkpt>
      <trkpt lat="45.75042" lon="2.99956">
        <ele>954.95</ele>
        <time>2014-11-01T08:05:26Z</time>
      </trkpt>
      <trkpt lat="45.75022" lon="2.99963">
        <ele>960.68</ele>
        <time>2014-11-01T08:05:37Z</time>
      </trkpt>
      <trkpt lat="45.75004" lon="2.99972">
        <ele>962.88</ele>
        <time>2014-11-01T08:05:47Z</time>
      </trkpt>
      <trkpt lat="45.74986" lon="2.99979">
        <ele>967.18</ele>
        <time>2014-11-01T08:05:57Z</time>
      </trkpt>
      <trkpt lat="45.74969" lon="2.99987">
        <ele>965.95</ele>
        <time>2014-11-01T08:06:06Z</time>
      </trkpt>
      <trkpt lat="45.74949" lon="2.99995">
        <ele>967.93</ele>
        <time>2014-11-01T08:06:18Z</time>
      </trkpt>
      <trkpt lat="45.74931" lon="2.99999">
        <ele>971.46</ele>
        <time>2014-11-01T08:06:29Z</time>
      </trkpt>
      <trkpt lat="45.74913" lon="3.00006">
        <ele>970.34</ele>
        <time>2014-11-01T08:06:37Z</time>
      </trkpt>
      <trkpt lat="45.74895" lon="3.0001">
        <ele>974.87</ele>
        <time>2014-11-01T08:06:46Z</time>
      </trkpt>
      <trkpt lat="45.74876" lon="3.00017">
        <ele>972.76</ele>
        <time>2014-11-01T08:06:55Z</time>
      </trkpt>
      <trkpt lat="45.74857" lon="3.00026">
        <ele>971.72</ele>
        <time>2014-11-01T08:07:04Z</time>
      </trkpt>
      <trkpt lat="45.74839" lon="3.0003">
        <ele>972.16</ele>
        <time>2014-11-01T08:07:11Z</time>
      </trkpt>
      <trkpt lat="45.7482" lon="3.0003">
        <ele>971.99</ele>
        <time>2014-11-01T08:07:18Z</time>
      </trkpt>
      <trkpt lat="45.748" lon="3.0003">
        <ele>972.83</ele>
        <time>2014-11-01T08:07:25Z</time>
      </trkpt>
      <trkpt lat="45.74779" lon="3.00032">
        <ele>970.16</ele>
        <time>2014-11-01T08:07:31Z</time>
      </trkpt>
      <trkpt lat="45.74761" lon="3.00037">
        <ele>967.84</ele>
        <time>2014-11-01T08:07:37Z</time>
      </trkpt>
      <trkpt lat="45.74742" lon="3.00035">
        <ele>969.81</ele>
        <time>2014-11-01T08:07:44Z</time>
      </trkpt>
      <trkpt lat="45.74723" lon="3.00037">
        <ele>967.72</ele>
        <time>2014-11-01T08:07:51Z</time>
      </trkpt>
      <trkpt lat="45.74704" lon="3.0004">
        <ele>966.05</ele>
        <time>2014-11-01T08:07:58Z</time>
      </trkpt>
      <trkpt lat="45.74686" lon="3.00042">
        <ele>965.05</ele>
        <time>2014-11-01T08:08:05Z</time>
      </trkpt>
      <trkpt lat="45.74668" lon="3.00048">
        <ele>965.57</ele>
        <time>2014-11-01T08:08:14Z</time>
      </trkpt>
      <trkpt lat="45.74663" lon="3.00075">
        <ele>965.8</ele>
        <time>2014-11-01T08:08:20Z</time>
      </trkpt>
      <trkpt lat="45.74656" lon="3.00103">
        <ele>965.8</ele>
        <time>2014-11-01T08:08:25Z</time>
      </trkpt>
      <trkpt lat="45.74635" lon="3.00099">
        <ele>966.17</ele>
        <time>2014-11-01T08:08:30Z</time>
      </trkpt>
      <trkpt lat="45.74615" lon="3.00093">
        <ele>967.54</ele>
        <time>2014-11-01T08:08:36Z</time>
      </trkpt>
      <trkpt lat="45.74597" lon="3.00087">
        <ele>967.79</ele>
        <time>2014-11-01T08:08:42Z</time>
      </trkpt>
      <trkpt lat="45.74578" lon="3.00082">
        <ele>967.83</ele>
        <time>2014-11-01T08:08:50Z</time>
      </trkpt>
      <trkpt lat="45.74559" lon="3.00067">
        <ele>967.8</ele>
        <time>2014-11-01T08:08:59Z</time>
      </trkpt>
      <trkpt lat="45.74546" lon="3.00048">
        <ele>969.52</ele>
        <time>2014-11-01T08:09:07Z</time>
      </trkpt>
      <trkpt lat="45.74534" lon="3.00028">
        <ele>970.73</ele>
        <time>2014-11-01T08:09:14Z</time>
      </trkpt>
      <trkpt lat="45.74521" lon="3.00008">
        <ele>971.79</ele>
        <time>2014-11-01T08:09:22Z</time>
      </trkpt>
      <trkpt lat="45.74502" lon="3.00007">
        <ele>973.28</ele>
        <time>2014-11-01T08:09:29Z</time>
      </trkpt>
      <trkpt lat="45.74487" lon="3.00026">
        <ele>974.73</ele>
        <time>2014-11-01T08:09:36Z</time>
      </trkpt>
      <trkpt lat="45.74475" lon="3.00046">
        <ele>976.72</ele>
        <time>2014-11-01T08:09:43Z</time>
      </trkpt>
      <trkpt lat="45.74459" lon="3.00063">
        <ele>977.7</ele>
        <time>2014-11-01T08:09:50Z</time>
      </trkpt>
      <trkpt lat="45.74442" lon="3.0008">
        <ele>977.8</ele>
        <time>2014-11-01T08:09:57Z</time>
      </trkpt>
      <trkpt lat="45.74426" lon="3.00096">
        <ele>978.66</ele>
        <time>2014-11-01T08:10:04Z</time>
      </trkpt>
      <trkpt lat="45.74412" lon="3.00112">
        <ele>978.93</ele>
        <time>2014-11-01T08:10:11Z</time>
      </trkpt>
      <trkpt lat="45.74393" lon="3.00121">
        <ele>978.17</ele>
        <time>2014-11-01T08:10:18Z</time>
      </trkpt>
      <trkpt lat="45.74374" lon="3.00119">
        <ele>978.36</ele>
        <time>2014-11-01T08:10:25Z</time>
      </trkpt>
      <trkpt lat="45.74355" lon="3.00119">
        <ele>978.49</ele>
        <time>2014-11-01T08:10:32Z</time>
      </trkpt>
      <trkpt lat="45.74335" lon="3.00119">
        <ele>977.33</ele>
        <time>2014-11-01T08:10:39Z</time>
      </trkpt>
      <trkpt lat="45.74317" lon="3.00117">
        <ele>976.8</ele>
        <time>2014-11-01T08:10:46Z</time>
      </trkpt>
      <trkpt lat="45.74298" lon="3.00114">
        <ele>975.96</ele>
        <time>2014-11-01T08:10:53Z</time>
      </trkpt>
      <trkpt lat="45.7428" lon="3.0011">
        <ele>974.89</ele>
        <time>2014-11-01T08:11:00Z</time>
      </trkpt>
      <trkpt lat="45.74262" lon="3.00105">
        <ele>975.78</ele>
        <time>2014-11-01T08:11:07Z</time>
      </trkpt>
      <trkpt lat="45.74244" lon="3.00101">
        <ele>975.8</ele>
        <time>2014-11-01T08:11:15Z</time>
      </trkpt>
      <trkpt lat="45.74225" lon="3.00098">
        <ele>978.17</ele>
        <time>2014-11-01T08:11:24Z</time>
      </trkpt>
      <trkpt lat="45.74206" lon="3.00093">
        <ele>982.53</ele>
        <time>2014-11-01T08:11:33Z</time>
      </trkpt>
      <trkpt lat="45.74188" lon="3.00087">
        <ele>985.64</ele>
        <time>2014-11-01T08:11:41Z</time>
      </trkpt>
      <trkpt lat="45.74174" lon="3.00069">
        <ele>989.15</ele>
        <time>2014-11-01T08:11:49Z</time>
      </trkpt>
      <trkpt lat="45.74155" lon="3.0006">
        <ele>989.84</ele>
        <time>2014-11-01T08:11:58Z</time>
      </trkpt>
      <trkpt lat="45.74135" lon="3.0006">
        <ele>989.52</ele>
        <time>2014-11-01T08:12:06Z</time>
      </trkpt>
      <trkpt lat="45.74116" lon="3.00061">
        <ele>990.54</ele>
        <time>2014-11-01T08:12:13Z</time>
      </trkpt>
      <trkpt lat="45.74097" lon="3.00059">
        <ele>989.07</ele>
        <time>2014-11-01T08:12:18Z</time>
      </trkpt>
      <trkpt lat="45.74078" lon="3.00056">
        <ele>990.71</ele>
        <time>2014-11-01T08:12:24Z</time>
      </trkpt>
      <trkpt lat="45.74058" lon="3.00061">
        <ele>987.95</ele>
        <time>2014-11-01T08:12:32Z</time>
      </trkpt>
      <trkpt lat="45.74039" lon="3.00058">
        <ele>990.59</ele>
        <time>2014-11-01T08:12:40Z</time>
      </trkpt>
      <trkpt lat="45.7402" lon="3.00058">
        <ele>993.38</ele>
        <time>2014-11-01T08:12:49Z</time>
      </trkpt>
      <trkpt lat="45.74001" lon="3.00056">
        <ele>998.12</ele>
        <time>2014-11-01T08:12:58Z</time>
      </trkpt>
      <trkpt lat="45.73982" lon="3.00058">
        <ele>1003.46</ele>
        <time>2014-11-01T08:13:07Z</time>
      </trkpt>
      <trkpt lat="45.73964" lon="3.00064">
        <ele>1002.81</ele>
        <time>2014-11-01T08:13:21Z</time>
      </trkpt>
      <trkpt lat="45.73944" lon="3.00068">
        <ele>1000.18</ele>
        <time>2014-11-01T08:13:32Z</time>
      </trkpt>
      <trkpt lat="45.73927" lon="3.00078">
        <ele>1001.71</ele>
        <time>2014-11-01T08:13:40Z</time>
      </trkpt>
      <trkpt lat="45.73912" lon="3.00095">
        <ele>999.07</ele>
        <time>2014-11-01T08:13:49Z</time>
      </trkpt>
      <trkpt lat="45.73949" lon="3.00078">
        <ele>1000.27</ele>
        <time>2014-11-01T08:14:21Z</time>
      </trkpt>
      <trkpt lat="45.73964" lon="3.00064">
        <ele>999.31</ele>
        <time>2014-11-01T08:14:26Z</time>
      </trkpt>
      <trkpt lat="45.73981" lon="3.00052">
        <ele>1002.81</ele>
        <time>2014-11-01T08:14:56Z</time>
      </trkpt>
      <trkpt lat="45.73965" lon="3.00036">
        <ele>1008.8</ele>
        <time>2014-11-01T08:17:24Z</time>
      </trkpt>
      <trkpt lat="45.73948" lon="3.00026">
        <ele>1008.8</ele>
        <time>2014-11-01T08:17:35Z</time>
      </trkpt>
      <trkpt lat="45.73929" lon="3.00024">
        <ele>1009.55</ele>
        <time>2014-11-01T08:17:44Z</time>
      </trkpt>
      <trkpt lat="45.73911" lon="3.00021">
        <ele>1010.67</ele>
        <time>2014-11-01T08:17:53Z</time>
      </trkpt>
      <trkpt lat="45.73893" lon="3.00027">
        <ele>1010.8</ele>
        <time>2014-11-01T08:18:03Z</time>
      </trkpt>
      <trkpt lat="45.73874" lon="3.00026">
        <ele>1012.29</ele>
        <time>2014-11-01T08:18:14Z</time>
      </trkpt>
      <trkpt lat="45.73855" lon="3.00025">
        <ele>1011.8</ele>
        <time>2014-11-01T08:18:24Z</time>
      </trkpt>
      <trkpt lat="45.73846" lon="3.00002">
        <ele>1011.8</ele>
        <time>2014-11-01T08:18:34Z</time>
      </trkpt>
      <trkpt lat="45.73834" lon="2.99981">
        <ele>1012.55</ele>
        <time>2014-11-01T08:18:44Z</time>
      </trkpt>
      <trkpt lat="45.73824" lon="2.9996">
        <ele>1012.8</ele>
        <time>2014-11-01T08:19:07Z</time>
      </trkpt>
      <trkpt lat="45.73812" lon="2.99939">
        <ele>1013.8</ele>
        <time>2014-11-01T08:19:19Z</time>
      </trkpt>
      <trkpt lat="45.73797" lon="2.99923">
        <ele>1012.31</ele>
        <time>2014-11-01T08:19:29Z</time>
      </trkpt>
      <trkpt lat="45.73788" lon="2.999">
        <ele>1012.8</ele>
        <time>2014-11-01T08:19:40Z</time>
      </trkpt>
      <trkpt lat="45.73793" lon="2.99874">
        <ele>1013.3</ele>
        <time>2014-11-01T08:19:52Z</time>
      </trkpt>
      <trkpt lat="45.7378" lon="2.99856">
        <ele>1015.81</ele>
        <time>2014-11-01T08:21:34Z</time>
      </trkpt>
      <trkpt lat="45.73766" lon="2.99835">
        <ele>1014.92</ele>
        <time>2014-11-01T08:21:47Z</time>
      </trkpt>
      <trkpt lat="45.73752" lon="2.99817">
        <ele>1014.8</ele>
        <time>2014-11-01T08:21:57Z</time>
      </trkpt>
      <trkpt lat="45.7374" lon="2.99799">
        <ele>1014.05</ele>
        <time>2014-11-01T08:22:05Z</time>
      </trkpt>
      <trkpt lat="45.73724" lon="2.99781">
        <ele>1013.8</ele>
        <time>2014-11-01T08:22:14Z</time>
      </trkpt>
      <trkpt lat="45.7371" lon="2.99761">
        <ele>1015.67</ele>
        <time>2014-11-01T08:22:24Z</time>
      </trkpt>
      <trkpt lat="45.73697" lon="2.9974">
        <ele>1015.56</ele>
        <time>2014-11-01T08:22:34Z</time>
      </trkpt>
      <trkpt lat="45.73682" lon="2.99725">
        <ele>1015.81</ele>
        <time>2014-11-01T08:22:44Z</time>
      </trkpt>
      <trkpt lat="45.73667" lon="2.99707">
        <ele>1015.56</ele>
        <time>2014-11-01T08:22:54Z</time>
      </trkpt>
      <trkpt lat="45.73651" lon="2.99691">
        <ele>1016.67</ele>
        <time>2014-11-01T08:23:03Z</time>
      </trkpt>
      <trkpt lat="45.7364" lon="2.99671">
        <ele>1017.57</ele>
        <time>2014-11-01T08:23:12Z</time>
      </trkpt>
      <trkpt lat="45.73632" lon="2.99646">
        <ele>1018.54</ele>
        <time>2014-11-01T08:23:21Z</time>
      </trkpt>
      <trkpt lat="45.73628" lon="2.9962">
        <ele>1019.55</ele>
        <time>2014-11-01T08:23:30Z</time>
      </trkpt>
      <trkpt lat="45.73618" lon="2.99596">
        <ele>1019.92</ele>
        <time>2014-11-01T08:23:39Z</time>
      </trkpt>
      <trkpt lat="45.73606" lon="2.99576">
        <ele>1020.05</ele>
        <time>2014-11-01T08:25:46Z</time>
      </trkpt>
      <trkpt lat="45.73591" lon="2.99562">
        <ele>1018.3</ele>
        <time>2014-11-01T08:26:00Z</time>
      </trkpt>
      <trkpt lat="45.73581" lon="2.99539">
        <ele>1017.8</ele>
        <time>2014-11-01T08:26:09Z</time>
      </trkpt>
      <trkpt lat="45.73566" lon="2.99523">
        <ele>1016.36</ele>
        <time>2014-11-01T08:26:18Z</time>
      </trkpt>
      <trkpt lat="45.73553" lon="2.99502">
        <ele>1014.36</ele>
        <time>2014-11-01T08:26:27Z</time>
      </trkpt>
      <trkpt lat="45.73538" lon="2.99486">
        <ele>1011.94</ele>
        <time>2014-11-01T08:26:37Z</time>
      </trkpt>
      <trkpt lat="45.73526" lon="2.99465">
        <ele>1009.94</ele>
        <time>2014-11-01T08:26:45Z</time>
      </trkpt>
      <trkpt lat="45.73511" lon="2.99448">
        <ele>1007.13</ele>
        <time>2014-11-01T08:26:51Z</time>
      </trkpt>
      <trkpt lat="45.73495" lon="2.99432">
        <ele>1003.39</ele>
        <time>2014-11-01T08:26:58Z</time>
      </trkpt>
      <trkpt lat="45.73488" lon="2.99407">
        <ele>999.95</ele>
        <time>2014-11-01T08:27:06Z</time>
      </trkpt>
      <trkpt lat="45.73493" lon="2.99382">
        <ele>999.05</ele>
        <time>2014-11-01T08:27:14Z</time>
      </trkpt>
      <trkpt lat="45.73477" lon="2.9937">
        <ele>995.21</ele>
        <time>2014-11-01T08:27:22Z</time>
      </trkpt>
      <trkpt lat="45.73456" lon="2.99361">
        <ele>991.31</ele>
        <time>2014-11-01T08:27:31Z</time>
      </trkpt>
      <trkpt lat="45.73438" lon="2.99367">
        <ele>990.9</ele>
        <time>2014-11-01T08:27:40Z</time>
      </trkpt>
      <trkpt lat="45.73449" lon="2.99345">
        <ele>985.39</ele>
        <time>2014-11-01T08:29:18Z</time>
      </trkpt>
      <trkpt lat="45.73459" lon="2.99323">
        <ele>987.16</ele>
        <time>2014-11-01T08:29:25Z</time>
      </trkpt>
      <trkpt lat="45.73468" lon="2.993">
        <ele>988.05</ele>
        <time>2014-11-01T08:29:32Z</time>
      </trkpt>
      <trkpt lat="45.73477" lon="2.99275">
        <ele>990.17</ele>
        <time>2014-11-01T08:29:39Z</time>
      </trkpt>
      <trkpt lat="45.73483" lon="2.99247">
        <ele>995.63</ele>
        <time>2014-11-01T08:29:46Z</time>
      </trkpt>
      <trkpt lat="45.7349" lon="2.99219">
        <ele>999.22</ele>
        <time>2014-11-01T08:29:52Z</time>
      </trkpt>
      <trkpt lat="45.73495" lon="2.99191">
        <ele>1002.56</ele>
        <time>2014-11-01T08:29:57Z</time>
      </trkpt>
      <trkpt lat="45.73507" lon="2.99168">
        <ele>1001.85</ele>
        <time>2014-11-01T08:30:02Z</time>
      </trkpt>
      <trkpt lat="45.73519" lon="2.99143">
        <ele>1007.93</ele>
        <time>2014-11-01T08:30:07Z</time>
      </trkpt>
      <trkpt lat="45.7353" lon="2.99116">
        <ele>1003.12</ele>
        <time>2014-11-01T08:30:11Z</time>
      </trkpt>
      <trkpt lat="45.73543" lon="2.99089">
        <ele>1001.28</ele>
        <time>2014-11-01T08:30:16Z</time>
      </trkpt>
      <trkpt lat="45.73557" lon="2.99066">
        <ele>1001.71</ele>
        <time>2014-11-01T08:30:22Z</time>
      </trkpt>
      <trkpt lat="45.73572" lon="2.99047">
        <ele>999.92</ele>
        <time>2014-11-01T08:30:27Z</time>
      </trkpt>
      <trkpt lat="45.73585" lon="2.99025">
        <ele>1001.55</ele>
        <time>2014-11-01T08:30:32Z</time>
      </trkpt>
      <trkpt lat="45.73598" lon="2.98999">
        <ele>1002.23</ele>
        <time>2014-11-01T08:30:37Z</time>
      </trkpt>
      <trkpt lat="45.73611" lon="2.98976">
        <ele>1000.89</ele>
        <time>2014-11-01T08:30:41Z</time>
      </trkpt>
      <trkpt lat="45.73621" lon="2.98953">
        <ele>997.74</ele>
        <time>2014-11-01T08:30:45Z</time>
      </trkpt>
      <trkpt lat="45.73634" lon="2.98928">
        <ele>995.05</ele>
        <time>2014-11-01T08:30:49Z</time>
      </trkpt>
      <trkpt lat="45.73642" lon="2.98899">
        <ele>994.06</ele>
        <time>2014-11-01T08:30:53Z</time>
      </trkpt>
      <trkpt lat="45.7365" lon="2.98871">
        <ele>992.19</ele>
        <time>2014-11-01T08:30:57Z</time>
      </trkpt>
      <trkpt lat="45.73655" lon="2.98845">
        <ele>991.32</ele>
        <time>2014-11-01T08:31:01Z</time>
      </trkpt>
      <trkpt lat="45.73661" lon="2.98817">
        <ele>990.83</ele>
        <time>2014-11-01T08:31:05Z</time>
      </trkpt>
      <trkpt lat="45.73666" lon="2.98791">
        <ele>992.86</ele>
        <time>2014-11-01T08:31:09Z</time>
      </trkpt>
      <trkpt lat="45.73667" lon="2.98763">
        <ele>994.89</ele>
        <time>2014-11-01T08:31:14Z</time>
      </trkpt>
      <trkpt lat="45.73655" lon="2.98739">
        <ele>995.9</ele>
        <time>2014-11-01T08:31:19Z</time>
      </trkpt>
      <trkpt lat="45.73642" lon="2.98715">
        <ele>997.63</ele>
        <time>2014-11-01T08:31:25Z</time>
      </trkpt>
      <trkpt lat="45.73628" lon="2.98688">
        <ele>995.94</ele>
        <time>2014-11-01T08:31:31Z</time>
      </trkpt>
      <trkpt lat="45.7362" lon="2.98661">
        <ele>991.83</ele>
        <time>2014-11-01T08:31:36Z</time>
      </trkpt>
      <trkpt lat="45.73612" lon="2.98631">
        <ele>990.92</ele>
        <time>2014-11-01T08:31:42Z</time>
      </trkpt>
      <trkpt lat="45.73606" lon="2.98606">
        <ele>989.99</ele>
        <time>2014-11-01T08:31:47Z</time>
      </trkpt>
      <trkpt lat="45.73601" lon="2.9858">
        <ele>989.05</ele>
        <time>2014-11-01T08:31:52Z</time>
      </trkpt>
      <trkpt lat="45.73594" lon="2.98552">
        <ele>988.81</ele>
        <time>2014-11-01T08:31:57Z</time>
      </trkpt>
      <trkpt lat="45.73587" lon="2.98528">
        <ele>987.11</ele>
        <time>2014-11-01T08:32:01Z</time>
      </trkpt>
      <trkpt lat="45.73579" lon="2.98504">
        <ele>986.82</ele>
        <time>2014-11-01T08:32:05Z</time>
      </trkpt>
      <trkpt lat="45.7357" lon="2.98479">
        <ele>986.8</ele>
        <time>2014-11-01T08:32:09Z</time>
      </trkpt>
      <trkpt lat="45.73565" lon="2.98453">
        <ele>986.05</ele>
        <time>2014-11-01T08:32:13Z</time>
      </trkpt>
      <trkpt lat="45.73558" lon="2.98429">
        <ele>986.31</ele>
        <time>2014-11-01T08:32:17Z</time>
      </trkpt>
      <trkpt lat="45.73554" lon="2.98398">
        <ele>986.78</ele>
        <time>2014-11-01T08:32:22Z</time>
      </trkpt>
      <trkpt lat="45.73545" lon="2.9837">
        <ele>986.8</ele>
        <time>2014-11-01T08:32:27Z</time>
      </trkpt>
      <trkpt lat="45.73539" lon="2.98343">
        <ele>988.17</ele>
        <time>2014-11-01T08:32:32Z</time>
      </trkpt>
      <trkpt lat="45.73529" lon="2.98315">
        <ele>987.87</ele>
        <time>2014-11-01T08:32:37Z</time>
      </trkpt>
      <trkpt lat="45.7352" lon="2.98288">
        <ele>988.77</ele>
        <time>2014-11-01T08:32:42Z</time>
      </trkpt>
      <trkpt lat="45.73511" lon="2.98263">
        <ele>988.8</ele>
        <time>2014-11-01T08:32:47Z</time>
      </trkpt>
      <trkpt lat="45.73503" lon="2.98238">
        <ele>989.74</ele>
        <time>2014-11-01T08:32:52Z</time>
      </trkpt>
      <trkpt lat="45.73493" lon="2.98212">
        <ele>989.8</ele>
        <time>2014-11-01T08:32:57Z</time>
      </trkpt>
      <trkpt lat="45.73483" lon="2.98185">
        <ele>990.3</ele>
        <time>2014-11-01T08:33:02Z</time>
      </trkpt>
      <trkpt lat="45.73473" lon="2.98159">
        <ele>989.38</ele>
        <time>2014-11-01T08:33:07Z</time>
      </trkpt>
      <trkpt lat="45.73464" lon="2.98131">
        <ele>989.29</ele>
        <time>2014-11-01T08:33:12Z</time>
      </trkpt>
      <trkpt lat="45.73454" lon="2.98106">
        <ele>986.08</ele>
        <time>2014-11-01T08:33:16Z</time>
      </trkpt>
      <trkpt lat="45.73447" lon="2.98081">
        <ele>985.82</ele>
        <time>2014-11-01T08:33:20Z</time>
      </trkpt>
      <trkpt lat="45.7344" lon="2.98054">
        <ele>985.05</ele>
        <time>2014-11-01T08:33:24Z</time>
      </trkpt>
      <trkpt lat="45.73434" lon="2.98026">
        <ele>984.81</ele>
        <time>2014-11-01T08:33:28Z</time>
      </trkpt>
      <trkpt lat="45.7343" lon="2.97992">
        <ele>983.92</ele>
        <time>2014-11-01T08:33:32Z</time>
      </trkpt>
      <trkpt lat="45.73424" lon="2.97959">
        <ele>983.31</ele>
        <time>2014-11-01T08:33:36Z</time>
      </trkpt>
      <trkpt lat="45.73417" lon="2.97935">
        <ele>982.99</ele>
        <time>2014-11-01T08:33:39Z</time>
      </trkpt>
      <trkpt lat="45.73411" lon="2.9791">
        <ele>982.82</ele>
        <time>2014-11-01T08:33:42Z</time>
      </trkpt>
      <trkpt lat="45.73405" lon="2.97885">
        <ele>982.3</ele>
        <time>2014-11-01T08:33:45Z</time>
      </trkpt>
      <trkpt lat="45.73399" lon="2.97859">
        <ele>982.49</ele>
        <time>2014-11-01T08:33:48Z</time>
      </trkpt>
      <trkpt lat="45.73393" lon="2.97834">
        <ele>982.76</ele>
        <time>2014-11-01T08:33:51Z</time>
      </trkpt>
      <trkpt lat="45.73388" lon="2.97808">
        <ele>983.04</ele>
        <time>2014-11-01T08:33:54Z</time>
      </trkpt>
      <trkpt lat="45.73381" lon="2.97778">
        <ele>982.56</ele>
        <time>2014-11-01T08:33:58Z</time>
      </trkpt>
      <trkpt lat="45.73376" lon="2.97747">
        <ele>985.47</ele>
        <time>2014-11-01T08:34:02Z</time>
      </trkpt>
      <trkpt lat="45.73374" lon="2.97717">
        <ele>988.47</ele>
        <time>2014-11-01T08:34:06Z</time>
      </trkpt>
      <trkpt lat="45.73373" lon="2.97691">
        <ele>988.26</ele>
        <time>2014-11-01T08:34:09Z</time>
      </trkpt>
      <trkpt lat="45.73371" lon="2.97658">
        <ele>986.58</ele>
        <time>2014-11-01T08:34:13Z</time>
      </trkpt>
      <trkpt lat="45.73368" lon="2.97631">
        <ele>984.65</ele>
        <time>2014-11-01T08:34:16Z</time>
      </trkpt>
      <trkpt lat="45.73366" lon="2.97604">
        <ele>983.15</ele>
        <time>2014-11-01T08:34:19Z</time>
      </trkpt>
      <trkpt lat="45.73366" lon="2.97576">
        <ele>982.72</ele>
        <time>2014-11-01T08:34:22Z</time>
      </trkpt>
      <trkpt lat="45.73363" lon="2.97547">
        <ele>982.29</ele>
        <time>2014-11-01T08:34:25Z</time>
      </trkpt>
      <trkpt lat="45.73358" lon="2.97518">
        <ele>981.11</ele>
        <time>2014-11-01T08:34:28Z</time>
      </trkpt>
      <trkpt lat="45.73348" lon="2.97488">
        <ele>979.21</ele>
        <time>2014-11-01T08:34:31Z</time>
      </trkpt>
      <trkpt lat="45.73337" lon="2.97455">
        <ele>977.48</ele>
        <time>2014-11-01T08:34:34Z</time>
      </trkpt>
      <trkpt lat="45.73327" lon="2.97431">
        <ele>975.72</ele>
        <time>2014-11-01T08:34:36Z</time>
      </trkpt>
      <trkpt lat="45.73317" lon="2.97407">
        <ele>975.03</ele>
        <time>2014-11-01T08:34:38Z</time>
      </trkpt>
      <trkpt lat="45.73307" lon="2.97384">
        <ele>973.61</ele>
        <time>2014-11-01T08:34:40Z</time>
      </trkpt>
      <trkpt lat="45.73297" lon="2.97358">
        <ele>972.5</ele>
        <time>2014-11-01T08:34:42Z</time>
      </trkpt>
      <trkpt lat="45.73289" lon="2.9733">
        <ele>971.47</ele>
        <time>2014-11-01T08:34:44Z</time>
      </trkpt>
      <trkpt lat="45.73283" lon="2.97301">
        <ele>970.47</ele>
        <time>2014-11-01T08:34:46Z</time>
      </trkpt>
      <trkpt lat="45.73277" lon="2.97275">
        <ele>969.97</ele>
        <time>2014-11-01T08:34:48Z</time>
      </trkpt>
      <trkpt lat="45.73267" lon="2.97241">
        <ele>968.94</ele>
        <time>2014-11-01T08:34:51Z</time>
      </trkpt>
      <trkpt lat="45.73261" lon="2.9721">
        <ele>969.69</ele>
        <time>2014-11-01T08:34:54Z</time>
      </trkpt>
      <trkpt lat="45.73254" lon="2.97185">
        <ele>970.66</ele>
        <time>2014-11-01T08:34:57Z</time>
      </trkpt>
      <trkpt lat="45.73245" lon="2.97158">
        <ele>971.67</ele>
        <time>2014-11-01T08:35:01Z</time>
      </trkpt>
      <trkpt lat="45.73231" lon="2.97137">
        <ele>971.04</ele>
        <time>2014-11-01T08:35:06Z</time>
      </trkpt>
      <trkpt lat="45.7321" lon="2.97131">
        <ele>971.79</ele>
        <time>2014-11-01T08:35:12Z</time>
      </trkpt>
      <trkpt lat="45.73192" lon="2.97122">
        <ele>972.74</ele>
        <time>2014-11-01T08:35:17Z</time>
      </trkpt>
      <trkpt lat="45.73173" lon="2.97112">
        <ele>974.05</ele>
        <time>2014-11-01T08:35:22Z</time>
      </trkpt>
      <trkpt lat="45.73156" lon="2.97104">
        <ele>973.94</ele>
        <time>2014-11-01T08:35:26Z</time>
      </trkpt>
      <trkpt lat="45.73137" lon="2.97089">
        <ele>974.55</ele>
        <time>2014-11-01T08:35:31Z</time>
      </trkpt>
      <trkpt lat="45.73121" lon="2.97071">
        <ele>975.17</ele>
        <time>2014-11-01T08:35:36Z</time>
      </trkpt>
      <trkpt lat="45.73104" lon="2.97056">
        <ele>973.94</ele>
        <time>2014-11-01T08:35:41Z</time>
      </trkpt>
      <trkpt lat="45.73086" lon="2.97044">
        <ele>973.3</ele>
        <time>2014-11-01T08:35:46Z</time>
      </trkpt>
      <trkpt lat="45.73069" lon="2.97033">
        <ele>972.58</ele>
        <time>2014-11-01T08:35:50Z</time>
      </trkpt>
      <trkpt lat="45.7305" lon="2.97029">
        <ele>972.04</ele>
        <time>2014-11-01T08:35:54Z</time>
      </trkpt>
      <trkpt lat="45.73028" lon="2.97022">
        <ele>972.12</ele>
        <time>2014-11-01T08:35:59Z</time>
      </trkpt>
      <trkpt lat="45.73006" lon="2.97026">
        <ele>972.78</ele>
        <time>2014-11-01T08:36:04Z</time>
      </trkpt>
      <trkpt lat="45.72988" lon="2.97037">
        <ele>972.8</ele>
        <time>2014-11-01T08:36:08Z</time>
      </trkpt>
      <trkpt lat="45.72975" lon="2.97056">
        <ele>972.99</ele>
        <time>2014-11-01T08:36:12Z</time>
      </trkpt>
      <trkpt lat="45.72956" lon="2.9707">
        <ele>973.55</ele>
        <time>2014-11-01T08:36:17Z</time>
      </trkpt>
      <trkpt lat="45.72937" lon="2.97084">
        <ele>974.29</ele>
        <time>2014-11-01T08:36:22Z</time>
      </trkpt>
      <trkpt lat="45.72916" lon="2.97089">
        <ele>974.78</ele>
        <time>2014-11-01T08:36:27Z</time>
      </trkpt>
      <trkpt lat="45.72896" lon="2.97085">
        <ele>974.8</ele>
        <time>2014-11-01T08:36:31Z</time>
      </trkpt>
      <trkpt lat="45.72873" lon="2.97083">
        <ele>973.86</ele>
        <time>2014-11-01T08:36:35Z</time>
      </trkpt>
      <trkpt lat="45.72854" lon="2.9708">
        <ele>975.18</ele>
        <time>2014-11-01T08:36:38Z</time>
      </trkpt>
      <trkpt lat="45.72836" lon="2.97077">
        <ele>976.1</ele>
        <time>2014-11-01T08:36:41Z</time>
      </trkpt>
      <trkpt lat="45.72815" lon="2.97077">
        <ele>976.34</ele>
        <time>2014-11-01T08:36:44Z</time>
      </trkpt>
      <trkpt lat="45.72795" lon="2.97079">
        <ele>976.74</ele>
        <time>2014-11-01T08:36:47Z</time>
      </trkpt>
      <trkpt lat="45.72777" lon="2.97091">
        <ele>975.92</ele>
        <time>2014-11-01T08:36:50Z</time>
      </trkpt>
      <trkpt lat="45.7276" lon="2.97104">
        <ele>976.56</ele>
        <time>2014-11-01T08:36:53Z</time>
      </trkpt>
      <trkpt lat="45.72743" lon="2.97121">
        <ele>976.77</ele>
        <time>2014-11-01T08:36:56Z</time>
      </trkpt>
      <trkpt lat="45.72722" lon="2.97128">
        <ele>977.67</ele>
        <time>2014-11-01T08:36:59Z</time>
      </trkpt>
      <trkpt lat="45.72702" lon="2.97139">
        <ele>976.91</ele>
        <time>2014-11-01T08:37:02Z</time>
      </trkpt>
      <trkpt lat="45.72685" lon="2.97148">
        <ele>977.69</ele>
        <time>2014-11-01T08:37:05Z</time>
      </trkpt>
      <trkpt lat="45.72666" lon="2.9716">
        <ele>976.1</ele>
        <time>2014-11-01T08:37:09Z</time>
      </trkpt>
      <trkpt lat="45.72645" lon="2.97165">
        <ele>977.51</ele>
        <time>2014-11-01T08:37:13Z</time>
      </trkpt>
      <trkpt lat="45.72622" lon="2.97164">
        <ele>975.88</ele>
        <time>2014-11-01T08:37:18Z</time>
      </trkpt>
      <trkpt lat="45.72601" lon="2.97162">
        <ele>974.99</ele>
        <time>2014-11-01T08:37:22Z</time>
      </trkpt>
      <trkpt lat="45.72579" lon="2.97162">
        <ele>975.25</ele>
        <time>2014-11-01T08:37:26Z</time>
      </trkpt>
      <trkpt lat="45.72561" lon="2.97168">
        <ele>974.86</ele>
        <time>2014-11-01T08:37:29Z</time>
      </trkpt>
      <trkpt lat="45.72538" lon="2.97186">
        <ele>971.05</ele>
        <time>2014-11-01T08:37:33Z</time>
      </trkpt>
      <trkpt lat="45.72516" lon="2.97198">
        <ele>966.19</ele>
        <time>2014-11-01T08:37:37Z</time>
      </trkpt>
      <trkpt lat="45.72493" lon="2.97201">
        <ele>966.7</ele>
        <time>2014-11-01T08:37:41Z</time>
      </trkpt>
      <trkpt lat="45.7247" lon="2.97206">
        <ele>966.79</ele>
        <time>2014-11-01T08:37:44Z</time>
      </trkpt>
      <trkpt lat="45.72452" lon="2.9721">
        <ele>966.55</ele>
        <time>2014-11-01T08:37:47Z</time>
      </trkpt>
      <trkpt lat="45.72433" lon="2.97211">
        <ele>966.27</ele>
        <time>2014-11-01T08:37:50Z</time>
      </trkpt>
      <trkpt lat="45.7241" lon="2.97207">
        <ele>965.73</ele>
        <time>2014-11-01T08:37:53Z</time>
      </trkpt>
      <trkpt lat="45.72394" lon="2.97197">
        <ele>966.29</ele>
        <time>2014-11-01T08:37:56Z</time>
      </trkpt>
      <trkpt lat="45.72375" lon="2.97194">
        <ele>964.24</ele>
        <time>2014-11-01T08:37:59Z</time>
      </trkpt>
      <trkpt lat="45.72355" lon="2.97186">
        <ele>962.98</ele>
        <time>2014-11-01T08:38:02Z</time>
      </trkpt>
      <trkpt lat="45.72334" lon="2.97174">
        <ele>961.7</ele>
        <time>2014-11-01T08:38:05Z</time>
      </trkpt>
      <trkpt lat="45.72317" lon="2.97165">
        <ele>963.04</ele>
        <time>2014-11-01T08:38:08Z</time>
      </trkpt>
      <trkpt lat="45.72298" lon="2.9716">
        <ele>965.45</ele>
        <time>2014-11-01T08:38:11Z</time>
      </trkpt>
      <trkpt lat="45.72279" lon="2.97152">
        <ele>967.01</ele>
        <time>2014-11-01T08:38:14Z</time>
      </trkpt>
      <trkpt lat="45.72257" lon="2.97143">
        <ele>966.94</ele>
        <time>2014-11-01T08:38:18Z</time>
      </trkpt>
      <trkpt lat="45.72239" lon="2.97135">
        <ele>967.58</ele>
        <time>2014-11-01T08:38:20Z</time>
      </trkpt>
      <trkpt lat="45.72216" lon="2.97131">
        <ele>966.52</ele>
        <time>2014-11-01T08:38:23Z</time>
      </trkpt>
      <trkpt lat="45.7219" lon="2.9713">
        <ele>965.89</ele>
        <time>2014-11-01T08:38:26Z</time>
      </trkpt>
      <trkpt lat="45.72166" lon="2.97126">
        <ele>964.44</ele>
        <time>2014-11-01T08:38:29Z</time>
      </trkpt>
      <trkpt lat="45.72143" lon="2.97117">
        <ele>964.63</ele>
        <time>2014-11-01T08:38:32Z</time>
      </trkpt>
      <trkpt lat="45.72121" lon="2.9711">
        <ele>963.15</ele>
        <time>2014-11-01T08:38:35Z</time>
      </trkpt>
      <trkpt lat="45.72096" lon="2.97104">
        <ele>962.34</ele>
        <time>2014-11-01T08:38:38Z</time>
      </trkpt>
      <trkpt lat="45.72074" lon="2.971">
        <ele>959.37</ele>
        <time>2014-11-01T08:38:41Z</time>
      </trkpt>
      <trkpt lat="45.72053" lon="2.97094">
        <ele>958.12</ele>
        <time>2014-11-01T08:38:44Z</time>
      </trkpt>
      <trkpt lat="45.72033" lon="2.97087">
        <ele>957.84</ele>
        <time>2014-11-01T08:38:47Z</time>
      </trkpt>
      <trkpt lat="45.72013" lon="2.97081">
        <ele>957.18</ele>
        <time>2014-11-01T08:38:50Z</time>
      </trkpt>
      <trkpt lat="45.71991" lon="2.97067">
        <ele>956.85</ele>
        <time>2014-11-01T08:38:53Z</time>
      </trkpt>
      <trkpt lat="45.71966" lon="2.97053">
        <ele>955.55</ele>
        <time>2014-11-01T08:38:57Z</time>
      </trkpt>
      <trkpt lat="45.71942" lon="2.97046">
        <ele>954.89</ele>
        <time>2014-11-01T08:39:00Z</time>
      </trkpt>
      <trkpt lat="45.71918" lon="2.97039">
        <ele>954.81</ele>
        <time>2014-11-01T08:39:03Z</time>
      </trkpt>
      <trkpt lat="45.71896" lon="2.97033">
        <ele>954.18</ele>
        <time>2014-11-01T08:39:06Z</time>
      </trkpt>
      <trkpt lat="45.71875" lon="2.9703">
        <ele>951.35</ele>
        <time>2014-11-01T08:39:09Z</time>
      </trkpt>
      <trkpt lat="45.71856" lon="2.97023">
        <ele>950.87</ele>
        <time>2014-11-01T08:39:12Z</time>
      </trkpt>
      <trkpt lat="45.71835" lon="2.97019">
        <ele>950.06</ele>
        <time>2014-11-01T08:39:15Z</time>
      </trkpt>
      <trkpt lat="45.71815" lon="2.97013">
        <ele>949.83</ele>
        <time>2014-11-01T08:39:18Z</time>
      </trkpt>
      <trkpt lat="45.71797" lon="2.97005">
        <ele>949.8</ele>
        <time>2014-11-01T08:39:21Z</time>
      </trkpt>
      <trkpt lat="45.71775" lon="2.97002">
        <ele>949.92</ele>
        <time>2014-11-01T08:39:24Z</time>
      </trkpt>
      <trkpt lat="45.71633" lon="2.97008">
        <ele>940.81</ele>
        <time>2014-11-01T08:39:43Z</time>
      </trkpt>
      <trkpt lat="45.71615" lon="2.97011">
        <ele>936.83</ele>
        <time>2014-11-01T08:39:48Z</time>
      </trkpt>
      <trkpt lat="45.71595" lon="2.97016">
        <ele>936.86</ele>
        <time>2014-11-01T08:39:52Z</time>
      </trkpt>
      <trkpt lat="45.71579" lon="2.97032">
        <ele>936.3</ele>
        <time>2014-11-01T08:39:56Z</time>
      </trkpt>
      <trkpt lat="45.7157" lon="2.97054">
        <ele>942.03</ele>
        <time>2014-11-01T08:40:01Z</time>
      </trkpt>
      <trkpt lat="45.71568" lon="2.97082">
        <ele>944.59</ele>
        <time>2014-11-01T08:40:08Z</time>
      </trkpt>
      <trkpt lat="45.71563" lon="2.9711">
        <ele>948.65</ele>
        <time>2014-11-01T08:40:16Z</time>
      </trkpt>
      <trkpt lat="45.71546" lon="2.97118">
        <ele>949.89</ele>
        <time>2014-11-01T08:40:22Z</time>
      </trkpt>
      <trkpt lat="45.71531" lon="2.97102">
        <ele>959.21</ele>
        <time>2014-11-01T08:40:30Z</time>
      </trkpt>
      <trkpt lat="45.71511" lon="2.97093">
        <ele>958.76</ele>
        <time>2014-11-01T08:40:38Z</time>
      </trkpt>
      <trkpt lat="45.71491" lon="2.97096">
        <ele>957.02</ele>
        <time>2014-11-01T08:40:44Z</time>
      </trkpt>
      <trkpt lat="45.71471" lon="2.97106">
        <ele>964.15</ele>
        <time>2014-11-01T08:40:54Z</time>
      </trkpt>
      <trkpt lat="45.71454" lon="2.97117">
        <ele>962.93</ele>
        <time>2014-11-01T08:41:01Z</time>
      </trkpt>
      <trkpt lat="45.71435" lon="2.97126">
        <ele>963.54</ele>
        <time>2014-11-01T08:41:07Z</time>
      </trkpt>
      <trkpt lat="45.71414" lon="2.97126">
        <ele>965.67</ele>
        <time>2014-11-01T08:41:14Z</time>
      </trkpt>
      <trkpt lat="45.71396" lon="2.97116">
        <ele>969.08</ele>
        <time>2014-11-01T08:41:22Z</time>
      </trkpt>
      <trkpt lat="45.71375" lon="2.97106">
        <ele>969.29</ele>
        <time>2014-11-01T08:41:28Z</time>
      </trkpt>
      <trkpt lat="45.71356" lon="2.97107">
        <ele>977.31</ele>
        <time>2014-11-01T08:41:37Z</time>
      </trkpt>
      <trkpt lat="45.71335" lon="2.9711">
        <ele>977.77</ele>
        <time>2014-11-01T08:41:41Z</time>
      </trkpt>
      <trkpt lat="45.71313" lon="2.9712">
        <ele>977.7</ele>
        <time>2014-11-01T08:41:46Z</time>
      </trkpt>
      <trkpt lat="45.71292" lon="2.97126">
        <ele>977.29</ele>
        <time>2014-11-01T08:41:50Z</time>
      </trkpt>
      <trkpt lat="45.7127" lon="2.97134">
        <ele>975.58</ele>
        <time>2014-11-01T08:41:54Z</time>
      </trkpt>
      <trkpt lat="45.71252" lon="2.97146">
        <ele>974.2</ele>
        <time>2014-11-01T08:41:59Z</time>
      </trkpt>
      <trkpt lat="45.71236" lon="2.97159">
        <ele>970.01</ele>
        <time>2014-11-01T08:42:03Z</time>
      </trkpt>
      <trkpt lat="45.71225" lon="2.97181">
        <ele>971.8</ele>
        <time>2014-11-01T08:42:10Z</time>
      </trkpt>
      <trkpt lat="45.71206" lon="2.97188">
        <ele>972.36</ele>
        <time>2014-11-01T08:42:14Z</time>
      </trkpt>
      <trkpt lat="45.71191" lon="2.97209">
        <ele>968</ele>
        <time>2014-11-01T08:42:19Z</time>
      </trkpt>
      <trkpt lat="45.71173" lon="2.97217">
        <ele>966.57</ele>
        <time>2014-11-01T08:42:22Z</time>
      </trkpt>
      <trkpt lat="45.71153" lon="2.97223">
        <ele>967.23</ele>
        <time>2014-11-01T08:42:27Z</time>
      </trkpt>
      <trkpt lat="45.71134" lon="2.97224">
        <ele>967.78</ele>
        <time>2014-11-01T08:42:32Z</time>
      </trkpt>
      <trkpt lat="45.71116" lon="2.9723">
        <ele>971.39</ele>
        <time>2014-11-01T08:42:38Z</time>
      </trkpt>
      <trkpt lat="45.71097" lon="2.97234">
        <ele>970.79</ele>
        <time>2014-11-01T08:42:43Z</time>
      </trkpt>
      <trkpt lat="45.71079" lon="2.97231">
        <ele>969.92</ele>
        <time>2014-11-01T08:42:46Z</time>
      </trkpt>
      <trkpt lat="45.71057" lon="2.97226">
        <ele>965.56</ele>
        <time>2014-11-01T08:42:50Z</time>
      </trkpt>
      <trkpt lat="45.71035" lon="2.97223">
        <ele>964.77</ele>
        <time>2014-11-01T08:42:53Z</time>
      </trkpt>
      <trkpt lat="45.71015" lon="2.97219">
        <ele>966.05</ele>
        <time>2014-11-01T08:42:56Z</time>
      </trkpt>
      <trkpt lat="45.70991" lon="2.97214">
        <ele>967.5</ele>
        <time>2014-11-01T08:43:00Z</time>
      </trkpt>
      <trkpt lat="45.70972" lon="2.97209">
        <ele>968.51</ele>
        <time>2014-11-01T08:43:03Z</time>
      </trkpt>
      <trkpt lat="45.70952" lon="2.97209">
        <ele>968.51</ele>
        <time>2014-11-01T08:43:06Z</time>
      </trkpt>
      <trkpt lat="45.7093" lon="2.97212">
        <ele>964.64</ele>
        <time>2014-11-01T08:43:09Z</time>
      </trkpt>
      <trkpt lat="45.7091" lon="2.972">
        <ele>964.65</ele>
        <time>2014-11-01T08:43:16Z</time>
      </trkpt>
      <trkpt lat="45.70889" lon="2.97193">
        <ele>962.83</ele>
        <time>2014-11-01T08:43:21Z</time>
      </trkpt>
      <trkpt lat="45.70867" lon="2.97185">
        <ele>966.8</ele>
        <time>2014-11-01T08:43:27Z</time>
      </trkpt>
      <trkpt lat="45.70852" lon="2.97172">
        <ele>962.67</ele>
        <time>2014-11-01T08:43:32Z</time>
      </trkpt>
      <trkpt lat="45.70837" lon="2.97154">
        <ele>957.67</ele>
        <time>2014-11-01T08:43:36Z</time>
      </trkpt>
      <trkpt lat="45.70818" lon="2.97137">
        <ele>956.85</ele>
        <time>2014-11-01T08:43:40Z</time>
      </trkpt>
      <trkpt lat="45.70808" lon="2.97114">
        <ele>956.49</ele>
        <time>2014-11-01T08:43:44Z</time>
      </trkpt>
      <trkpt lat="45.7079" lon="2.97095">
        <ele>958.15</ele>
        <time>2014-11-01T08:43:48Z</time>
      </trkpt>
      <trkpt lat="45.7077" lon="2.97084">
        <ele>957.84</ele>
        <time>2014-11-01T08:43:51Z</time>
      </trkpt>
      <trkpt lat="45.70749" lon="2.97067">
        <ele>957.05</ele>
        <time>2014-11-01T08:43:55Z</time>
      </trkpt>
      <trkpt lat="45.7073" lon="2.97057">
        <ele>958.25</ele>
        <time>2014-11-01T08:43:59Z</time>
      </trkpt>
      <trkpt lat="45.70712" lon="2.97054">
        <ele>957.33</ele>
        <time>2014-11-01T08:44:03Z</time>
      </trkpt>
      <trkpt lat="45.70693" lon="2.97059">
        <ele>960.72</ele>
        <time>2014-11-01T08:44:08Z</time>
      </trkpt>
      <trkpt lat="45.70673" lon="2.97066">
        <ele>962.67</ele>
        <time>2014-11-01T08:44:13Z</time>
      </trkpt>
      <trkpt lat="45.70654" lon="2.9707">
        <ele>961.67</ele>
        <time>2014-11-01T08:44:18Z</time>
      </trkpt>
      <trkpt lat="45.70632" lon="2.97066">
        <ele>964.16</ele>
        <time>2014-11-01T08:44:24Z</time>
      </trkpt>
      <trkpt lat="45.70602" lon="2.97074">
        <ele>966.95</ele>
        <time>2014-11-01T08:44:32Z</time>
      </trkpt>
      <trkpt lat="45.70581" lon="2.97078">
        <ele>967.77</ele>
        <time>2014-11-01T08:44:38Z</time>
      </trkpt>
      <trkpt lat="45.70562" lon="2.9708">
        <ele>972.91</ele>
        <time>2014-11-01T08:44:44Z</time>
      </trkpt>
      <trkpt lat="45.70544" lon="2.97092">
        <ele>975.71</ele>
        <time>2014-11-01T08:44:49Z</time>
      </trkpt>
      <trkpt lat="45.70525" lon="2.97101">
        <ele>979.22</ele>
        <time>2014-11-01T08:44:55Z</time>
      </trkpt>
      <trkpt lat="45.70503" lon="2.97104">
        <ele>982.32</ele>
        <time>2014-11-01T08:45:01Z</time>
      </trkpt>
      <trkpt lat="45.70485" lon="2.97115">
        <ele>985.46</ele>
        <time>2014-11-01T08:45:07Z</time>
      </trkpt>
      <trkpt lat="45.70468" lon="2.97129">
        <ele>981.98</ele>
        <time>2014-11-01T08:45:13Z</time>
      </trkpt>
      <trkpt lat="45.70452" lon="2.97145">
        <ele>982.77</ele>
        <time>2014-11-01T08:45:18Z</time>
      </trkpt>
      <trkpt lat="45.70438" lon="2.9717">
        <ele>981.33</ele>
        <time>2014-11-01T08:45:23Z</time>
      </trkpt>
      <trkpt lat="45.70427" lon="2.97193">
        <ele>979.89</ele>
        <time>2014-11-01T08:45:27Z</time>
      </trkpt>
      <trkpt lat="45.70412" lon="2.97215">
        <ele>976.68</ele>
        <time>2014-11-01T08:45:31Z</time>
      </trkpt>
      <trkpt lat="45.70393" lon="2.97225">
        <ele>976.6</ele>
        <time>2014-11-01T08:45:35Z</time>
      </trkpt>
      <trkpt lat="45.70376" lon="2.97233">
        <ele>975.08</ele>
        <time>2014-11-01T08:45:43Z</time>
      </trkpt>
      <trkpt lat="45.70357" lon="2.97227">
        <ele>974.5</ele>
        <time>2014-11-01T08:45:48Z</time>
      </trkpt>
      <trkpt lat="45.70338" lon="2.97212">
        <ele>971.48</ele>
        <time>2014-11-01T08:45:53Z</time>
      </trkpt>
      <trkpt lat="45.7032" lon="2.972">
        <ele>968.72</ele>
        <time>2014-11-01T08:45:59Z</time>
      </trkpt>
      <trkpt lat="45.70304" lon="2.9718">
        <ele>975.14</ele>
        <time>2014-11-01T08:46:07Z</time>
      </trkpt>
      <trkpt lat="45.70294" lon="2.97158">
        <ele>982.38</ele>
        <time>2014-11-01T08:46:15Z</time>
      </trkpt>
      <trkpt lat="45.70278" lon="2.97144">
        <ele>982.53</ele>
        <time>2014-11-01T08:46:21Z</time>
      </trkpt>
      <trkpt lat="45.70261" lon="2.97132">
        <ele>982.54</ele>
        <time>2014-11-01T08:46:27Z</time>
      </trkpt>
      <trkpt lat="45.70241" lon="2.97121">
        <ele>979.1</ele>
        <time>2014-11-01T08:46:32Z</time>
      </trkpt>
      <trkpt lat="45.70225" lon="2.97103">
        <ele>977.61</ele>
        <time>2014-11-01T08:46:40Z</time>
      </trkpt>
      <trkpt lat="45.70212" lon="2.97085">
        <ele>983.77</ele>
        <time>2014-11-01T08:46:48Z</time>
      </trkpt>
      <trkpt lat="45.70193" lon="2.97079">
        <ele>984.67</ele>
        <time>2014-11-01T08:46:52Z</time>
      </trkpt>
      <trkpt lat="45.70177" lon="2.97063">
        <ele>979.5</ele>
        <time>2014-11-01T08:46:58Z</time>
      </trkpt>
      <trkpt lat="45.70162" lon="2.97045">
        <ele>981.48</ele>
        <time>2014-11-01T08:47:05Z</time>
      </trkpt>
      <trkpt lat="45.70143" lon="2.97037">
        <ele>983.03</ele>
        <time>2014-11-01T08:47:09Z</time>
      </trkpt>
      <trkpt lat="45.70128" lon="2.97022">
        <ele>981.32</ele>
        <time>2014-11-01T08:47:16Z</time>
      </trkpt>
      <trkpt lat="45.70113" lon="2.97006">
        <ele>981.13</ele>
        <time>2014-11-01T08:47:21Z</time>
      </trkpt>
      <trkpt lat="45.70094" lon="2.9699">
        <ele>981.12</ele>
        <time>2014-11-01T08:47:26Z</time>
      </trkpt>
      <trkpt lat="45.70088" lon="2.96962">
        <ele>976.56</ele>
        <time>2014-11-01T08:47:31Z</time>
      </trkpt>
      <trkpt lat="45.70073" lon="2.96947">
        <ele>976.03</ele>
        <time>2014-11-01T08:47:40Z</time>
      </trkpt>
      <trkpt lat="45.70061" lon="2.96966">
        <ele>980.11</ele>
        <time>2014-11-01T08:47:47Z</time>
      </trkpt>
      <trkpt lat="45.70049" lon="2.96988">
        <ele>982.63</ele>
        <time>2014-11-01T08:47:53Z</time>
      </trkpt>
      <trkpt lat="45.70033" lon="2.97007">
        <ele>982.72</ele>
        <time>2014-11-01T08:47:59Z</time>
      </trkpt>
      <trkpt lat="45.7002" lon="2.97025">
        <ele>984.52</ele>
        <time>2014-11-01T08:48:04Z</time>
      </trkpt>
      <trkpt lat="45.7001" lon="2.97047">
        <ele>987.04</ele>
        <time>2014-11-01T08:48:09Z</time>
      </trkpt>
      <trkpt lat="45.69997" lon="2.97071">
        <ele>987.63</ele>
        <time>2014-11-01T08:48:13Z</time>
      </trkpt>
      <trkpt lat="45.69986" lon="2.97093">
        <ele>986.29</ele>
        <time>2014-11-01T08:48:17Z</time>
      </trkpt>
      <trkpt lat="45.6997" lon="2.97111">
        <ele>987.27</ele>
        <time>2014-11-01T08:48:21Z</time>
      </trkpt>
      <trkpt lat="45.69967" lon="2.97137">
        <ele>983.86</ele>
        <time>2014-11-01T08:48:24Z</time>
      </trkpt>
      <trkpt lat="45.69955" lon="2.97158">
        <ele>983.62</ele>
        <time>2014-11-01T08:48:28Z</time>
      </trkpt>
      <trkpt lat="45.69955" lon="2.97188">
        <ele>980.85</ele>
        <time>2014-11-01T08:48:32Z</time>
      </trkpt>
      <trkpt lat="45.6995" lon="2.97224">
        <ele>979.83</ele>
        <time>2014-11-01T08:48:37Z</time>
      </trkpt>
      <trkpt lat="45.69945" lon="2.97253">
        <ele>979.74</ele>
        <time>2014-11-01T08:48:41Z</time>
      </trkpt>
      <trkpt lat="45.69935" lon="2.9728">
        <ele>977.79</ele>
        <time>2014-11-01T08:48:44Z</time>
      </trkpt>
      <trkpt lat="45.69927" lon="2.97306">
        <ele>977.67</ele>
        <time>2014-11-01T08:48:47Z</time>
      </trkpt>
      <trkpt lat="45.6992" lon="2.97336">
        <ele>976.91</ele>
        <time>2014-11-01T08:48:50Z</time>
      </trkpt>
      <trkpt lat="45.69908" lon="2.97363">
        <ele>972.81</ele>
        <time>2014-11-01T08:48:53Z</time>
      </trkpt>
      <trkpt lat="45.699" lon="2.97395">
        <ele>968.43</ele>
        <time>2014-11-01T08:48:56Z</time>
      </trkpt>
      <trkpt lat="45.6989" lon="2.97417">
        <ele>968.13</ele>
        <time>2014-11-01T08:48:59Z</time>
      </trkpt>
      <trkpt lat="45.69877" lon="2.97442">
        <ele>966.32</ele>
        <time>2014-11-01T08:49:03Z</time>
      </trkpt>
      <trkpt lat="45.69869" lon="2.97483">
        <ele>964.24</ele>
        <time>2014-11-01T08:49:06Z</time>
      </trkpt>
      <trkpt lat="45.69855" lon="2.97505">
        <ele>962.98</ele>
        <time>2014-11-01T08:49:09Z</time>
      </trkpt>
      <trkpt lat="45.69854" lon="2.97534">
        <ele>960.7</ele>
        <time>2014-11-01T08:49:12Z</time>
      </trkpt>
      <trkpt lat="45.69837" lon="2.97561">
        <ele>959.29</ele>
        <time>2014-11-01T08:49:15Z</time>
      </trkpt>
      <trkpt lat="45.69831" lon="2.97587">
        <ele>958.98</ele>
        <time>2014-11-01T08:49:18Z</time>
      </trkpt>
      <trkpt lat="45.69823" lon="2.97615">
        <ele>957.57</ele>
        <time>2014-11-01T08:49:21Z</time>
      </trkpt>
      <trkpt lat="45.69814" lon="2.97648">
        <ele>956.4</ele>
        <time>2014-11-01T08:49:24Z</time>
      </trkpt>
      <trkpt lat="45.69815" lon="2.97675">
        <ele>955.7</ele>
        <time>2014-11-01T08:49:26Z</time>
      </trkpt>
      <trkpt lat="45.69806" lon="2.97704">
        <ele>953.04</ele>
        <time>2014-11-01T08:49:29Z</time>
      </trkpt>
      <trkpt lat="45.698" lon="2.97736">
        <ele>949.08</ele>
        <time>2014-11-01T08:49:32Z</time>
      </trkpt>
      <trkpt lat="45.69787" lon="2.9776">
        <ele>947.46</ele>
        <time>2014-11-01T08:49:35Z</time>
      </trkpt>
      <trkpt lat="45.69782" lon="2.97791">
        <ele>948.13</ele>
        <time>2014-11-01T08:49:38Z</time>
      </trkpt>
      <trkpt lat="45.69768" lon="2.9782">
        <ele>948.72</ele>
        <time>2014-11-01T08:49:41Z</time>
      </trkpt>
      <trkpt lat="45.69755" lon="2.97847">
        <ele>948.79</ele>
        <time>2014-11-01T08:49:44Z</time>
      </trkpt>
      <trkpt lat="45.69747" lon="2.97878">
        <ele>951.8</ele>
        <time>2014-11-01T08:49:47Z</time>
      </trkpt>
      <trkpt lat="45.69736" lon="2.97908">
        <ele>950.92</ele>
        <time>2014-11-01T08:49:50Z</time>
      </trkpt>
      <trkpt lat="45.69726" lon="2.97936">
        <ele>950.81</ele>
        <time>2014-11-01T08:49:53Z</time>
      </trkpt>
      <trkpt lat="45.69719" lon="2.97965">
        <ele>949.43</ele>
        <time>2014-11-01T08:49:56Z</time>
      </trkpt>
      <trkpt lat="45.69714" lon="2.97996">
        <ele>949</ele>
        <time>2014-11-01T08:49:59Z</time>
      </trkpt>
      <trkpt lat="45.69705" lon="2.98024">
        <ele>948.82</ele>
        <time>2014-11-01T08:50:02Z</time>
      </trkpt>
      <trkpt lat="45.69689" lon="2.9805">
        <ele>946.55</ele>
        <time>2014-11-01T08:50:05Z</time>
      </trkpt>
      <trkpt lat="45.69691" lon="2.9808">
        <ele>946.41</ele>
        <time>2014-11-01T08:50:09Z</time>
      </trkpt>
      <trkpt lat="45.69697" lon="2.98107">
        <ele>947.59</ele>
        <time>2014-11-01T08:50:13Z</time>
      </trkpt>
      <trkpt lat="45.69693" lon="2.98135">
        <ele>950.8</ele>
        <time>2014-11-01T08:50:19Z</time>
      </trkpt>
      <trkpt lat="45.69687" lon="2.98162">
        <ele>952.3</ele>
        <time>2014-11-01T08:50:24Z</time>
      </trkpt>
      <trkpt lat="45.69679" lon="2.98188">
        <ele>952.85</ele>
        <time>2014-11-01T08:50:29Z</time>
      </trkpt>
      <trkpt lat="45.69682" lon="2.98217">
        <ele>953.3</ele>
        <time>2014-11-01T08:50:34Z</time>
      </trkpt>
      <trkpt lat="45.69672" lon="2.98244">
        <ele>954.15</ele>
        <time>2014-11-01T08:50:40Z</time>
      </trkpt>
      <trkpt lat="45.69663" lon="2.98267">
        <ele>952.84</ele>
        <time>2014-11-01T08:50:45Z</time>
      </trkpt>
      <trkpt lat="45.69648" lon="2.98283">
        <ele>951.05</ele>
        <time>2014-11-01T08:50:50Z</time>
      </trkpt>
      <trkpt lat="45.69652" lon="2.98309">
        <ele>951.56</ele>
        <time>2014-11-01T08:50:55Z</time>
      </trkpt>
      <trkpt lat="45.69647" lon="2.98337">
        <ele>956.45</ele>
        <time>2014-11-01T08:51:01Z</time>
      </trkpt>
      <trkpt lat="45.69647" lon="2.98364">
        <ele>956.84</ele>
        <time>2014-11-01T08:51:05Z</time>
      </trkpt>
      <trkpt lat="45.69643" lon="2.9839">
        <ele>955.36</ele>
        <time>2014-11-01T08:51:09Z</time>
      </trkpt>
      <trkpt lat="45.69645" lon="2.98425">
        <ele>951.99</ele>
        <time>2014-11-01T08:51:12Z</time>
      </trkpt>
      <trkpt lat="45.69642" lon="2.98455">
        <ele>944.35</ele>
        <time>2014-11-01T08:51:14Z</time>
      </trkpt>
      <trkpt lat="45.69637" lon="2.98488">
        <ele>937.99</ele>
        <time>2014-11-01T08:51:17Z</time>
      </trkpt>
      <trkpt lat="45.6964" lon="2.98516">
        <ele>933.7</ele>
        <time>2014-11-01T08:51:20Z</time>
      </trkpt>
      <trkpt lat="45.69633" lon="2.9854">
        <ele>933.61</ele>
        <time>2014-11-01T08:51:24Z</time>
      </trkpt>
      <trkpt lat="45.69626" lon="2.98567">
        <ele>934.65</ele>
        <time>2014-11-01T08:51:27Z</time>
      </trkpt>
      <trkpt lat="45.69618" lon="2.98597">
        <ele>934.78</ele>
        <time>2014-11-01T08:51:30Z</time>
      </trkpt>
      <trkpt lat="45.69611" lon="2.98628">
        <ele>933.92</ele>
        <time>2014-11-01T08:51:33Z</time>
      </trkpt>
      <trkpt lat="45.69605" lon="2.98659">
        <ele>933.81</ele>
        <time>2014-11-01T08:51:36Z</time>
      </trkpt>
      <trkpt lat="45.69596" lon="2.98692">
        <ele>934.68</ele>
        <time>2014-11-01T08:51:39Z</time>
      </trkpt>
      <trkpt lat="45.69588" lon="2.98721">
        <ele>935.91</ele>
        <time>2014-11-01T08:51:42Z</time>
      </trkpt>
      <trkpt lat="45.69577" lon="2.98749">
        <ele>936.49</ele>
        <time>2014-11-01T08:51:46Z</time>
      </trkpt>
      <trkpt lat="45.69569" lon="2.98773">
        <ele>937.64</ele>
        <time>2014-11-01T08:51:49Z</time>
      </trkpt>
      <trkpt lat="45.69564" lon="2.98801">
        <ele>936.9</ele>
        <time>2014-11-01T08:51:52Z</time>
      </trkpt>
      <trkpt lat="45.69562" lon="2.9883">
        <ele>936.31</ele>
        <time>2014-11-01T08:51:55Z</time>
      </trkpt>
      <trkpt lat="45.69555" lon="2.98859">
        <ele>936.61</ele>
        <time>2014-11-01T08:51:58Z</time>
      </trkpt>
      <trkpt lat="45.69542" lon="2.98887">
        <ele>936.03</ele>
        <time>2014-11-01T08:52:01Z</time>
      </trkpt>
      <trkpt lat="45.69529" lon="2.98911">
        <ele>936.95</ele>
        <time>2014-11-01T08:52:04Z</time>
      </trkpt>
      <trkpt lat="45.69514" lon="2.98939">
        <ele>936.44</ele>
        <time>2014-11-01T08:52:07Z</time>
      </trkpt>
      <trkpt lat="45.69517" lon="2.9897">
        <ele>933.25</ele>
        <time>2014-11-01T08:52:10Z</time>
      </trkpt>
      <trkpt lat="45.69526" lon="2.98998">
        <ele>933.48</ele>
        <time>2014-11-01T08:52:13Z</time>
      </trkpt>
      <trkpt lat="45.69538" lon="2.99026">
        <ele>934.26</ele>
        <time>2014-11-01T08:52:16Z</time>
      </trkpt>
      <trkpt lat="45.69546" lon="2.99052">
        <ele>934.98</ele>
        <time>2014-11-01T08:52:19Z</time>
      </trkpt>
      <trkpt lat="45.69552" lon="2.99077">
        <ele>934.95</ele>
        <time>2014-11-01T08:52:22Z</time>
      </trkpt>
      <trkpt lat="45.69559" lon="2.99101">
        <ele>934.82</ele>
        <time>2014-11-01T08:52:25Z</time>
      </trkpt>
      <trkpt lat="45.69565" lon="2.99133">
        <ele>931.8</ele>
        <time>2014-11-01T08:52:28Z</time>
      </trkpt>
      <trkpt lat="45.69556" lon="2.99162">
        <ele>928.42</ele>
        <time>2014-11-01T08:52:31Z</time>
      </trkpt>
      <trkpt lat="45.69542" lon="2.99188">
        <ele>927.25</ele>
        <time>2014-11-01T08:52:34Z</time>
      </trkpt>
      <trkpt lat="45.6953" lon="2.99216">
        <ele>926.86</ele>
        <time>2014-11-01T08:52:37Z</time>
      </trkpt>
      <trkpt lat="45.69523" lon="2.99244">
        <ele>926.68</ele>
        <time>2014-11-01T08:52:40Z</time>
      </trkpt>
      <trkpt lat="45.69512" lon="2.99277">
        <ele>924.41</ele>
        <time>2014-11-01T08:52:43Z</time>
      </trkpt>
      <trkpt lat="45.69506" lon="2.99314">
        <ele>920.88</ele>
        <time>2014-11-01T08:52:46Z</time>
      </trkpt>
      <trkpt lat="45.69496" lon="2.99347">
        <ele>916.18</ele>
        <time>2014-11-01T08:52:49Z</time>
      </trkpt>
      <trkpt lat="45.69485" lon="2.99373">
        <ele>914.72</ele>
        <time>2014-11-01T08:52:52Z</time>
      </trkpt>
      <trkpt lat="45.69466" lon="2.99393">
        <ele>914.41</ele>
        <time>2014-11-01T08:52:55Z</time>
      </trkpt>
      <trkpt lat="45.69449" lon="2.99402">
        <ele>915.45</ele>
        <time>2014-11-01T08:52:57Z</time>
      </trkpt>
      <trkpt lat="45.69429" lon="2.99414">
        <ele>913.88</ele>
        <time>2014-11-01T08:53:00Z</time>
      </trkpt>
      <trkpt lat="45.69417" lon="2.99441">
        <ele>913.56</ele>
        <time>2014-11-01T08:53:03Z</time>
      </trkpt>
      <trkpt lat="45.69415" lon="2.99477">
        <ele>911.02</ele>
        <time>2014-11-01T08:53:06Z</time>
      </trkpt>
      <trkpt lat="45.69412" lon="2.99511">
        <ele>908.95</ele>
        <time>2014-11-01T08:53:09Z</time>
      </trkpt>
      <trkpt lat="45.69408" lon="2.99536">
        <ele>909.69</ele>
        <time>2014-11-01T08:53:12Z</time>
      </trkpt>
      <trkpt lat="45.6939" lon="2.99545">
        <ele>912.86</ele>
        <time>2014-11-01T08:53:22Z</time>
      </trkpt>
      <trkpt lat="45.69373" lon="2.99538">
        <ele>913.5</ele>
        <time>2014-11-01T09:04:12Z</time>
      </trkpt>
      <trkpt lat="45.69363" lon="2.99513">
        <ele>910.36</ele>
        <time>2014-11-01T09:04:21Z</time>
      </trkpt>
      <trkpt lat="45.69351" lon="2.99489">
        <ele>912.5</ele>
        <time>2014-11-01T09:04:28Z</time>
      </trkpt>
      <trkpt lat="45.6934" lon="2.99468">
        <ele>913.34</ele>
        <time>2014-11-01T09:04:34Z</time>
      </trkpt>
      <trkpt lat="45.69323" lon="2.99458">
        <ele>913.18</ele>
        <time>2014-11-01T09:04:40Z</time>
      </trkpt>
      <trkpt lat="45.69317" lon="2.99433">
        <ele>917.68</ele>
        <time>2014-11-01T09:04:54Z</time>
      </trkpt>
      <trkpt lat="45.69313" lon="2.99459">
        <ele>914.37</ele>
        <time>2014-11-01T09:05:27Z</time>
      </trkpt>
      <trkpt lat="45.69324" lon="2.99481">
        <ele>915.65</ele>
        <time>2014-11-01T09:05:31Z</time>
      </trkpt>
      <trkpt lat="45.69313" lon="2.99511">
        <ele>915.75</ele>
        <time>2014-11-01T09:05:38Z</time>
      </trkpt>
      <trkpt lat="45.69295" lon="2.99517">
        <ele>909.73</ele>
        <time>2014-11-01T09:05:42Z</time>
      </trkpt>
      <trkpt lat="45.69279" lon="2.99504">
        <ele>905.54</ele>
        <time>2014-11-01T09:05:45Z</time>
      </trkpt>
      <trkpt lat="45.69257" lon="2.99501">
        <ele>901.02</ele>
        <time>2014-11-01T09:05:48Z</time>
      </trkpt>
      <trkpt lat="45.69239" lon="2.99508">
        <ele>897.83</ele>
        <time>2014-11-01T09:05:51Z</time>
      </trkpt>
      <trkpt lat="45.69255" lon="2.99526">
        <ele>897.04</ele>
        <time>2014-11-01T09:05:58Z</time>
      </trkpt>
      <trkpt lat="45.69271" lon="2.99545">
        <ele>898.71</ele>
        <time>2014-11-01T09:06:03Z</time>
      </trkpt>
      <trkpt lat="45.69278" lon="2.99573">
        <ele>901.24</ele>
        <time>2014-11-01T09:06:25Z</time>
      </trkpt>
      <trkpt lat="45.69269" lon="2.99596">
        <ele>897.62</ele>
        <time>2014-11-01T09:06:36Z</time>
      </trkpt>
      <trkpt lat="45.69265" lon="2.99622">
        <ele>900.32</ele>
        <time>2014-11-01T09:06:47Z</time>
      </trkpt>
      <trkpt lat="45.69256" lon="2.99646">
        <ele>900.75</ele>
        <time>2014-11-01T09:06:58Z</time>
      </trkpt>
      <trkpt lat="45.69245" lon="2.99668">
        <ele>893.98</ele>
        <time>2014-11-01T09:08:08Z</time>
      </trkpt>
      <trkpt lat="45.69243" lon="2.99642">
        <ele>891.32</ele>
        <time>2014-11-01T09:09:44Z</time>
      </trkpt>
      <trkpt lat="45.69251" lon="2.99662">
        <ele>882.8</ele>
        <time>2014-11-01T09:17:08Z</time>
      </trkpt>
      <trkpt lat="45.69243" lon="2.9969">
        <ele>913.55</ele>
        <time>2014-11-01T09:17:10Z</time>
      </trkpt>
      <trkpt lat="45.69257" lon="2.99662">
        <ele>906.02</ele>
        <time>2014-11-01T09:17:13Z</time>
      </trkpt>
      <trkpt lat="45.69262" lon="2.99637">
        <ele>876.78</ele>
        <time>2014-11-01T09:17:21Z</time>
      </trkpt>
      <trkpt lat="45.69266" lon="2.99612">
        <ele>886.1</ele>
        <time>2014-11-01T09:17:31Z</time>
      </trkpt>
      <trkpt lat="45.69275" lon="2.99586">
        <ele>889.97</ele>
        <time>2014-11-01T09:17:39Z</time>
      </trkpt>
      <trkpt lat="45.69275" lon="2.99557">
        <ele>890.81</ele>
        <time>2014-11-01T09:17:48Z</time>
      </trkpt>
      <trkpt lat="45.6926" lon="2.99537">
        <ele>894.1</ele>
        <time>2014-11-01T09:17:55Z</time>
      </trkpt>
      <trkpt lat="45.69245" lon="2.99522">
        <ele>894.79</ele>
        <time>2014-11-01T09:18:01Z</time>
      </trkpt>
      <trkpt lat="45.69246" lon="2.99496">
        <ele>895.77</ele>
        <time>2014-11-01T09:18:10Z</time>
      </trkpt>
      <trkpt lat="45.69265" lon="2.99492">
        <ele>898.65</ele>
        <time>2014-11-01T09:18:18Z</time>
      </trkpt>
      <trkpt lat="45.69283" lon="2.99501">
        <ele>901.26</ele>
        <time>2014-11-01T09:18:26Z</time>
      </trkpt>
      <trkpt lat="45.69298" lon="2.99516">
        <ele>902.73</ele>
        <time>2014-11-01T09:18:34Z</time>
      </trkpt>
      <trkpt lat="45.69317" lon="2.99511">
        <ele>904.33</ele>
        <time>2014-11-01T09:18:48Z</time>
      </trkpt>
      <trkpt lat="45.69321" lon="2.99484">
        <ele>909.2</ele>
        <time>2014-11-01T09:18:56Z</time>
      </trkpt>
      <trkpt lat="45.69311" lon="2.99461">
        <ele>909.93</ele>
        <time>2014-11-01T09:19:06Z</time>
      </trkpt>
      <trkpt lat="45.69299" lon="2.99439">
        <ele>912.3</ele>
        <time>2014-11-01T09:19:19Z</time>
      </trkpt>
      <trkpt lat="45.69285" lon="2.99417">
        <ele>914.15</ele>
        <time>2014-11-01T09:19:31Z</time>
      </trkpt>
      <trkpt lat="45.69274" lon="2.99397">
        <ele>912.49</ele>
        <time>2014-11-01T09:19:41Z</time>
      </trkpt>
      <trkpt lat="45.69263" lon="2.99376">
        <ele>911.31</ele>
        <time>2014-11-01T09:19:51Z</time>
      </trkpt>
      <trkpt lat="45.69251" lon="2.99353">
        <ele>912.24</ele>
        <time>2014-11-01T09:20:01Z</time>
      </trkpt>
      <trkpt lat="45.69239" lon="2.99331">
        <ele>914.16</ele>
        <time>2014-11-01T09:20:11Z</time>
      </trkpt>
      <trkpt lat="45.69231" lon="2.99307">
        <ele>913.34</ele>
        <time>2014-11-01T09:20:17Z</time>
      </trkpt>
      <trkpt lat="45.6922" lon="2.99284">
        <ele>913.8</ele>
        <time>2014-11-01T09:20:24Z</time>
      </trkpt>
      <trkpt lat="45.6921" lon="2.99257">
        <ele>913.11</ele>
        <time>2014-11-01T09:20:31Z</time>
      </trkpt>
      <trkpt lat="45.69201" lon="2.9923">
        <ele>912.8</ele>
        <time>2014-11-01T09:20:37Z</time>
      </trkpt>
      <trkpt lat="45.69198" lon="2.99204">
        <ele>912.09</ele>
        <time>2014-11-01T09:20:53Z</time>
      </trkpt>
      <trkpt lat="45.69195" lon="2.99177">
        <ele>911.82</ele>
        <time>2014-11-01T09:20:57Z</time>
      </trkpt>
      <trkpt lat="45.69194" lon="2.9915">
        <ele>912.55</ele>
        <time>2014-11-01T09:21:00Z</time>
      </trkpt>
      <trkpt lat="45.69191" lon="2.99122">
        <ele>912.52</ele>
        <time>2014-11-01T09:21:03Z</time>
      </trkpt>
      <trkpt lat="45.69184" lon="2.99096">
        <ele>912.76</ele>
        <time>2014-11-01T09:21:06Z</time>
      </trkpt>
      <trkpt lat="45.69173" lon="2.99073">
        <ele>911.92</ele>
        <time>2014-11-01T09:21:09Z</time>
      </trkpt>
      <trkpt lat="45.69178" lon="2.99047">
        <ele>913.55</ele>
        <time>2014-11-01T09:21:26Z</time>
      </trkpt>
      <trkpt lat="45.69194" lon="2.99033">
        <ele>916.23</ele>
        <time>2014-11-01T09:21:36Z</time>
      </trkpt>
      <trkpt lat="45.69204" lon="2.99011">
        <ele>918.26</ele>
        <time>2014-11-01T09:21:43Z</time>
      </trkpt>
      <trkpt lat="45.69209" lon="2.98982">
        <ele>917.91</ele>
        <time>2014-11-01T09:21:50Z</time>
      </trkpt>
      <trkpt lat="45.69223" lon="2.98963">
        <ele>918.67</ele>
        <time>2014-11-01T09:21:57Z</time>
      </trkpt>
      <trkpt lat="45.69241" lon="2.98949">
        <ele>920.28</ele>
        <time>2014-11-01T09:22:04Z</time>
      </trkpt>
      <trkpt lat="45.69245" lon="2.98919">
        <ele>919.56</ele>
        <time>2014-11-01T09:22:11Z</time>
      </trkpt>
      <trkpt lat="45.69231" lon="2.98898">
        <ele>917.02</ele>
        <time>2014-11-01T09:22:14Z</time>
      </trkpt>
      <trkpt lat="45.69216" lon="2.98869">
        <ele>914.7</ele>
        <time>2014-11-01T09:22:17Z</time>
      </trkpt>
      <trkpt lat="45.692" lon="2.98838">
        <ele>913.04</ele>
        <time>2014-11-01T09:22:20Z</time>
      </trkpt>
      <trkpt lat="45.69189" lon="2.98818">
        <ele>912.36</ele>
        <time>2014-11-01T09:22:22Z</time>
      </trkpt>
      <trkpt lat="45.69175" lon="2.98789">
        <ele>911.12</ele>
        <time>2014-11-01T09:22:25Z</time>
      </trkpt>
      <trkpt lat="45.69176" lon="2.98762">
        <ele>910.84</ele>
        <time>2014-11-01T09:22:28Z</time>
      </trkpt>
      <trkpt lat="45.69176" lon="2.98732">
        <ele>910.05</ele>
        <time>2014-11-01T09:22:31Z</time>
      </trkpt>
      <trkpt lat="45.69178" lon="2.987">
        <ele>909.83</ele>
        <time>2014-11-01T09:22:34Z</time>
      </trkpt>
      <trkpt lat="45.69186" lon="2.9867">
        <ele>909.43</ele>
        <time>2014-11-01T09:22:37Z</time>
      </trkpt>
      <trkpt lat="45.69198" lon="2.98642">
        <ele>908.88</ele>
        <time>2014-11-01T09:22:40Z</time>
      </trkpt>
      <trkpt lat="45.69208" lon="2.98613">
        <ele>909.31</ele>
        <time>2014-11-01T09:22:43Z</time>
      </trkpt>
      <trkpt lat="45.69218" lon="2.98586">
        <ele>909.74</ele>
        <time>2014-11-01T09:22:46Z</time>
      </trkpt>
      <trkpt lat="45.69226" lon="2.98561">
        <ele>909.79</ele>
        <time>2014-11-01T09:22:49Z</time>
      </trkpt>
      <trkpt lat="45.69232" lon="2.98535">
        <ele>909.8</ele>
        <time>2014-11-01T09:22:54Z</time>
      </trkpt>
      <trkpt lat="45.69232" lon="2.98508">
        <ele>911.46</ele>
        <time>2014-11-01T09:23:00Z</time>
      </trkpt>
      <trkpt lat="45.69235" lon="2.98481">
        <ele>909.93</ele>
        <time>2014-11-01T09:23:06Z</time>
      </trkpt>
      <trkpt lat="45.69236" lon="2.98455">
        <ele>909.64</ele>
        <time>2014-11-01T09:23:12Z</time>
      </trkpt>
      <trkpt lat="45.69237" lon="2.98428">
        <ele>910.48</ele>
        <time>2014-11-01T09:23:18Z</time>
      </trkpt>
      <trkpt lat="45.69243" lon="2.98402">
        <ele>911.02</ele>
        <time>2014-11-01T09:23:25Z</time>
      </trkpt>
      <trkpt lat="45.69259" lon="2.98387">
        <ele>913.23</ele>
        <time>2014-11-01T09:23:33Z</time>
      </trkpt>
      <trkpt lat="45.69277" lon="2.98371">
        <ele>916.47</ele>
        <time>2014-11-01T09:23:40Z</time>
      </trkpt>
      <trkpt lat="45.69295" lon="2.98356">
        <ele>916.7</ele>
        <time>2014-11-01T09:23:47Z</time>
      </trkpt>
      <trkpt lat="45.69311" lon="2.98339">
        <ele>917.64</ele>
        <time>2014-11-01T09:23:54Z</time>
      </trkpt>
      <trkpt lat="45.69322" lon="2.98316">
        <ele>922.16</ele>
        <time>2014-11-01T09:24:01Z</time>
      </trkpt>
      <trkpt lat="45.69328" lon="2.9829">
        <ele>922.32</ele>
        <time>2014-11-01T09:24:08Z</time>
      </trkpt>
      <trkpt lat="45.69338" lon="2.98267">
        <ele>920.15</ele>
        <time>2014-11-01T09:24:15Z</time>
      </trkpt>
      <trkpt lat="45.69354" lon="2.98252">
        <ele>927.12</ele>
        <time>2014-11-01T09:24:23Z</time>
      </trkpt>
      <trkpt lat="45.69367" lon="2.98233">
        <ele>927.9</ele>
        <time>2014-11-01T09:24:29Z</time>
      </trkpt>
      <trkpt lat="45.69377" lon="2.9821">
        <ele>929.89</ele>
        <time>2014-11-01T09:24:35Z</time>
      </trkpt>
      <trkpt lat="45.69392" lon="2.98191">
        <ele>929.44</ele>
        <time>2014-11-01T09:24:41Z</time>
      </trkpt>
      <trkpt lat="45.69406" lon="2.9817">
        <ele>933.76</ele>
        <time>2014-11-01T09:24:48Z</time>
      </trkpt>
      <trkpt lat="45.6942" lon="2.98148">
        <ele>932.7</ele>
        <time>2014-11-01T09:24:54Z</time>
      </trkpt>
      <trkpt lat="45.69433" lon="2.98129">
        <ele>938.91</ele>
        <time>2014-11-01T09:25:00Z</time>
      </trkpt>
      <trkpt lat="45.69447" lon="2.98112">
        <ele>938.15</ele>
        <time>2014-11-01T09:25:05Z</time>
      </trkpt>
      <trkpt lat="45.69463" lon="2.98099">
        <ele>945.47</ele>
        <time>2014-11-01T09:25:12Z</time>
      </trkpt>
      <trkpt lat="45.6948" lon="2.98083">
        <ele>943.76</ele>
        <time>2014-11-01T09:25:17Z</time>
      </trkpt>
      <trkpt lat="45.69494" lon="2.98061">
        <ele>944.52</ele>
        <time>2014-11-01T09:25:22Z</time>
      </trkpt>
      <trkpt lat="45.69509" lon="2.98046">
        <ele>944.59</ele>
        <time>2014-11-01T09:25:26Z</time>
      </trkpt>
      <trkpt lat="45.69526" lon="2.98031">
        <ele>945.22</ele>
        <time>2014-11-01T09:25:30Z</time>
      </trkpt>
      <trkpt lat="45.69541" lon="2.98009">
        <ele>943.95</ele>
        <time>2014-11-01T09:25:34Z</time>
      </trkpt>
      <trkpt lat="45.6954" lon="2.97979">
        <ele>939.75</ele>
        <time>2014-11-01T09:25:38Z</time>
      </trkpt>
      <trkpt lat="45.69539" lon="2.9795">
        <ele>935.11</ele>
        <time>2014-11-01T09:25:42Z</time>
      </trkpt>
      <trkpt lat="45.69538" lon="2.97919">
        <ele>931.46</ele>
        <time>2014-11-01T09:25:47Z</time>
      </trkpt>
      <trkpt lat="45.69531" lon="2.97895">
        <ele>932.16</ele>
        <time>2014-11-01T09:25:52Z</time>
      </trkpt>
      <trkpt lat="45.69528" lon="2.97865">
        <ele>930.18</ele>
        <time>2014-11-01T09:25:58Z</time>
      </trkpt>
      <trkpt lat="45.69533" lon="2.97839">
        <ele>929.51</ele>
        <time>2014-11-01T09:26:06Z</time>
      </trkpt>
      <trkpt lat="45.69543" lon="2.97812">
        <ele>937.2</ele>
        <time>2014-11-01T09:26:13Z</time>
      </trkpt>
      <trkpt lat="45.69553" lon="2.97789">
        <ele>944.24</ele>
        <time>2014-11-01T09:26:19Z</time>
      </trkpt>
      <trkpt lat="45.69565" lon="2.97765">
        <ele>948</ele>
        <time>2014-11-01T09:26:24Z</time>
      </trkpt>
      <trkpt lat="45.69575" lon="2.97738">
        <ele>943.62</ele>
        <time>2014-11-01T09:26:28Z</time>
      </trkpt>
      <trkpt lat="45.69592" lon="2.97712">
        <ele>942.98</ele>
        <time>2014-11-01T09:26:32Z</time>
      </trkpt>
      <trkpt lat="45.69602" lon="2.97686">
        <ele>939.95</ele>
        <time>2014-11-01T09:26:35Z</time>
      </trkpt>
      <trkpt lat="45.69605" lon="2.9766">
        <ele>940.07</ele>
        <time>2014-11-01T09:26:38Z</time>
      </trkpt>
      <trkpt lat="45.69602" lon="2.97628">
        <ele>938.38</ele>
        <time>2014-11-01T09:26:42Z</time>
      </trkpt>
      <trkpt lat="45.69591" lon="2.97605">
        <ele>938.96</ele>
        <time>2014-11-01T09:26:46Z</time>
      </trkpt>
      <trkpt lat="45.69576" lon="2.97584">
        <ele>939.12</ele>
        <time>2014-11-01T09:26:50Z</time>
      </trkpt>
      <trkpt lat="45.69555" lon="2.97571">
        <ele>938.94</ele>
        <time>2014-11-01T09:26:54Z</time>
      </trkpt>
      <trkpt lat="45.69536" lon="2.97561">
        <ele>938.62</ele>
        <time>2014-11-01T09:26:59Z</time>
      </trkpt>
      <trkpt lat="45.69517" lon="2.97538">
        <ele>935.6</ele>
        <time>2014-11-01T09:27:03Z</time>
      </trkpt>
      <trkpt lat="45.69497" lon="2.97523">
        <ele>935.6</ele>
        <time>2014-11-01T09:27:07Z</time>
      </trkpt>
      <trkpt lat="45.69481" lon="2.97511">
        <ele>934.91</ele>
        <time>2014-11-01T09:27:11Z</time>
      </trkpt>
      <trkpt lat="45.69466" lon="2.97488">
        <ele>936.77</ele>
        <time>2014-11-01T09:27:18Z</time>
      </trkpt>
      <trkpt lat="45.69454" lon="2.97465">
        <ele>936.03</ele>
        <time>2014-11-01T09:27:24Z</time>
      </trkpt>
      <trkpt lat="45.69446" lon="2.97441">
        <ele>931.82</ele>
        <time>2014-11-01T09:27:31Z</time>
      </trkpt>
      <trkpt lat="45.69441" lon="2.97416">
        <ele>935.91</ele>
        <time>2014-11-01T09:27:40Z</time>
      </trkpt>
      <trkpt lat="45.69439" lon="2.9739">
        <ele>944.06</ele>
        <time>2014-11-01T09:27:48Z</time>
      </trkpt>
      <trkpt lat="45.69436" lon="2.97362">
        <ele>942.75</ele>
        <time>2014-11-01T09:27:57Z</time>
      </trkpt>
      <trkpt lat="45.69433" lon="2.97333">
        <ele>936.85</ele>
        <time>2014-11-01T09:28:06Z</time>
      </trkpt>
      <trkpt lat="45.69444" lon="2.9731">
        <ele>935.62</ele>
        <time>2014-11-01T09:28:16Z</time>
      </trkpt>
      <trkpt lat="45.69448" lon="2.97283">
        <ele>935.82</ele>
        <time>2014-11-01T09:28:26Z</time>
      </trkpt>
      <trkpt lat="45.69454" lon="2.97259">
        <ele>936.98</ele>
        <time>2014-11-01T09:28:34Z</time>
      </trkpt>
      <trkpt lat="45.69455" lon="2.97229">
        <ele>942.4</ele>
        <time>2014-11-01T09:28:44Z</time>
      </trkpt>
      <trkpt lat="45.6946" lon="2.97202">
        <ele>949.11</ele>
        <time>2014-11-01T09:28:54Z</time>
      </trkpt>
      <trkpt lat="45.69466" lon="2.97177">
        <ele>960.33</ele>
        <time>2014-11-01T09:29:02Z</time>
      </trkpt>
      <trkpt lat="45.69472" lon="2.97151">
        <ele>972.54</ele>
        <time>2014-11-01T09:29:13Z</time>
      </trkpt>
      <trkpt lat="45.69476" lon="2.97125">
        <ele>972.13</ele>
        <time>2014-11-01T09:29:23Z</time>
      </trkpt>
      <trkpt lat="45.69486" lon="2.97101">
        <ele>967.74</ele>
        <time>2014-11-01T09:29:31Z</time>
      </trkpt>
      <trkpt lat="45.69493" lon="2.97077">
        <ele>967.47</ele>
        <time>2014-11-01T09:29:40Z</time>
      </trkpt>
      <trkpt lat="45.69502" lon="2.97053">
        <ele>967.06</ele>
        <time>2014-11-01T09:29:49Z</time>
      </trkpt>
      <trkpt lat="45.69515" lon="2.97032">
        <ele>971.55</ele>
        <time>2014-11-01T09:29:58Z</time>
      </trkpt>
      <trkpt lat="45.69526" lon="2.9701">
        <ele>971.78</ele>
        <time>2014-11-01T09:30:05Z</time>
      </trkpt>
      <trkpt lat="45.69543" lon="2.96998">
        <ele>984.64</ele>
        <time>2014-11-01T09:30:15Z</time>
      </trkpt>
      <trkpt lat="45.69525" lon="2.9698">
        <ele>976.27</ele>
        <time>2014-11-01T09:30:55Z</time>
      </trkpt>
      <trkpt lat="45.69518" lon="2.96955">
        <ele>975.88</ele>
        <time>2014-11-01T09:31:14Z</time>
      </trkpt>
      <trkpt lat="45.69521" lon="2.96927">
        <ele>977.76</ele>
        <time>2014-11-01T09:31:24Z</time>
      </trkpt>
      <trkpt lat="45.69529" lon="2.969">
        <ele>975.16</ele>
        <time>2014-11-01T09:31:32Z</time>
      </trkpt>
      <trkpt lat="45.69541" lon="2.96876">
        <ele>968</ele>
        <time>2014-11-01T09:31:37Z</time>
      </trkpt>
      <trkpt lat="45.69556" lon="2.96855">
        <ele>969.4</ele>
        <time>2014-11-01T09:31:42Z</time>
      </trkpt>
      <trkpt lat="45.69563" lon="2.9683">
        <ele>970.04</ele>
        <time>2014-11-01T09:31:47Z</time>
      </trkpt>
      <trkpt lat="45.69555" lon="2.96805">
        <ele>967.46</ele>
        <time>2014-11-01T09:31:52Z</time>
      </trkpt>
      <trkpt lat="45.6954" lon="2.96789">
        <ele>967.04</ele>
        <time>2014-11-01T09:31:58Z</time>
      </trkpt>
      <trkpt lat="45.69541" lon="2.96762">
        <ele>963.78</ele>
        <time>2014-11-01T09:32:03Z</time>
      </trkpt>
      <trkpt lat="45.69527" lon="2.96737">
        <ele>965.78</ele>
        <time>2014-11-01T09:32:11Z</time>
      </trkpt>
      <trkpt lat="45.69509" lon="2.96729">
        <ele>969.67</ele>
        <time>2014-11-01T09:32:16Z</time>
      </trkpt>
      <trkpt lat="45.69492" lon="2.96718">
        <ele>971.61</ele>
        <time>2014-11-01T09:32:21Z</time>
      </trkpt>
      <trkpt lat="45.69475" lon="2.96706">
        <ele>973.85</ele>
        <time>2014-11-01T09:32:34Z</time>
      </trkpt>
      <trkpt lat="45.69456" lon="2.96696">
        <ele>973.71</ele>
        <time>2014-11-01T09:32:40Z</time>
      </trkpt>
      <trkpt lat="45.69439" lon="2.96685">
        <ele>979.94</ele>
        <time>2014-11-01T09:32:47Z</time>
      </trkpt>
      <trkpt lat="45.6942" lon="2.96677">
        <ele>979.24</ele>
        <time>2014-11-01T09:32:52Z</time>
      </trkpt>
      <trkpt lat="45.69402" lon="2.96678">
        <ele>979.64</ele>
        <time>2014-11-01T09:32:56Z</time>
      </trkpt>
      <trkpt lat="45.69382" lon="2.96673">
        <ele>977.17</ele>
        <time>2014-11-01T09:33:04Z</time>
      </trkpt>
      <trkpt lat="45.69364" lon="2.96667">
        <ele>975.97</ele>
        <time>2014-11-01T09:33:09Z</time>
      </trkpt>
      <trkpt lat="45.69345" lon="2.96658">
        <ele>975.68</ele>
        <time>2014-11-01T09:33:14Z</time>
      </trkpt>
      <trkpt lat="45.69326" lon="2.9665">
        <ele>974.83</ele>
        <time>2014-11-01T09:33:20Z</time>
      </trkpt>
      <trkpt lat="45.69306" lon="2.96654">
        <ele>974.03</ele>
        <time>2014-11-01T09:33:27Z</time>
      </trkpt>
      <trkpt lat="45.69286" lon="2.96665">
        <ele>976.46</ele>
        <time>2014-11-01T09:33:32Z</time>
      </trkpt>
      <trkpt lat="45.69267" lon="2.96673">
        <ele>975.68</ele>
        <time>2014-11-01T09:33:38Z</time>
      </trkpt>
      <trkpt lat="45.69249" lon="2.9669">
        <ele>976.63</ele>
        <time>2014-11-01T09:33:44Z</time>
      </trkpt>
      <trkpt lat="45.69233" lon="2.96704">
        <ele>974.22</ele>
        <time>2014-11-01T09:33:56Z</time>
      </trkpt>
      <trkpt lat="45.6922" lon="2.96686">
        <ele>981.15</ele>
        <time>2014-11-01T09:34:10Z</time>
      </trkpt>
      <trkpt lat="45.69212" lon="2.96661">
        <ele>985.81</ele>
        <time>2014-11-01T09:34:22Z</time>
      </trkpt>
      <trkpt lat="45.69199" lon="2.96642">
        <ele>982.4</ele>
        <time>2014-11-01T09:34:31Z</time>
      </trkpt>
      <trkpt lat="45.69183" lon="2.96624">
        <ele>984.83</ele>
        <time>2014-11-01T09:34:39Z</time>
      </trkpt>
      <trkpt lat="45.69168" lon="2.96608">
        <ele>986.24</ele>
        <time>2014-11-01T09:34:46Z</time>
      </trkpt>
      <trkpt lat="45.69152" lon="2.96591">
        <ele>989.4</ele>
        <time>2014-11-01T09:34:52Z</time>
      </trkpt>
      <trkpt lat="45.69134" lon="2.96579">
        <ele>993.45</ele>
        <time>2014-11-01T09:34:59Z</time>
      </trkpt>
      <trkpt lat="45.69113" lon="2.9657">
        <ele>984.34</ele>
        <time>2014-11-01T09:35:03Z</time>
      </trkpt>
      <trkpt lat="45.69096" lon="2.96553">
        <ele>981.82</ele>
        <time>2014-11-01T09:35:08Z</time>
      </trkpt>
      <trkpt lat="45.69081" lon="2.96536">
        <ele>978.92</ele>
        <time>2014-11-01T09:35:13Z</time>
      </trkpt>
      <trkpt lat="45.69062" lon="2.96528">
        <ele>977.93</ele>
        <time>2014-11-01T09:35:17Z</time>
      </trkpt>
      <trkpt lat="45.69043" lon="2.96533">
        <ele>979.62</ele>
        <time>2014-11-01T09:35:21Z</time>
      </trkpt>
      <trkpt lat="45.69022" lon="2.96533">
        <ele>981.76</ele>
        <time>2014-11-01T09:35:26Z</time>
      </trkpt>
      <trkpt lat="45.69002" lon="2.96519">
        <ele>978.5</ele>
        <time>2014-11-01T09:35:32Z</time>
      </trkpt>
      <trkpt lat="45.68982" lon="2.96516">
        <ele>979.41</ele>
        <time>2014-11-01T09:35:36Z</time>
      </trkpt>
      <trkpt lat="45.6896" lon="2.96528">
        <ele>978.4</ele>
        <time>2014-11-01T09:35:40Z</time>
      </trkpt>
      <trkpt lat="45.68945" lon="2.96552">
        <ele>975</ele>
        <time>2014-11-01T09:35:43Z</time>
      </trkpt>
      <trkpt lat="45.68934" lon="2.96573">
        <ele>972.57</ele>
        <time>2014-11-01T09:35:46Z</time>
      </trkpt>
      <trkpt lat="45.68923" lon="2.96595">
        <ele>968.77</ele>
        <time>2014-11-01T09:35:49Z</time>
      </trkpt>
      <trkpt lat="45.68906" lon="2.96614">
        <ele>966.11</ele>
        <time>2014-11-01T09:35:53Z</time>
      </trkpt>
      <trkpt lat="45.68887" lon="2.96628">
        <ele>962.71</ele>
        <time>2014-11-01T09:35:56Z</time>
      </trkpt>
      <trkpt lat="45.68878" lon="2.96663">
        <ele>963.17</ele>
        <time>2014-11-01T09:36:00Z</time>
      </trkpt>
      <trkpt lat="45.6886" lon="2.96677">
        <ele>964.95</ele>
        <time>2014-11-01T09:36:04Z</time>
      </trkpt>
      <trkpt lat="45.68841" lon="2.96666">
        <ele>965.12</ele>
        <time>2014-11-01T09:36:08Z</time>
      </trkpt>
      <trkpt lat="45.68821" lon="2.96657">
        <ele>965.59</ele>
        <time>2014-11-01T09:36:11Z</time>
      </trkpt>
      <trkpt lat="45.68798" lon="2.96658">
        <ele>965.65</ele>
        <time>2014-11-01T09:36:14Z</time>
      </trkpt>
      <trkpt lat="45.68778" lon="2.96663">
        <ele>964.16</ele>
        <time>2014-11-01T09:36:18Z</time>
      </trkpt>
      <trkpt lat="45.68759" lon="2.9667">
        <ele>963.57</ele>
        <time>2014-11-01T09:36:22Z</time>
      </trkpt>
      <trkpt lat="45.68738" lon="2.96682">
        <ele>960.73</ele>
        <time>2014-11-01T09:36:28Z</time>
      </trkpt>
      <trkpt lat="45.68718" lon="2.96696">
        <ele>957.45</ele>
        <time>2014-11-01T09:36:33Z</time>
      </trkpt>
      <trkpt lat="45.68699" lon="2.96704">
        <ele>959.88</ele>
        <time>2014-11-01T09:36:38Z</time>
      </trkpt>
      <trkpt lat="45.68683" lon="2.96716">
        <ele>964.74</ele>
        <time>2014-11-01T09:36:43Z</time>
      </trkpt>
      <trkpt lat="45.68665" lon="2.96725">
        <ele>966.92</ele>
        <time>2014-11-01T09:36:48Z</time>
      </trkpt>
      <trkpt lat="45.68647" lon="2.96733">
        <ele>963.74</ele>
        <time>2014-11-01T09:36:52Z</time>
      </trkpt>
      <trkpt lat="45.68627" lon="2.96738">
        <ele>959.22</ele>
        <time>2014-11-01T09:36:58Z</time>
      </trkpt>
      <trkpt lat="45.68608" lon="2.96735">
        <ele>962.09</ele>
        <time>2014-11-01T09:37:03Z</time>
      </trkpt>
      <trkpt lat="45.68591" lon="2.96724">
        <ele>962.78</ele>
        <time>2014-11-01T09:37:08Z</time>
      </trkpt>
      <trkpt lat="45.68573" lon="2.96723">
        <ele>964.02</ele>
        <time>2014-11-01T09:37:13Z</time>
      </trkpt>
      <trkpt lat="45.68552" lon="2.96723">
        <ele>970.86</ele>
        <time>2014-11-01T09:37:20Z</time>
      </trkpt>
      <trkpt lat="45.68529" lon="2.96717">
        <ele>973.8</ele>
        <time>2014-11-01T09:37:24Z</time>
      </trkpt>
      <trkpt lat="45.68509" lon="2.96723">
        <ele>977.42</ele>
        <time>2014-11-01T09:37:29Z</time>
      </trkpt>
      <trkpt lat="45.6849" lon="2.96736">
        <ele>979.72</ele>
        <time>2014-11-01T09:37:34Z</time>
      </trkpt>
      <trkpt lat="45.68469" lon="2.96746">
        <ele>980.02</ele>
        <time>2014-11-01T09:37:39Z</time>
      </trkpt>
      <trkpt lat="45.68451" lon="2.96748">
        <ele>981.5</ele>
        <time>2014-11-01T09:37:43Z</time>
      </trkpt>
      <trkpt lat="45.6843" lon="2.96754">
        <ele>984.28</ele>
        <time>2014-11-01T09:37:47Z</time>
      </trkpt>
      <trkpt lat="45.68409" lon="2.96767">
        <ele>985.38</ele>
        <time>2014-11-01T09:37:52Z</time>
      </trkpt>
      <trkpt lat="45.68387" lon="2.96774">
        <ele>982.96</ele>
        <time>2014-11-01T09:37:56Z</time>
      </trkpt>
      <trkpt lat="45.68368" lon="2.96768">
        <ele>984.07</ele>
        <time>2014-11-01T09:37:59Z</time>
      </trkpt>
      <trkpt lat="45.68347" lon="2.96774">
        <ele>978.63</ele>
        <time>2014-11-01T09:38:03Z</time>
      </trkpt>
      <trkpt lat="45.68325" lon="2.96771">
        <ele>975.91</ele>
        <time>2014-11-01T09:38:07Z</time>
      </trkpt>
      <trkpt lat="45.68306" lon="2.96759">
        <ele>976.9</ele>
        <time>2014-11-01T09:38:12Z</time>
      </trkpt>
      <trkpt lat="45.68291" lon="2.96743">
        <ele>973.94</ele>
        <time>2014-11-01T09:38:15Z</time>
      </trkpt>
      <trkpt lat="45.68274" lon="2.96729">
        <ele>971.81</ele>
        <time>2014-11-01T09:38:19Z</time>
      </trkpt>
      <trkpt lat="45.6826" lon="2.96712">
        <ele>970.24</ele>
        <time>2014-11-01T09:38:23Z</time>
      </trkpt>
      <trkpt lat="45.68248" lon="2.96689">
        <ele>969.63</ele>
        <time>2014-11-01T09:38:28Z</time>
      </trkpt>
      <trkpt lat="45.68244" lon="2.96663">
        <ele>968.92</ele>
        <time>2014-11-01T09:38:33Z</time>
      </trkpt>
      <trkpt lat="45.68243" lon="2.96637">
        <ele>967.36</ele>
        <time>2014-11-01T09:38:39Z</time>
      </trkpt>
      <trkpt lat="45.68242" lon="2.96611">
        <ele>968.27</ele>
        <time>2014-11-01T09:38:47Z</time>
      </trkpt>
      <trkpt lat="45.68243" lon="2.96584">
        <ele>963.33</ele>
        <time>2014-11-01T09:38:51Z</time>
      </trkpt>
      <trkpt lat="45.6825" lon="2.9656">
        <ele>959.87</ele>
        <time>2014-11-01T09:38:54Z</time>
      </trkpt>
      <trkpt lat="45.68261" lon="2.96535">
        <ele>959.81</ele>
        <time>2014-11-01T09:38:57Z</time>
      </trkpt>
      <trkpt lat="45.68272" lon="2.96512">
        <ele>961.55</ele>
        <time>2014-11-01T09:39:00Z</time>
      </trkpt>
      <trkpt lat="45.68285" lon="2.9649">
        <ele>961.77</ele>
        <time>2014-11-01T09:39:03Z</time>
      </trkpt>
      <trkpt lat="45.68297" lon="2.9647">
        <ele>962.67</ele>
        <time>2014-11-01T09:39:06Z</time>
      </trkpt>
      <trkpt lat="45.68307" lon="2.96443">
        <ele>962.67</ele>
        <time>2014-11-01T09:39:10Z</time>
      </trkpt>
      <trkpt lat="45.68319" lon="2.96417">
        <ele>962.17</ele>
        <time>2014-11-01T09:39:14Z</time>
      </trkpt>
      <trkpt lat="45.68328" lon="2.96394">
        <ele>963.09</ele>
        <time>2014-11-01T09:39:17Z</time>
      </trkpt>
      <trkpt lat="45.68337" lon="2.96367">
        <ele>963.96</ele>
        <time>2014-11-01T09:39:20Z</time>
      </trkpt>
      <trkpt lat="45.68344" lon="2.96337">
        <ele>963.93</ele>
        <time>2014-11-01T09:39:24Z</time>
      </trkpt>
      <trkpt lat="45.68348" lon="2.96305">
        <ele>962.49</ele>
        <time>2014-11-01T09:39:28Z</time>
      </trkpt>
      <trkpt lat="45.68348" lon="2.96278">
        <ele>962.26</ele>
        <time>2014-11-01T09:39:31Z</time>
      </trkpt>
      <trkpt lat="45.68349" lon="2.9625">
        <ele>962.73</ele>
        <time>2014-11-01T09:39:34Z</time>
      </trkpt>
      <trkpt lat="45.68349" lon="2.96224">
        <ele>962.79</ele>
        <time>2014-11-01T09:39:37Z</time>
      </trkpt>
      <trkpt lat="45.68348" lon="2.96196">
        <ele>962.55</ele>
        <time>2014-11-01T09:39:40Z</time>
      </trkpt>
      <trkpt lat="45.68346" lon="2.96162">
        <ele>962.41</ele>
        <time>2014-11-01T09:39:44Z</time>
      </trkpt>
      <trkpt lat="45.68345" lon="2.96131">
        <ele>962.65</ele>
        <time>2014-11-01T09:39:48Z</time>
      </trkpt>
      <trkpt lat="45.68344" lon="2.96104">
        <ele>961.85</ele>
        <time>2014-11-01T09:39:52Z</time>
      </trkpt>
      <trkpt lat="45.68343" lon="2.96077">
        <ele>961.8</ele>
        <time>2014-11-01T09:39:56Z</time>
      </trkpt>
      <trkpt lat="45.68341" lon="2.96048">
        <ele>961.3</ele>
        <time>2014-11-01T09:40:00Z</time>
      </trkpt>
      <trkpt lat="45.68339" lon="2.9602">
        <ele>960.83</ele>
        <time>2014-11-01T09:40:04Z</time>
      </trkpt>
      <trkpt lat="45.68337" lon="2.9599">
        <ele>960.24</ele>
        <time>2014-11-01T09:40:08Z</time>
      </trkpt>
      <trkpt lat="45.68335" lon="2.95957">
        <ele>960.14</ele>
        <time>2014-11-01T09:40:12Z</time>
      </trkpt>
      <trkpt lat="45.68334" lon="2.95925">
        <ele>959.82</ele>
        <time>2014-11-01T09:40:16Z</time>
      </trkpt>
      <trkpt lat="45.68332" lon="2.95896">
        <ele>958.86</ele>
        <time>2014-11-01T09:40:20Z</time>
      </trkpt>
      <trkpt lat="45.68331" lon="2.95863">
        <ele>957.93</ele>
        <time>2014-11-01T09:40:24Z</time>
      </trkpt>
      <trkpt lat="45.68332" lon="2.95835">
        <ele>957.82</ele>
        <time>2014-11-01T09:40:27Z</time>
      </trkpt>
      <trkpt lat="45.68337" lon="2.95809">
        <ele>958.68</ele>
        <time>2014-11-01T09:40:30Z</time>
      </trkpt>
      <trkpt lat="45.68346" lon="2.95781">
        <ele>960.16</ele>
        <time>2014-11-01T09:40:33Z</time>
      </trkpt>
      <trkpt lat="45.68355" lon="2.95754">
        <ele>961.47</ele>
        <time>2014-11-01T09:40:36Z</time>
      </trkpt>
      <trkpt lat="45.68363" lon="2.9573">
        <ele>962.26</ele>
        <time>2014-11-01T09:40:39Z</time>
      </trkpt>
      <trkpt lat="45.68369" lon="2.95705">
        <ele>962.73</ele>
        <time>2014-11-01T09:40:42Z</time>
      </trkpt>
      <trkpt lat="45.68375" lon="2.95677">
        <ele>965.17</ele>
        <time>2014-11-01T09:40:45Z</time>
      </trkpt>
      <trkpt lat="45.68384" lon="2.95652">
        <ele>963.97</ele>
        <time>2014-11-01T09:40:48Z</time>
      </trkpt>
      <trkpt lat="45.68393" lon="2.9563">
        <ele>964.32</ele>
        <time>2014-11-01T09:40:51Z</time>
      </trkpt>
      <trkpt lat="45.68406" lon="2.95607">
        <ele>962.99</ele>
        <time>2014-11-01T09:40:54Z</time>
      </trkpt>
      <trkpt lat="45.68415" lon="2.9558">
        <ele>964.19</ele>
        <time>2014-11-01T09:40:58Z</time>
      </trkpt>
      <trkpt lat="45.6843" lon="2.95557">
        <ele>961.51</ele>
        <time>2014-11-01T09:41:02Z</time>
      </trkpt>
      <trkpt lat="45.68445" lon="2.95537">
        <ele>961.03</ele>
        <time>2014-11-01T09:41:06Z</time>
      </trkpt>
      <trkpt lat="45.68463" lon="2.9552">
        <ele>960.63</ele>
        <time>2014-11-01T09:41:10Z</time>
      </trkpt>
      <trkpt lat="45.6848" lon="2.95505">
        <ele>962.16</ele>
        <time>2014-11-01T09:41:14Z</time>
      </trkpt>
      <trkpt lat="45.68493" lon="2.95485">
        <ele>968.79</ele>
        <time>2014-11-01T09:41:28Z</time>
      </trkpt>
      <trkpt lat="45.6851" lon="2.95467">
        <ele>969.94</ele>
        <time>2014-11-01T09:41:34Z</time>
      </trkpt>
      <trkpt lat="45.68526" lon="2.95451">
        <ele>969.25</ele>
        <time>2014-11-01T09:41:38Z</time>
      </trkpt>
      <trkpt lat="45.68545" lon="2.95432">
        <ele>967.58</ele>
        <time>2014-11-01T09:41:42Z</time>
      </trkpt>
      <trkpt lat="45.68559" lon="2.95412">
        <ele>965.39</ele>
        <time>2014-11-01T09:41:47Z</time>
      </trkpt>
      <trkpt lat="45.68577" lon="2.95397">
        <ele>962.72</ele>
        <time>2014-11-01T09:41:52Z</time>
      </trkpt>
      <trkpt lat="45.68593" lon="2.9541">
        <ele>961.42</ele>
        <time>2014-11-01T09:41:56Z</time>
      </trkpt>
      <trkpt lat="45.68612" lon="2.95427">
        <ele>960.16</ele>
        <time>2014-11-01T09:42:01Z</time>
      </trkpt>
      <trkpt lat="45.68628" lon="2.95439">
        <ele>959.07</ele>
        <time>2014-11-01T09:42:05Z</time>
      </trkpt>
      <trkpt lat="45.68646" lon="2.95433">
        <ele>958.07</ele>
        <time>2014-11-01T09:42:09Z</time>
      </trkpt>
      <trkpt lat="45.68649" lon="2.95406">
        <ele>957.82</ele>
        <time>2014-11-01T09:42:13Z</time>
      </trkpt>
      <trkpt lat="45.6865" lon="2.95381">
        <ele>958.77</ele>
        <time>2014-11-01T09:42:18Z</time>
      </trkpt>
      <trkpt lat="45.68654" lon="2.9535">
        <ele>962.49</ele>
        <time>2014-11-01T09:42:25Z</time>
      </trkpt>
      <trkpt lat="45.68658" lon="2.95322">
        <ele>962.09</ele>
        <time>2014-11-01T09:42:29Z</time>
      </trkpt>
      <trkpt lat="45.68661" lon="2.95291">
        <ele>955</ele>
        <time>2014-11-01T09:42:33Z</time>
      </trkpt>
      <trkpt lat="45.68658" lon="2.95259">
        <ele>952.5</ele>
        <time>2014-11-01T09:42:37Z</time>
      </trkpt>
      <trkpt lat="45.68661" lon="2.95227">
        <ele>950.84</ele>
        <time>2014-11-01T09:42:41Z</time>
      </trkpt>
      <trkpt lat="45.68671" lon="2.95199">
        <ele>948.8</ele>
        <time>2014-11-01T09:42:44Z</time>
      </trkpt>
      <trkpt lat="45.68689" lon="2.95181">
        <ele>948.17</ele>
        <time>2014-11-01T09:42:47Z</time>
      </trkpt>
      <trkpt lat="45.68705" lon="2.95164">
        <ele>948.6</ele>
        <time>2014-11-01T09:42:50Z</time>
      </trkpt>
      <trkpt lat="45.6872" lon="2.95151">
        <ele>948.27</ele>
        <time>2014-11-01T09:42:53Z</time>
      </trkpt>
      <trkpt lat="45.68744" lon="2.95153">
        <ele>954.58</ele>
        <time>2014-11-01T09:42:57Z</time>
      </trkpt>
      <trkpt lat="45.68761" lon="2.95144">
        <ele>955.27</ele>
        <time>2014-11-01T09:43:00Z</time>
      </trkpt>
      <trkpt lat="45.68779" lon="2.9513">
        <ele>956.2</ele>
        <time>2014-11-01T09:43:04Z</time>
      </trkpt>
      <trkpt lat="45.688" lon="2.95124">
        <ele>957.82</ele>
        <time>2014-11-01T09:43:08Z</time>
      </trkpt>
      <trkpt lat="45.68821" lon="2.95127">
        <ele>963.68</ele>
        <time>2014-11-01T09:43:12Z</time>
      </trkpt>
      <trkpt lat="45.68843" lon="2.95125">
        <ele>961.01</ele>
        <time>2014-11-01T09:43:17Z</time>
      </trkpt>
      <trkpt lat="45.68864" lon="2.9513">
        <ele>960.62</ele>
        <time>2014-11-01T09:43:21Z</time>
      </trkpt>
      <trkpt lat="45.68884" lon="2.95129">
        <ele>963.54</ele>
        <time>2014-11-01T09:43:25Z</time>
      </trkpt>
      <trkpt lat="45.68905" lon="2.95121">
        <ele>966.03</ele>
        <time>2014-11-01T09:43:29Z</time>
      </trkpt>
      <trkpt lat="45.68924" lon="2.95116">
        <ele>970.56</ele>
        <time>2014-11-01T09:43:33Z</time>
      </trkpt>
      <trkpt lat="45.68946" lon="2.95112">
        <ele>968.22</ele>
        <time>2014-11-01T09:43:37Z</time>
      </trkpt>
      <trkpt lat="45.68963" lon="2.95115">
        <ele>965.23</ele>
        <time>2014-11-01T09:43:40Z</time>
      </trkpt>
      <trkpt lat="45.68981" lon="2.95124">
        <ele>964.85</ele>
        <time>2014-11-01T09:43:43Z</time>
      </trkpt>
      <trkpt lat="45.68999" lon="2.95136">
        <ele>964.8</ele>
        <time>2014-11-01T09:43:47Z</time>
      </trkpt>
      <trkpt lat="45.69017" lon="2.95129">
        <ele>954.81</ele>
        <time>2014-11-01T09:45:23Z</time>
      </trkpt>
      <trkpt lat="45.69034" lon="2.95113">
        <ele>954.8</ele>
        <time>2014-11-01T09:45:30Z</time>
      </trkpt>
      <trkpt lat="45.69052" lon="2.95105">
        <ele>956.52</ele>
        <time>2014-11-01T09:45:36Z</time>
      </trkpt>
      <trkpt lat="45.69072" lon="2.95109">
        <ele>957.73</ele>
        <time>2014-11-01T09:45:42Z</time>
      </trkpt>
      <trkpt lat="45.69092" lon="2.95111">
        <ele>958.61</ele>
        <time>2014-11-01T09:45:48Z</time>
      </trkpt>
      <trkpt lat="45.69113" lon="2.95111">
        <ele>959.01</ele>
        <time>2014-11-01T09:45:54Z</time>
      </trkpt>
      <trkpt lat="45.69132" lon="2.95111">
        <ele>961.4</ele>
        <time>2014-11-01T09:45:59Z</time>
      </trkpt>
      <trkpt lat="45.69151" lon="2.95112">
        <ele>961.79</ele>
        <time>2014-11-01T09:46:04Z</time>
      </trkpt>
      <trkpt lat="45.69176" lon="2.95112">
        <ele>962.8</ele>
        <time>2014-11-01T09:46:11Z</time>
      </trkpt>
      <trkpt lat="45.69196" lon="2.95114">
        <ele>963.88</ele>
        <time>2014-11-01T09:46:17Z</time>
      </trkpt>
      <trkpt lat="45.69217" lon="2.95119">
        <ele>969.24</ele>
        <time>2014-11-01T09:46:24Z</time>
      </trkpt>
      <trkpt lat="45.69238" lon="2.95121">
        <ele>975.54</ele>
        <time>2014-11-01T09:46:30Z</time>
      </trkpt>
      <trkpt lat="45.69259" lon="2.95124">
        <ele>977.75</ele>
        <time>2014-11-01T09:46:36Z</time>
      </trkpt>
      <trkpt lat="45.69279" lon="2.95125">
        <ele>978.52</ele>
        <time>2014-11-01T09:46:42Z</time>
      </trkpt>
      <trkpt lat="45.69298" lon="2.95127">
        <ele>977.73</ele>
        <time>2014-11-01T09:46:50Z</time>
      </trkpt>
      <trkpt lat="45.69313" lon="2.95144">
        <ele>973.45</ele>
        <time>2014-11-01T09:46:57Z</time>
      </trkpt>
      <trkpt lat="45.69328" lon="2.95165">
        <ele>972.32</ele>
        <time>2014-11-01T09:47:03Z</time>
      </trkpt>
      <trkpt lat="45.69342" lon="2.95184">
        <ele>972.32</ele>
        <time>2014-11-01T09:47:08Z</time>
      </trkpt>
      <trkpt lat="45.69356" lon="2.95206">
        <ele>971.94</ele>
        <time>2014-11-01T09:47:13Z</time>
      </trkpt>
      <trkpt lat="45.69371" lon="2.95225">
        <ele>970.05</ele>
        <time>2014-11-01T09:47:18Z</time>
      </trkpt>
      <trkpt lat="45.69384" lon="2.95244">
        <ele>970.74</ele>
        <time>2014-11-01T09:47:23Z</time>
      </trkpt>
      <trkpt lat="45.69399" lon="2.95264">
        <ele>969.33</ele>
        <time>2014-11-01T09:47:28Z</time>
      </trkpt>
      <trkpt lat="45.69412" lon="2.95283">
        <ele>969.77</ele>
        <time>2014-11-01T09:47:32Z</time>
      </trkpt>
      <trkpt lat="45.69425" lon="2.95302">
        <ele>970.67</ele>
        <time>2014-11-01T09:47:36Z</time>
      </trkpt>
      <trkpt lat="45.69438" lon="2.95321">
        <ele>971.6</ele>
        <time>2014-11-01T09:47:40Z</time>
      </trkpt>
      <trkpt lat="45.69454" lon="2.95343">
        <ele>971.29</ele>
        <time>2014-11-01T09:47:45Z</time>
      </trkpt>
      <trkpt lat="45.69473" lon="2.95345">
        <ele>971.67</ele>
        <time>2014-11-01T09:47:51Z</time>
      </trkpt>
      <trkpt lat="45.69482" lon="2.95322">
        <ele>976.21</ele>
        <time>2014-11-01T09:48:02Z</time>
      </trkpt>
      <trkpt lat="45.69492" lon="2.95297">
        <ele>980.78</ele>
        <time>2014-11-01T09:48:13Z</time>
      </trkpt>
      <trkpt lat="45.69502" lon="2.95276">
        <ele>981.17</ele>
        <time>2014-11-01T09:48:20Z</time>
      </trkpt>
      <trkpt lat="45.69513" lon="2.95252">
        <ele>982.29</ele>
        <time>2014-11-01T09:48:27Z</time>
      </trkpt>
      <trkpt lat="45.69523" lon="2.95227">
        <ele>982.73</ele>
        <time>2014-11-01T09:48:35Z</time>
      </trkpt>
      <trkpt lat="45.69532" lon="2.95204">
        <ele>983.95</ele>
        <time>2014-11-01T09:48:43Z</time>
      </trkpt>
      <trkpt lat="45.69539" lon="2.95179">
        <ele>984.78</ele>
        <time>2014-11-01T09:48:51Z</time>
      </trkpt>
      <trkpt lat="45.69551" lon="2.95156">
        <ele>986.53</ele>
        <time>2014-11-01T09:48:59Z</time>
      </trkpt>
      <trkpt lat="45.69567" lon="2.95141">
        <ele>987.49</ele>
        <time>2014-11-01T09:49:06Z</time>
      </trkpt>
      <trkpt lat="45.6958" lon="2.9512">
        <ele>990.13</ele>
        <time>2014-11-01T09:49:13Z</time>
      </trkpt>
      <trkpt lat="45.69589" lon="2.95097">
        <ele>990.26</ele>
        <time>2014-11-01T09:49:19Z</time>
      </trkpt>
      <trkpt lat="45.69595" lon="2.95072">
        <ele>989.84</ele>
        <time>2014-11-01T09:49:24Z</time>
      </trkpt>
      <trkpt lat="45.69601" lon="2.95046">
        <ele>991.16</ele>
        <time>2014-11-01T09:49:30Z</time>
      </trkpt>
      <trkpt lat="45.6961" lon="2.95023">
        <ele>996.05</ele>
        <time>2014-11-01T09:49:36Z</time>
      </trkpt>
      <trkpt lat="45.69621" lon="2.94999">
        <ele>991.72</ele>
        <time>2014-11-01T09:49:42Z</time>
      </trkpt>
      <trkpt lat="45.69634" lon="2.94981">
        <ele>997.17</ele>
        <time>2014-11-01T09:49:48Z</time>
      </trkpt>
      <trkpt lat="45.69645" lon="2.94959">
        <ele>1000.82</ele>
        <time>2014-11-01T09:49:54Z</time>
      </trkpt>
      <trkpt lat="45.69656" lon="2.94935">
        <ele>999.19</ele>
        <time>2014-11-01T09:50:00Z</time>
      </trkpt>
      <trkpt lat="45.69665" lon="2.94912">
        <ele>998.2</ele>
        <time>2014-11-01T09:50:06Z</time>
      </trkpt>
      <trkpt lat="45.69677" lon="2.94886">
        <ele>994.65</ele>
        <time>2014-11-01T09:50:12Z</time>
      </trkpt>
      <trkpt lat="45.69689" lon="2.94867">
        <ele>996</ele>
        <time>2014-11-01T09:50:18Z</time>
      </trkpt>
      <trkpt lat="45.69701" lon="2.94843">
        <ele>997.78</ele>
        <time>2014-11-01T09:50:25Z</time>
      </trkpt>
      <trkpt lat="45.69712" lon="2.9482">
        <ele>997.3</ele>
        <time>2014-11-01T09:50:32Z</time>
      </trkpt>
      <trkpt lat="45.69724" lon="2.948">
        <ele>999.46</ele>
        <time>2014-11-01T09:50:40Z</time>
      </trkpt>
      <trkpt lat="45.69733" lon="2.94776">
        <ele>999.86</ele>
        <time>2014-11-01T09:50:46Z</time>
      </trkpt>
      <trkpt lat="45.69746" lon="2.94754">
        <ele>1002.71</ele>
        <time>2014-11-01T09:50:53Z</time>
      </trkpt>
      <trkpt lat="45.69754" lon="2.9473">
        <ele>1000.81</ele>
        <time>2014-11-01T09:51:03Z</time>
      </trkpt>
      <trkpt lat="45.69739" lon="2.9467">
        <ele>1005.67</ele>
        <time>2014-11-01T09:51:20Z</time>
      </trkpt>
      <trkpt lat="45.69732" lon="2.94645">
        <ele>1020.01</ele>
        <time>2014-11-01T09:51:28Z</time>
      </trkpt>
      <trkpt lat="45.69719" lon="2.94622">
        <ele>1022.22</ele>
        <time>2014-11-01T09:51:35Z</time>
      </trkpt>
      <trkpt lat="45.69709" lon="2.94598">
        <ele>1021.04</ele>
        <time>2014-11-01T09:51:41Z</time>
      </trkpt>
      <trkpt lat="45.697" lon="2.94573">
        <ele>1015.93</ele>
        <time>2014-11-01T09:51:47Z</time>
      </trkpt>
      <trkpt lat="45.6969" lon="2.94548">
        <ele>1006.77</ele>
        <time>2014-11-01T09:51:52Z</time>
      </trkpt>
      <trkpt lat="45.6968" lon="2.94524">
        <ele>1002.47</ele>
        <time>2014-11-01T09:51:58Z</time>
      </trkpt>
      <trkpt lat="45.69668" lon="2.945">
        <ele>996.7</ele>
        <time>2014-11-01T09:52:04Z</time>
      </trkpt>
      <trkpt lat="45.69655" lon="2.94475">
        <ele>997.67</ele>
        <time>2014-11-01T09:52:11Z</time>
      </trkpt>
      <trkpt lat="45.69645" lon="2.94454">
        <ele>1000.45</ele>
        <time>2014-11-01T09:52:17Z</time>
      </trkpt>
      <trkpt lat="45.69635" lon="2.94432">
        <ele>1002.25</ele>
        <time>2014-11-01T09:52:23Z</time>
      </trkpt>
      <trkpt lat="45.69623" lon="2.94409">
        <ele>1004.63</ele>
        <time>2014-11-01T09:52:29Z</time>
      </trkpt>
      <trkpt lat="45.69614" lon="2.94387">
        <ele>1007.59</ele>
        <time>2014-11-01T09:52:35Z</time>
      </trkpt>
      <trkpt lat="45.69602" lon="2.94364">
        <ele>1009.23</ele>
        <time>2014-11-01T09:52:41Z</time>
      </trkpt>
      <trkpt lat="45.6959" lon="2.94343">
        <ele>1010.54</ele>
        <time>2014-11-01T09:52:47Z</time>
      </trkpt>
      <trkpt lat="45.6958" lon="2.94319">
        <ele>1012.75</ele>
        <time>2014-11-01T09:52:53Z</time>
      </trkpt>
      <trkpt lat="45.69568" lon="2.94297">
        <ele>1014.53</ele>
        <time>2014-11-01T09:52:59Z</time>
      </trkpt>
      <trkpt lat="45.69557" lon="2.94276">
        <ele>1015.76</ele>
        <time>2014-11-01T09:53:05Z</time>
      </trkpt>
      <trkpt lat="45.69544" lon="2.94253">
        <ele>1017.61</ele>
        <time>2014-11-01T09:53:12Z</time>
      </trkpt>
      <trkpt lat="45.69534" lon="2.94229">
        <ele>1016.86</ele>
        <time>2014-11-01T09:53:18Z</time>
      </trkpt>
      <trkpt lat="45.69522" lon="2.94207">
        <ele>1015.37</ele>
        <time>2014-11-01T09:53:22Z</time>
      </trkpt>
      <trkpt lat="45.69509" lon="2.94177">
        <ele>1014.08</ele>
        <time>2014-11-01T09:53:26Z</time>
      </trkpt>
      <trkpt lat="45.69498" lon="2.94153">
        <ele>1013.83</ele>
        <time>2014-11-01T09:53:29Z</time>
      </trkpt>
      <trkpt lat="45.69486" lon="2.94132">
        <ele>1013.8</ele>
        <time>2014-11-01T09:53:32Z</time>
      </trkpt>
      <trkpt lat="45.69473" lon="2.94105">
        <ele>1013.8</ele>
        <time>2014-11-01T09:53:36Z</time>
      </trkpt>
      <trkpt lat="45.69463" lon="2.94081">
        <ele>1013.55</ele>
        <time>2014-11-01T09:53:40Z</time>
      </trkpt>
      <trkpt lat="45.69451" lon="2.94058">
        <ele>1014.76</ele>
        <time>2014-11-01T09:53:45Z</time>
      </trkpt>
      <trkpt lat="45.69438" lon="2.94037">
        <ele>1015.2</ele>
        <time>2014-11-01T09:53:55Z</time>
      </trkpt>
      <trkpt lat="45.69449" lon="2.9406">
        <ele>1009.79</ele>
        <time>2014-11-01T09:54:10Z</time>
      </trkpt>
      <trkpt lat="45.69455" lon="2.94086">
        <ele>1004.77</ele>
        <time>2014-11-01T09:54:20Z</time>
      </trkpt>
      <trkpt lat="45.69468" lon="2.94104">
        <ele>1004.16</ele>
        <time>2014-11-01T09:54:34Z</time>
      </trkpt>
      <trkpt lat="45.69487" lon="2.94109">
        <ele>1008.98</ele>
        <time>2014-11-01T09:54:45Z</time>
      </trkpt>
      <trkpt lat="45.69505" lon="2.94117">
        <ele>1011.08</ele>
        <time>2014-11-01T09:54:53Z</time>
      </trkpt>
      <trkpt lat="45.69524" lon="2.94127">
        <ele>1015.42</ele>
        <time>2014-11-01T09:55:01Z</time>
      </trkpt>
      <trkpt lat="45.69544" lon="2.94127">
        <ele>1010.61</ele>
        <time>2014-11-01T09:55:08Z</time>
      </trkpt>
      <trkpt lat="45.69564" lon="2.94129">
        <ele>1016.23</ele>
        <time>2014-11-01T09:55:14Z</time>
      </trkpt>
      <trkpt lat="45.69583" lon="2.94135">
        <ele>1015.98</ele>
        <time>2014-11-01T09:55:21Z</time>
      </trkpt>
      <trkpt lat="45.69601" lon="2.94137">
        <ele>1021.54</ele>
        <time>2014-11-01T09:55:27Z</time>
      </trkpt>
      <trkpt lat="45.69621" lon="2.94148">
        <ele>1025.51</ele>
        <time>2014-11-01T09:55:32Z</time>
      </trkpt>
      <trkpt lat="45.69642" lon="2.94152">
        <ele>1028.57</ele>
        <time>2014-11-01T09:55:37Z</time>
      </trkpt>
      <trkpt lat="45.6966" lon="2.94155">
        <ele>1029.45</ele>
        <time>2014-11-01T09:55:42Z</time>
      </trkpt>
      <trkpt lat="45.69679" lon="2.94156">
        <ele>1032.37</ele>
        <time>2014-11-01T09:55:48Z</time>
      </trkpt>
      <trkpt lat="45.69699" lon="2.94153">
        <ele>1029.29</ele>
        <time>2014-11-01T09:55:53Z</time>
      </trkpt>
      <trkpt lat="45.69719" lon="2.94156">
        <ele>1027.99</ele>
        <time>2014-11-01T09:55:59Z</time>
      </trkpt>
      <trkpt lat="45.69739" lon="2.94156">
        <ele>1029.72</ele>
        <time>2014-11-01T09:56:05Z</time>
      </trkpt>
      <trkpt lat="45.69789" lon="2.94131">
        <ele>1021.16</ele>
        <time>2014-11-01T09:56:20Z</time>
      </trkpt>
      <trkpt lat="45.69809" lon="2.94128">
        <ele>1010.8</ele>
        <time>2014-11-01T09:56:29Z</time>
      </trkpt>
      <trkpt lat="45.69826" lon="2.94118">
        <ele>1013.76</ele>
        <time>2014-11-01T09:56:37Z</time>
      </trkpt>
      <trkpt lat="45.69844" lon="2.94114">
        <ele>1018.16</ele>
        <time>2014-11-01T09:56:46Z</time>
      </trkpt>
      <trkpt lat="45.69862" lon="2.94107">
        <ele>1022.45</ele>
        <time>2014-11-01T09:56:55Z</time>
      </trkpt>
      <trkpt lat="45.69881" lon="2.94107">
        <ele>1029.66</ele>
        <time>2014-11-01T09:57:05Z</time>
      </trkpt>
      <trkpt lat="45.699" lon="2.94109">
        <ele>1035.35</ele>
        <time>2014-11-01T09:57:14Z</time>
      </trkpt>
      <trkpt lat="45.69918" lon="2.94113">
        <ele>1039.09</ele>
        <time>2014-11-01T09:57:22Z</time>
      </trkpt>
      <trkpt lat="45.69937" lon="2.94112">
        <ele>1039.28</ele>
        <time>2014-11-01T09:57:30Z</time>
      </trkpt>
      <trkpt lat="45.69957" lon="2.94111">
        <ele>1040.72</ele>
        <time>2014-11-01T09:57:37Z</time>
      </trkpt>
      <trkpt lat="45.69976" lon="2.94108">
        <ele>1043.63</ele>
        <time>2014-11-01T09:57:43Z</time>
      </trkpt>
      <trkpt lat="45.69996" lon="2.94102">
        <ele>1045.84</ele>
        <time>2014-11-01T09:57:49Z</time>
      </trkpt>
      <trkpt lat="45.70015" lon="2.94099">
        <ele>1048.46</ele>
        <time>2014-11-01T09:57:55Z</time>
      </trkpt>
      <trkpt lat="45.70035" lon="2.94094">
        <ele>1047.86</ele>
        <time>2014-11-01T09:58:01Z</time>
      </trkpt>
      <trkpt lat="45.70053" lon="2.94091">
        <ele>1051.43</ele>
        <time>2014-11-01T09:58:06Z</time>
      </trkpt>
      <trkpt lat="45.70072" lon="2.9408">
        <ele>1052.76</ele>
        <time>2014-11-01T09:58:12Z</time>
      </trkpt>
      <trkpt lat="45.70091" lon="2.94067">
        <ele>1053.05</ele>
        <time>2014-11-01T09:58:18Z</time>
      </trkpt>
      <trkpt lat="45.70108" lon="2.94055">
        <ele>1054.4</ele>
        <time>2014-11-01T09:58:23Z</time>
      </trkpt>
      <trkpt lat="45.70124" lon="2.94042">
        <ele>1055.91</ele>
        <time>2014-11-01T09:58:28Z</time>
      </trkpt>
      <trkpt lat="45.7014" lon="2.94027">
        <ele>1054.43</ele>
        <time>2014-11-01T09:58:33Z</time>
      </trkpt>
      <trkpt lat="45.70157" lon="2.9401">
        <ele>1056.25</ele>
        <time>2014-11-01T09:58:39Z</time>
      </trkpt>
      <trkpt lat="45.70173" lon="2.93989">
        <ele>1059.01</ele>
        <time>2014-11-01T09:58:45Z</time>
      </trkpt>
      <trkpt lat="45.70185" lon="2.93971">
        <ele>1057.93</ele>
        <time>2014-11-01T09:58:50Z</time>
      </trkpt>
      <trkpt lat="45.70197" lon="2.93949">
        <ele>1054.74</ele>
        <time>2014-11-01T09:58:55Z</time>
      </trkpt>
      <trkpt lat="45.70207" lon="2.93924">
        <ele>1052.58</ele>
        <time>2014-11-01T09:59:01Z</time>
      </trkpt>
      <trkpt lat="45.70222" lon="2.93902">
        <ele>1055.46</ele>
        <time>2014-11-01T09:59:08Z</time>
      </trkpt>
      <trkpt lat="45.70234" lon="2.93881">
        <ele>1052.73</ele>
        <time>2014-11-01T09:59:14Z</time>
      </trkpt>
      <trkpt lat="45.70249" lon="2.93861">
        <ele>1054.03</ele>
        <time>2014-11-01T09:59:21Z</time>
      </trkpt>
      <trkpt lat="45.70266" lon="2.93851">
        <ele>1056.21</ele>
        <time>2014-11-01T09:59:27Z</time>
      </trkpt>
      <trkpt lat="45.70286" lon="2.93842">
        <ele>1056.81</ele>
        <time>2014-11-01T09:59:32Z</time>
      </trkpt>
      <trkpt lat="45.70303" lon="2.93835">
        <ele>1055.8</ele>
        <time>2014-11-01T09:59:36Z</time>
      </trkpt>
      <trkpt lat="45.70322" lon="2.93834">
        <ele>1056.67</ele>
        <time>2014-11-01T09:59:40Z</time>
      </trkpt>
      <trkpt lat="45.70341" lon="2.93832">
        <ele>1060.42</ele>
        <time>2014-11-01T09:59:45Z</time>
      </trkpt>
      <trkpt lat="45.70361" lon="2.9383">
        <ele>1059.82</ele>
        <time>2014-11-01T09:59:51Z</time>
      </trkpt>
      <trkpt lat="45.70379" lon="2.93833">
        <ele>1060.36</ele>
        <time>2014-11-01T09:59:55Z</time>
      </trkpt>
      <trkpt lat="45.70398" lon="2.93832">
        <ele>1063.82</ele>
        <time>2014-11-01T10:00:00Z</time>
      </trkpt>
      <trkpt lat="45.70419" lon="2.93834">
        <ele>1066.47</ele>
        <time>2014-11-01T10:00:06Z</time>
      </trkpt>
      <trkpt lat="45.7044" lon="2.93839">
        <ele>1067.45</ele>
        <time>2014-11-01T10:00:12Z</time>
      </trkpt>
      <trkpt lat="45.7046" lon="2.93845">
        <ele>1067.67</ele>
        <time>2014-11-01T10:00:18Z</time>
      </trkpt>
      <trkpt lat="45.70478" lon="2.93846">
        <ele>1067.54</ele>
        <time>2014-11-01T10:00:23Z</time>
      </trkpt>
      <trkpt lat="45.705" lon="2.93847">
        <ele>1070.42</ele>
        <time>2014-11-01T10:00:29Z</time>
      </trkpt>
      <trkpt lat="45.70521" lon="2.93844">
        <ele>1072.69</ele>
        <time>2014-11-01T10:00:34Z</time>
      </trkpt>
      <trkpt lat="45.70542" lon="2.93839">
        <ele>1072.05</ele>
        <time>2014-11-01T10:00:39Z</time>
      </trkpt>
      <trkpt lat="45.70561" lon="2.93836">
        <ele>1072.81</ele>
        <time>2014-11-01T10:00:43Z</time>
      </trkpt>
      <trkpt lat="45.70583" lon="2.93833">
        <ele>1072.27</ele>
        <time>2014-11-01T10:00:48Z</time>
      </trkpt>
      <trkpt lat="45.70603" lon="2.93833">
        <ele>1071.58</ele>
        <time>2014-11-01T10:00:52Z</time>
      </trkpt>
      <trkpt lat="45.70624" lon="2.93836">
        <ele>1073.22</ele>
        <time>2014-11-01T10:00:56Z</time>
      </trkpt>
      <trkpt lat="45.70645" lon="2.9384">
        <ele>1072.64</ele>
        <time>2014-11-01T10:01:00Z</time>
      </trkpt>
      <trkpt lat="45.70666" lon="2.93843">
        <ele>1074.11</ele>
        <time>2014-11-01T10:01:05Z</time>
      </trkpt>
      <trkpt lat="45.707" lon="2.93863">
        <ele>1073.71</ele>
        <time>2014-11-01T10:01:22Z</time>
      </trkpt>
      <trkpt lat="45.70718" lon="2.93873">
        <ele>1045.38</ele>
        <time>2014-11-01T10:01:31Z</time>
      </trkpt>
      <trkpt lat="45.70733" lon="2.93893">
        <ele>1044.95</ele>
        <time>2014-11-01T10:01:37Z</time>
      </trkpt>
      <trkpt lat="45.70748" lon="2.93915">
        <ele>1043.93</ele>
        <time>2014-11-01T10:01:42Z</time>
      </trkpt>
      <trkpt lat="45.70764" lon="2.93938">
        <ele>1044.3</ele>
        <time>2014-11-01T10:01:47Z</time>
      </trkpt>
      <trkpt lat="45.70778" lon="2.93957">
        <ele>1044.77</ele>
        <time>2014-11-01T10:01:51Z</time>
      </trkpt>
      <trkpt lat="45.70793" lon="2.93977">
        <ele>1044.8</ele>
        <time>2014-11-01T10:01:55Z</time>
      </trkpt>
      <trkpt lat="45.70805" lon="2.94">
        <ele>1044.8</ele>
        <time>2014-11-01T10:01:59Z</time>
      </trkpt>
      <trkpt lat="45.70821" lon="2.94016">
        <ele>1043.99</ele>
        <time>2014-11-01T10:02:03Z</time>
      </trkpt>
      <trkpt lat="45.70835" lon="2.94035">
        <ele>1044.69</ele>
        <time>2014-11-01T10:02:07Z</time>
      </trkpt>
      <trkpt lat="45.70851" lon="2.9405">
        <ele>1045.67</ele>
        <time>2014-11-01T10:02:11Z</time>
      </trkpt>
      <trkpt lat="45.70867" lon="2.94064">
        <ele>1046.73</ele>
        <time>2014-11-01T10:02:15Z</time>
      </trkpt>
      <trkpt lat="45.70883" lon="2.9408">
        <ele>1046.79</ele>
        <time>2014-11-01T10:02:19Z</time>
      </trkpt>
      <trkpt lat="45.70898" lon="2.94096">
        <ele>1046.8</ele>
        <time>2014-11-01T10:02:23Z</time>
      </trkpt>
      <trkpt lat="45.70913" lon="2.94117">
        <ele>1046.8</ele>
        <time>2014-11-01T10:02:27Z</time>
      </trkpt>
      <trkpt lat="45.70929" lon="2.94141">
        <ele>1046.36</ele>
        <time>2014-11-01T10:02:31Z</time>
      </trkpt>
      <trkpt lat="45.70941" lon="2.94163">
        <ele>1045.12</ele>
        <time>2014-11-01T10:02:34Z</time>
      </trkpt>
      <trkpt lat="45.70955" lon="2.94186">
        <ele>1043.96</ele>
        <time>2014-11-01T10:02:37Z</time>
      </trkpt>
      <trkpt lat="45.70972" lon="2.94206">
        <ele>1043.82</ele>
        <time>2014-11-01T10:02:40Z</time>
      </trkpt>
      <trkpt lat="45.70989" lon="2.94224">
        <ele>1043.8</ele>
        <time>2014-11-01T10:02:43Z</time>
      </trkpt>
      <trkpt lat="45.71004" lon="2.94238">
        <ele>1043.67</ele>
        <time>2014-11-01T10:02:46Z</time>
      </trkpt>
      <trkpt lat="45.71022" lon="2.94255">
        <ele>1044.54</ele>
        <time>2014-11-01T10:02:50Z</time>
      </trkpt>
      <trkpt lat="45.71035" lon="2.94277">
        <ele>1044.78</ele>
        <time>2014-11-01T10:02:54Z</time>
      </trkpt>
      <trkpt lat="45.71046" lon="2.943">
        <ele>1044.8</ele>
        <time>2014-11-01T10:02:58Z</time>
      </trkpt>
      <trkpt lat="45.71057" lon="2.94322">
        <ele>1046.24</ele>
        <time>2014-11-01T10:03:03Z</time>
      </trkpt>
      <trkpt lat="45.7107" lon="2.94343">
        <ele>1046.78</ele>
        <time>2014-11-01T10:03:08Z</time>
      </trkpt>
      <trkpt lat="45.71077" lon="2.94367">
        <ele>1049.11</ele>
        <time>2014-11-01T10:03:13Z</time>
      </trkpt>
      <trkpt lat="45.71085" lon="2.94394">
        <ele>1051.49</ele>
        <time>2014-11-01T10:03:19Z</time>
      </trkpt>
      <trkpt lat="45.71094" lon="2.94419">
        <ele>1053.63</ele>
        <time>2014-11-01T10:03:24Z</time>
      </trkpt>
      <trkpt lat="45.71106" lon="2.9444">
        <ele>1052.98</ele>
        <time>2014-11-01T10:03:30Z</time>
      </trkpt>
      <trkpt lat="45.71118" lon="2.94464">
        <ele>1050.84</ele>
        <time>2014-11-01T10:03:35Z</time>
      </trkpt>
      <trkpt lat="45.71133" lon="2.94486">
        <ele>1050.99</ele>
        <time>2014-11-01T10:03:39Z</time>
      </trkpt>
      <trkpt lat="45.71145" lon="2.94509">
        <ele>1049.94</ele>
        <time>2014-11-01T10:03:43Z</time>
      </trkpt>
      <trkpt lat="45.7116" lon="2.94535">
        <ele>1048.24</ele>
        <time>2014-11-01T10:03:47Z</time>
      </trkpt>
      <trkpt lat="45.71173" lon="2.94557">
        <ele>1048.33</ele>
        <time>2014-11-01T10:03:51Z</time>
      </trkpt>
      <trkpt lat="45.71183" lon="2.9458">
        <ele>1049.96</ele>
        <time>2014-11-01T10:03:55Z</time>
      </trkpt>
      <trkpt lat="45.71198" lon="2.94599">
        <ele>1049.43</ele>
        <time>2014-11-01T10:03:59Z</time>
      </trkpt>
      <trkpt lat="45.71213" lon="2.94621">
        <ele>1050.65</ele>
        <time>2014-11-01T10:04:03Z</time>
      </trkpt>
      <trkpt lat="45.71229" lon="2.94641">
        <ele>1049.85</ele>
        <time>2014-11-01T10:04:07Z</time>
      </trkpt>
      <trkpt lat="45.71246" lon="2.94657">
        <ele>1048.86</ele>
        <time>2014-11-01T10:04:11Z</time>
      </trkpt>
      <trkpt lat="45.71264" lon="2.94673">
        <ele>1049.74</ele>
        <time>2014-11-01T10:04:16Z</time>
      </trkpt>
      <trkpt lat="45.71281" lon="2.94685">
        <ele>1050.77</ele>
        <time>2014-11-01T10:04:22Z</time>
      </trkpt>
      <trkpt lat="45.71299" lon="2.94695">
        <ele>1050.29</ele>
        <time>2014-11-01T10:04:30Z</time>
      </trkpt>
      <trkpt lat="45.71316" lon="2.94709">
        <ele>1051.76</ele>
        <time>2014-11-01T10:04:36Z</time>
      </trkpt>
      <trkpt lat="45.71335" lon="2.94716">
        <ele>1051.8</ele>
        <time>2014-11-01T10:04:42Z</time>
      </trkpt>
      <trkpt lat="45.71353" lon="2.94725">
        <ele>1051.61</ele>
        <time>2014-11-01T10:04:47Z</time>
      </trkpt>
      <trkpt lat="45.71372" lon="2.94735">
        <ele>1052.55</ele>
        <time>2014-11-01T10:04:53Z</time>
      </trkpt>
      <trkpt lat="45.71387" lon="2.94751">
        <ele>1057.9</ele>
        <time>2014-11-01T10:05:00Z</time>
      </trkpt>
      <trkpt lat="45.71404" lon="2.94767">
        <ele>1059.52</ele>
        <time>2014-11-01T10:05:08Z</time>
      </trkpt>
      <trkpt lat="45.7142" lon="2.94784">
        <ele>1062.85</ele>
        <time>2014-11-01T10:05:15Z</time>
      </trkpt>
      <trkpt lat="45.71435" lon="2.94799">
        <ele>1066.13</ele>
        <time>2014-11-01T10:05:21Z</time>
      </trkpt>
      <trkpt lat="45.71452" lon="2.9481">
        <ele>1066.66</ele>
        <time>2014-11-01T10:05:27Z</time>
      </trkpt>
      <trkpt lat="45.7147" lon="2.94815">
        <ele>1068.29</ele>
        <time>2014-11-01T10:05:34Z</time>
      </trkpt>
      <trkpt lat="45.71488" lon="2.94822">
        <ele>1064.17</ele>
        <time>2014-11-01T10:05:43Z</time>
      </trkpt>
      <trkpt lat="45.71507" lon="2.9483">
        <ele>1069.14</ele>
        <time>2014-11-01T10:05:51Z</time>
      </trkpt>
      <trkpt lat="45.71525" lon="2.94836">
        <ele>1067.01</ele>
        <time>2014-11-01T10:05:59Z</time>
      </trkpt>
      <trkpt lat="45.71543" lon="2.94845">
        <ele>1062.83</ele>
        <time>2014-11-01T10:06:07Z</time>
      </trkpt>
      <trkpt lat="45.71561" lon="2.94847">
        <ele>1063.75</ele>
        <time>2014-11-01T10:06:18Z</time>
      </trkpt>
      <trkpt lat="45.71579" lon="2.94853">
        <ele>1066.81</ele>
        <time>2014-11-01T10:06:26Z</time>
      </trkpt>
      <trkpt lat="45.71599" lon="2.94859">
        <ele>1067.05</ele>
        <time>2014-11-01T10:06:36Z</time>
      </trkpt>
      <trkpt lat="45.71615" lon="2.94873">
        <ele>1070.01</ele>
        <time>2014-11-01T10:06:44Z</time>
      </trkpt>
      <trkpt lat="45.71635" lon="2.94878">
        <ele>1072.64</ele>
        <time>2014-11-01T10:06:54Z</time>
      </trkpt>
      <trkpt lat="45.71652" lon="2.9489">
        <ele>1071.97</ele>
        <time>2014-11-01T10:07:02Z</time>
      </trkpt>
      <trkpt lat="45.71671" lon="2.94896">
        <ele>1076.61</ele>
        <time>2014-11-01T10:07:11Z</time>
      </trkpt>
      <trkpt lat="45.71689" lon="2.94905">
        <ele>1076.59</ele>
        <time>2014-11-01T10:07:17Z</time>
      </trkpt>
      <trkpt lat="45.7171" lon="2.94916">
        <ele>1074.64</ele>
        <time>2014-11-01T10:07:22Z</time>
      </trkpt>
      <trkpt lat="45.71727" lon="2.94926">
        <ele>1078.98</ele>
        <time>2014-11-01T10:07:26Z</time>
      </trkpt>
      <trkpt lat="45.71749" lon="2.94934">
        <ele>1081.94</ele>
        <time>2014-11-01T10:07:30Z</time>
      </trkpt>
      <trkpt lat="45.71767" lon="2.94947">
        <ele>1081.06</ele>
        <time>2014-11-01T10:07:34Z</time>
      </trkpt>
      <trkpt lat="45.71787" lon="2.9495">
        <ele>1082.49</ele>
        <time>2014-11-01T10:07:39Z</time>
      </trkpt>
      <trkpt lat="45.71803" lon="2.94971">
        <ele>1085.04</ele>
        <time>2014-11-01T10:07:45Z</time>
      </trkpt>
      <trkpt lat="45.71819" lon="2.94985">
        <ele>1088.34</ele>
        <time>2014-11-01T10:07:52Z</time>
      </trkpt>
      <trkpt lat="45.71836" lon="2.95001">
        <ele>1090.4</ele>
        <time>2014-11-01T10:07:59Z</time>
      </trkpt>
      <trkpt lat="45.71853" lon="2.95013">
        <ele>1089.21</ele>
        <time>2014-11-01T10:08:05Z</time>
      </trkpt>
      <trkpt lat="45.7187" lon="2.95024">
        <ele>1087.95</ele>
        <time>2014-11-01T10:08:11Z</time>
      </trkpt>
      <trkpt lat="45.71887" lon="2.9504">
        <ele>1086.55</ele>
        <time>2014-11-01T10:08:18Z</time>
      </trkpt>
      <trkpt lat="45.71905" lon="2.95052">
        <ele>1084.42</ele>
        <time>2014-11-01T10:08:23Z</time>
      </trkpt>
      <trkpt lat="45.71924" lon="2.95061">
        <ele>1081.14</ele>
        <time>2014-11-01T10:08:29Z</time>
      </trkpt>
      <trkpt lat="45.71941" lon="2.95069">
        <ele>1079.93</ele>
        <time>2014-11-01T10:08:35Z</time>
      </trkpt>
      <trkpt lat="45.71959" lon="2.95079">
        <ele>1079.81</ele>
        <time>2014-11-01T10:08:42Z</time>
      </trkpt>
      <trkpt lat="45.71975" lon="2.95089">
        <ele>1079.75</ele>
        <time>2014-11-01T10:08:49Z</time>
      </trkpt>
      <trkpt lat="45.71994" lon="2.95097">
        <ele>1080.78</ele>
        <time>2014-11-01T10:08:57Z</time>
      </trkpt>
      <trkpt lat="45.72013" lon="2.95109">
        <ele>1082.66</ele>
        <time>2014-11-01T10:09:05Z</time>
      </trkpt>
      <trkpt lat="45.72028" lon="2.95122">
        <ele>1086.06</ele>
        <time>2014-11-01T10:09:12Z</time>
      </trkpt>
      <trkpt lat="45.72047" lon="2.95133">
        <ele>1085.42</ele>
        <time>2014-11-01T10:09:19Z</time>
      </trkpt>
      <trkpt lat="45.72064" lon="2.95142">
        <ele>1086.27</ele>
        <time>2014-11-01T10:09:27Z</time>
      </trkpt>
      <trkpt lat="45.72082" lon="2.9515">
        <ele>1088.92</ele>
        <time>2014-11-01T10:09:36Z</time>
      </trkpt>
      <trkpt lat="45.72099" lon="2.95163">
        <ele>1092.01</ele>
        <time>2014-11-01T10:09:46Z</time>
      </trkpt>
      <trkpt lat="45.72116" lon="2.95173">
        <ele>1096.27</ele>
        <time>2014-11-01T10:09:56Z</time>
      </trkpt>
      <trkpt lat="45.72135" lon="2.95173">
        <ele>1082.32</ele>
        <time>2014-11-01T10:10:05Z</time>
      </trkpt>
      <trkpt lat="45.72152" lon="2.95185">
        <ele>1086.84</ele>
        <time>2014-11-01T10:10:13Z</time>
      </trkpt>
      <trkpt lat="45.72166" lon="2.95203">
        <ele>1098.62</ele>
        <time>2014-11-01T10:10:22Z</time>
      </trkpt>
      <trkpt lat="45.72182" lon="2.95217">
        <ele>1097.86</ele>
        <time>2014-11-01T10:10:29Z</time>
      </trkpt>
      <trkpt lat="45.72201" lon="2.95214">
        <ele>1097.25</ele>
        <time>2014-11-01T10:10:40Z</time>
      </trkpt>
      <trkpt lat="45.72219" lon="2.95219">
        <ele>1097.67</ele>
        <time>2014-11-01T10:11:33Z</time>
      </trkpt>
      <trkpt lat="45.72232" lon="2.95245">
        <ele>1095.98</ele>
        <time>2014-11-01T10:11:40Z</time>
      </trkpt>
      <trkpt lat="45.72252" lon="2.95259">
        <ele>1094.87</ele>
        <time>2014-11-01T10:11:44Z</time>
      </trkpt>
      <trkpt lat="45.72268" lon="2.95279">
        <ele>1094.31</ele>
        <time>2014-11-01T10:11:47Z</time>
      </trkpt>
      <trkpt lat="45.72284" lon="2.953">
        <ele>1093.36</ele>
        <time>2014-11-01T10:11:50Z</time>
      </trkpt>
      <trkpt lat="45.72302" lon="2.9532">
        <ele>1092.12</ele>
        <time>2014-11-01T10:11:53Z</time>
      </trkpt>
      <trkpt lat="45.72321" lon="2.9534">
        <ele>1090.59</ele>
        <time>2014-11-01T10:11:56Z</time>
      </trkpt>
      <trkpt lat="45.72342" lon="2.95359">
        <ele>1089.4</ele>
        <time>2014-11-01T10:11:59Z</time>
      </trkpt>
      <trkpt lat="45.72356" lon="2.95381">
        <ele>1088.37</ele>
        <time>2014-11-01T10:12:02Z</time>
      </trkpt>
      <trkpt lat="45.72372" lon="2.95405">
        <ele>1085.75</ele>
        <time>2014-11-01T10:12:05Z</time>
      </trkpt>
      <trkpt lat="45.7239" lon="2.95425">
        <ele>1082.79</ele>
        <time>2014-11-01T10:12:08Z</time>
      </trkpt>
      <trkpt lat="45.72405" lon="2.95451">
        <ele>1082.8</ele>
        <time>2014-11-01T10:12:12Z</time>
      </trkpt>
      <trkpt lat="45.7242" lon="2.95469">
        <ele>1081.3</ele>
        <time>2014-11-01T10:12:15Z</time>
      </trkpt>
      <trkpt lat="45.72436" lon="2.95494">
        <ele>1081.11</ele>
        <time>2014-11-01T10:12:18Z</time>
      </trkpt>
      <trkpt lat="45.72455" lon="2.95515">
        <ele>1081.34</ele>
        <time>2014-11-01T10:12:21Z</time>
      </trkpt>
      <trkpt lat="45.72476" lon="2.95533">
        <ele>1080.87</ele>
        <time>2014-11-01T10:12:24Z</time>
      </trkpt>
      <trkpt lat="45.72496" lon="2.95552">
        <ele>1079.18</ele>
        <time>2014-11-01T10:12:27Z</time>
      </trkpt>
      <trkpt lat="45.72513" lon="2.95574">
        <ele>1078.1</ele>
        <time>2014-11-01T10:12:30Z</time>
      </trkpt>
      <trkpt lat="45.7253" lon="2.95593">
        <ele>1076.96</ele>
        <time>2014-11-01T10:12:33Z</time>
      </trkpt>
      <trkpt lat="45.72552" lon="2.9561">
        <ele>1076.37</ele>
        <time>2014-11-01T10:12:37Z</time>
      </trkpt>
      <trkpt lat="45.72571" lon="2.95631">
        <ele>1077.5</ele>
        <time>2014-11-01T10:12:40Z</time>
      </trkpt>
      <trkpt lat="45.72593" lon="2.95643">
        <ele>1074.01</ele>
        <time>2014-11-01T10:12:43Z</time>
      </trkpt>
      <trkpt lat="45.72615" lon="2.95649">
        <ele>1072.95</ele>
        <time>2014-11-01T10:12:46Z</time>
      </trkpt>
      <trkpt lat="45.72636" lon="2.95648">
        <ele>1071.94</ele>
        <time>2014-11-01T10:12:49Z</time>
      </trkpt>
      <trkpt lat="45.72655" lon="2.95645">
        <ele>1071.32</ele>
        <time>2014-11-01T10:12:52Z</time>
      </trkpt>
      <trkpt lat="45.72673" lon="2.9565">
        <ele>1065.71</ele>
        <time>2014-11-01T10:12:56Z</time>
      </trkpt>
      <trkpt lat="45.72693" lon="2.95646">
        <ele>1061.24</ele>
        <time>2014-11-01T10:13:05Z</time>
      </trkpt>
      <trkpt lat="45.72713" lon="2.95653">
        <ele>1063.22</ele>
        <time>2014-11-01T10:13:10Z</time>
      </trkpt>
      <trkpt lat="45.72729" lon="2.95669">
        <ele>1065.89</ele>
        <time>2014-11-01T10:13:14Z</time>
      </trkpt>
      <trkpt lat="45.72743" lon="2.95689">
        <ele>1068.56</ele>
        <time>2014-11-01T10:13:17Z</time>
      </trkpt>
      <trkpt lat="45.72757" lon="2.9571">
        <ele>1067.89</ele>
        <time>2014-11-01T10:13:20Z</time>
      </trkpt>
      <trkpt lat="45.72777" lon="2.95732">
        <ele>1066.94</ele>
        <time>2014-11-01T10:13:23Z</time>
      </trkpt>
      <trkpt lat="45.72793" lon="2.95754">
        <ele>1068.07</ele>
        <time>2014-11-01T10:13:26Z</time>
      </trkpt>
      <trkpt lat="45.72808" lon="2.95772">
        <ele>1063.37</ele>
        <time>2014-11-01T10:13:28Z</time>
      </trkpt>
      <trkpt lat="45.72822" lon="2.9579">
        <ele>1060.44</ele>
        <time>2014-11-01T10:13:30Z</time>
      </trkpt>
      <trkpt lat="45.72836" lon="2.95809">
        <ele>1056.96</ele>
        <time>2014-11-01T10:13:32Z</time>
      </trkpt>
      <trkpt lat="45.72845" lon="2.95831">
        <ele>1054.59</ele>
        <time>2014-11-01T10:13:34Z</time>
      </trkpt>
      <trkpt lat="45.72853" lon="2.95867">
        <ele>1051.02</ele>
        <time>2014-11-01T10:13:37Z</time>
      </trkpt>
      <trkpt lat="45.7287" lon="2.95892">
        <ele>1049.2</ele>
        <time>2014-11-01T10:13:40Z</time>
      </trkpt>
      <trkpt lat="45.72889" lon="2.95912">
        <ele>1048.85</ele>
        <time>2014-11-01T10:13:43Z</time>
      </trkpt>
      <trkpt lat="45.72908" lon="2.95934">
        <ele>1050.06</ele>
        <time>2014-11-01T10:13:46Z</time>
      </trkpt>
      <trkpt lat="45.72926" lon="2.9595">
        <ele>1050.21</ele>
        <time>2014-11-01T10:13:49Z</time>
      </trkpt>
      <trkpt lat="45.72948" lon="2.9597">
        <ele>1044.47</ele>
        <time>2014-11-01T10:13:52Z</time>
      </trkpt>
      <trkpt lat="45.72961" lon="2.95989">
        <ele>1041.76</ele>
        <time>2014-11-01T10:13:55Z</time>
      </trkpt>
      <trkpt lat="45.72978" lon="2.96008">
        <ele>1041.55</ele>
        <time>2014-11-01T10:14:00Z</time>
      </trkpt>
      <trkpt lat="45.7299" lon="2.96029">
        <ele>1035.35</ele>
        <time>2014-11-01T10:14:04Z</time>
      </trkpt>
      <trkpt lat="45.73001" lon="2.9605">
        <ele>1031.87</ele>
        <time>2014-11-01T10:14:07Z</time>
      </trkpt>
      <trkpt lat="45.73009" lon="2.96075">
        <ele>1029.06</ele>
        <time>2014-11-01T10:14:10Z</time>
      </trkpt>
      <trkpt lat="45.73025" lon="2.96099">
        <ele>1027.33</ele>
        <time>2014-11-01T10:14:13Z</time>
      </trkpt>
      <trkpt lat="45.73046" lon="2.96119">
        <ele>1025.24</ele>
        <time>2014-11-01T10:14:16Z</time>
      </trkpt>
      <trkpt lat="45.73061" lon="2.96133">
        <ele>1023.66</ele>
        <time>2014-11-01T10:14:18Z</time>
      </trkpt>
      <trkpt lat="45.73084" lon="2.96149">
        <ele>1021.28</ele>
        <time>2014-11-01T10:14:21Z</time>
      </trkpt>
      <trkpt lat="45.73101" lon="2.96159">
        <ele>1020.92</ele>
        <time>2014-11-01T10:14:23Z</time>
      </trkpt>
      <trkpt lat="45.73119" lon="2.96162">
        <ele>1020.08</ele>
        <time>2014-11-01T10:14:25Z</time>
      </trkpt>
      <trkpt lat="45.73144" lon="2.9617">
        <ele>1017.58</ele>
        <time>2014-11-01T10:14:28Z</time>
      </trkpt>
      <trkpt lat="45.73161" lon="2.96182">
        <ele>1015</ele>
        <time>2014-11-01T10:14:30Z</time>
      </trkpt>
      <trkpt lat="45.73185" lon="2.96198">
        <ele>1013.2</ele>
        <time>2014-11-01T10:14:33Z</time>
      </trkpt>
      <trkpt lat="45.73209" lon="2.96214">
        <ele>1011.6</ele>
        <time>2014-11-01T10:14:36Z</time>
      </trkpt>
      <trkpt lat="45.73233" lon="2.9623">
        <ele>1010.4</ele>
        <time>2014-11-01T10:14:39Z</time>
      </trkpt>
      <trkpt lat="45.73251" lon="2.96241">
        <ele>1009.45</ele>
        <time>2014-11-01T10:14:41Z</time>
      </trkpt>
      <trkpt lat="45.73269" lon="2.96254">
        <ele>1007.71</ele>
        <time>2014-11-01T10:14:43Z</time>
      </trkpt>
      <trkpt lat="45.73285" lon="2.96266">
        <ele>1006.53</ele>
        <time>2014-11-01T10:14:45Z</time>
      </trkpt>
      <trkpt lat="45.73303" lon="2.96277">
        <ele>1005.23</ele>
        <time>2014-11-01T10:14:47Z</time>
      </trkpt>
      <trkpt lat="45.73323" lon="2.96287">
        <ele>1003.41</ele>
        <time>2014-11-01T10:14:49Z</time>
      </trkpt>
      <trkpt lat="45.73341" lon="2.96295">
        <ele>1001.7</ele>
        <time>2014-11-01T10:14:51Z</time>
      </trkpt>
      <trkpt lat="45.73358" lon="2.9631">
        <ele>1002.27</ele>
        <time>2014-11-01T10:14:53Z</time>
      </trkpt>
      <trkpt lat="45.73375" lon="2.96318">
        <ele>1002.17</ele>
        <time>2014-11-01T10:14:55Z</time>
      </trkpt>
      <trkpt lat="45.73394" lon="2.96325">
        <ele>1002.39</ele>
        <time>2014-11-01T10:14:57Z</time>
      </trkpt>
      <trkpt lat="45.73413" lon="2.9633">
        <ele>1002.45</ele>
        <time>2014-11-01T10:14:59Z</time>
      </trkpt>
      <trkpt lat="45.73439" lon="2.9634">
        <ele>1003.13</ele>
        <time>2014-11-01T10:15:02Z</time>
      </trkpt>
      <trkpt lat="45.73456" lon="2.96347">
        <ele>1003.63</ele>
        <time>2014-11-01T10:15:04Z</time>
      </trkpt>
      <trkpt lat="45.73482" lon="2.96355">
        <ele>1003.03</ele>
        <time>2014-11-01T10:15:07Z</time>
      </trkpt>
      <trkpt lat="45.73506" lon="2.96363">
        <ele>1002.33</ele>
        <time>2014-11-01T10:15:10Z</time>
      </trkpt>
      <trkpt lat="45.73528" lon="2.96375">
        <ele>1001.99</ele>
        <time>2014-11-01T10:15:13Z</time>
      </trkpt>
      <trkpt lat="45.73549" lon="2.96386">
        <ele>1000.45</ele>
        <time>2014-11-01T10:15:16Z</time>
      </trkpt>
      <trkpt lat="45.7357" lon="2.96397">
        <ele>1001.51</ele>
        <time>2014-11-01T10:15:19Z</time>
      </trkpt>
      <trkpt lat="45.73589" lon="2.96412">
        <ele>1001.51</ele>
        <time>2014-11-01T10:15:22Z</time>
      </trkpt>
      <trkpt lat="45.73609" lon="2.96424">
        <ele>1001.01</ele>
        <time>2014-11-01T10:15:25Z</time>
      </trkpt>
      <trkpt lat="45.73627" lon="2.96437">
        <ele>1000.33</ele>
        <time>2014-11-01T10:15:28Z</time>
      </trkpt>
      <trkpt lat="45.73646" lon="2.9645">
        <ele>1000.33</ele>
        <time>2014-11-01T10:15:32Z</time>
      </trkpt>
      <trkpt lat="45.73665" lon="2.96461">
        <ele>999.85</ele>
        <time>2014-11-01T10:15:37Z</time>
      </trkpt>
      <trkpt lat="45.73682" lon="2.96471">
        <ele>999.8</ele>
        <time>2014-11-01T10:15:42Z</time>
      </trkpt>
      <trkpt lat="45.73699" lon="2.96483">
        <ele>1000.17</ele>
        <time>2014-11-01T10:15:48Z</time>
      </trkpt>
      <trkpt lat="45.73717" lon="2.96497">
        <ele>1000.66</ele>
        <time>2014-11-01T10:15:54Z</time>
      </trkpt>
      <trkpt lat="45.73734" lon="2.96507">
        <ele>1002.78</ele>
        <time>2014-11-01T10:16:00Z</time>
      </trkpt>
      <trkpt lat="45.73752" lon="2.9652">
        <ele>1003.27</ele>
        <time>2014-11-01T10:16:06Z</time>
      </trkpt>
      <trkpt lat="45.7377" lon="2.96528">
        <ele>1001.06</ele>
        <time>2014-11-01T10:16:11Z</time>
      </trkpt>
      <trkpt lat="45.73787" lon="2.96546">
        <ele>998.31</ele>
        <time>2014-11-01T10:16:16Z</time>
      </trkpt>
      <trkpt lat="45.73804" lon="2.96561">
        <ele>999.64</ele>
        <time>2014-11-01T10:16:20Z</time>
      </trkpt>
      <trkpt lat="45.73827" lon="2.96571">
        <ele>999.16</ele>
        <time>2014-11-01T10:16:24Z</time>
      </trkpt>
      <trkpt lat="45.73845" lon="2.96576">
        <ele>997.84</ele>
        <time>2014-11-01T10:16:27Z</time>
      </trkpt>
      <trkpt lat="45.73868" lon="2.96583">
        <ele>995.86</ele>
        <time>2014-11-01T10:16:31Z</time>
      </trkpt>
      <trkpt lat="45.7389" lon="2.96587">
        <ele>994.12</ele>
        <time>2014-11-01T10:16:35Z</time>
      </trkpt>
      <trkpt lat="45.73913" lon="2.96588">
        <ele>992.94</ele>
        <time>2014-11-01T10:16:39Z</time>
      </trkpt>
      <trkpt lat="45.73932" lon="2.96586">
        <ele>993.68</ele>
        <time>2014-11-01T10:16:43Z</time>
      </trkpt>
      <trkpt lat="45.73952" lon="2.96591">
        <ele>992.91</ele>
        <time>2014-11-01T10:16:46Z</time>
      </trkpt>
      <trkpt lat="45.73973" lon="2.96604">
        <ele>992.31</ele>
        <time>2014-11-01T10:16:49Z</time>
      </trkpt>
      <trkpt lat="45.73995" lon="2.96618">
        <ele>988.99</ele>
        <time>2014-11-01T10:16:52Z</time>
      </trkpt>
      <trkpt lat="45.74016" lon="2.96625">
        <ele>987.07</ele>
        <time>2014-11-01T10:16:55Z</time>
      </trkpt>
      <trkpt lat="45.74036" lon="2.96627">
        <ele>985.53</ele>
        <time>2014-11-01T10:17:00Z</time>
      </trkpt>
      <trkpt lat="45.7406" lon="2.96624">
        <ele>983.53</ele>
        <time>2014-11-01T10:17:04Z</time>
      </trkpt>
      <trkpt lat="45.74079" lon="2.96639">
        <ele>981.1</ele>
        <time>2014-11-01T10:17:09Z</time>
      </trkpt>
      <trkpt lat="45.74093" lon="2.96666">
        <ele>979.57</ele>
        <time>2014-11-01T10:17:13Z</time>
      </trkpt>
      <trkpt lat="45.74105" lon="2.96691">
        <ele>978.9</ele>
        <time>2014-11-01T10:17:16Z</time>
      </trkpt>
      <trkpt lat="45.74118" lon="2.96718">
        <ele>977.44</ele>
        <time>2014-11-01T10:17:19Z</time>
      </trkpt>
      <trkpt lat="45.7413" lon="2.96745">
        <ele>976</ele>
        <time>2014-11-01T10:17:22Z</time>
      </trkpt>
      <trkpt lat="45.74143" lon="2.96769">
        <ele>974.45</ele>
        <time>2014-11-01T10:17:25Z</time>
      </trkpt>
      <trkpt lat="45.74163" lon="2.9678">
        <ele>974.13</ele>
        <time>2014-11-01T10:17:28Z</time>
      </trkpt>
      <trkpt lat="45.74184" lon="2.96797">
        <ele>973.09</ele>
        <time>2014-11-01T10:17:31Z</time>
      </trkpt>
      <trkpt lat="45.74205" lon="2.96812">
        <ele>972.46</ele>
        <time>2014-11-01T10:17:34Z</time>
      </trkpt>
      <trkpt lat="45.74225" lon="2.96829">
        <ele>972.76</ele>
        <time>2014-11-01T10:17:37Z</time>
      </trkpt>
      <trkpt lat="45.74244" lon="2.96848">
        <ele>970.67</ele>
        <time>2014-11-01T10:17:40Z</time>
      </trkpt>
      <trkpt lat="45.74263" lon="2.96862">
        <ele>969.53</ele>
        <time>2014-11-01T10:17:43Z</time>
      </trkpt>
      <trkpt lat="45.7428" lon="2.96876">
        <ele>968.52</ele>
        <time>2014-11-01T10:17:46Z</time>
      </trkpt>
      <trkpt lat="45.74298" lon="2.96893">
        <ele>969.01</ele>
        <time>2014-11-01T10:17:49Z</time>
      </trkpt>
      <trkpt lat="45.74318" lon="2.96907">
        <ele>968.95</ele>
        <time>2014-11-01T10:17:52Z</time>
      </trkpt>
      <trkpt lat="45.74339" lon="2.96915">
        <ele>968.82</ele>
        <time>2014-11-01T10:17:55Z</time>
      </trkpt>
      <trkpt lat="45.74361" lon="2.96922">
        <ele>968.55</ele>
        <time>2014-11-01T10:17:58Z</time>
      </trkpt>
      <trkpt lat="45.74381" lon="2.96929">
        <ele>967.89</ele>
        <time>2014-11-01T10:18:01Z</time>
      </trkpt>
      <trkpt lat="45.74401" lon="2.96938">
        <ele>967.06</ele>
        <time>2014-11-01T10:18:04Z</time>
      </trkpt>
      <trkpt lat="45.7442" lon="2.96947">
        <ele>966.08</ele>
        <time>2014-11-01T10:18:07Z</time>
      </trkpt>
      <trkpt lat="45.74438" lon="2.96959">
        <ele>966.58</ele>
        <time>2014-11-01T10:18:10Z</time>
      </trkpt>
      <trkpt lat="45.74461" lon="2.96971">
        <ele>966.77</ele>
        <time>2014-11-01T10:18:13Z</time>
      </trkpt>
      <trkpt lat="45.74483" lon="2.96981">
        <ele>966.8</ele>
        <time>2014-11-01T10:18:16Z</time>
      </trkpt>
      <trkpt lat="45.74501" lon="2.96987">
        <ele>965.55</ele>
        <time>2014-11-01T10:18:18Z</time>
      </trkpt>
      <trkpt lat="45.74521" lon="2.96988">
        <ele>962.24</ele>
        <time>2014-11-01T10:18:20Z</time>
      </trkpt>
      <trkpt lat="45.74546" lon="2.96992">
        <ele>960.48</ele>
        <time>2014-11-01T10:18:23Z</time>
      </trkpt>
      <trkpt lat="45.7457" lon="2.96999">
        <ele>959.88</ele>
        <time>2014-11-01T10:18:26Z</time>
      </trkpt>
      <trkpt lat="45.74594" lon="2.97004">
        <ele>959.06</ele>
        <time>2014-11-01T10:18:29Z</time>
      </trkpt>
      <trkpt lat="45.74618" lon="2.97004">
        <ele>958.83</ele>
        <time>2014-11-01T10:18:32Z</time>
      </trkpt>
      <trkpt lat="45.74641" lon="2.96993">
        <ele>956.55</ele>
        <time>2014-11-01T10:18:35Z</time>
      </trkpt>
      <trkpt lat="45.74666" lon="2.9698">
        <ele>954.27</ele>
        <time>2014-11-01T10:18:38Z</time>
      </trkpt>
      <trkpt lat="45.74691" lon="2.96968">
        <ele>953.11</ele>
        <time>2014-11-01T10:18:41Z</time>
      </trkpt>
      <trkpt lat="45.74708" lon="2.96959">
        <ele>952.88</ele>
        <time>2014-11-01T10:18:43Z</time>
      </trkpt>
      <trkpt lat="45.74734" lon="2.96943">
        <ele>952.93</ele>
        <time>2014-11-01T10:18:46Z</time>
      </trkpt>
      <trkpt lat="45.74757" lon="2.96932">
        <ele>952.82</ele>
        <time>2014-11-01T10:18:49Z</time>
      </trkpt>
      <trkpt lat="45.7478" lon="2.96918">
        <ele>952.3</ele>
        <time>2014-11-01T10:18:52Z</time>
      </trkpt>
      <trkpt lat="45.74803" lon="2.96907">
        <ele>951.11</ele>
        <time>2014-11-01T10:18:55Z</time>
      </trkpt>
      <trkpt lat="45.7482" lon="2.96899">
        <ele>951.38</ele>
        <time>2014-11-01T10:18:57Z</time>
      </trkpt>
      <trkpt lat="45.74844" lon="2.9689">
        <ele>950.87</ele>
        <time>2014-11-01T10:19:00Z</time>
      </trkpt>
      <trkpt lat="45.74868" lon="2.96881">
        <ele>951.31</ele>
        <time>2014-11-01T10:19:03Z</time>
      </trkpt>
      <trkpt lat="45.74892" lon="2.96873">
        <ele>951.74</ele>
        <time>2014-11-01T10:19:06Z</time>
      </trkpt>
      <trkpt lat="45.74915" lon="2.96867">
        <ele>951.79</ele>
        <time>2014-11-01T10:19:09Z</time>
      </trkpt>
      <trkpt lat="45.74938" lon="2.96863">
        <ele>951.67</ele>
        <time>2014-11-01T10:19:12Z</time>
      </trkpt>
      <trkpt lat="45.7496" lon="2.96856">
        <ele>951.03</ele>
        <time>2014-11-01T10:19:15Z</time>
      </trkpt>
      <trkpt lat="45.7498" lon="2.9685">
        <ele>950.33</ele>
        <time>2014-11-01T10:19:18Z</time>
      </trkpt>
      <trkpt lat="45.75001" lon="2.96844">
        <ele>950.74</ele>
        <time>2014-11-01T10:19:21Z</time>
      </trkpt>
      <trkpt lat="45.7502" lon="2.96838">
        <ele>950.79</ele>
        <time>2014-11-01T10:19:24Z</time>
      </trkpt>
      <trkpt lat="45.75039" lon="2.96834">
        <ele>950.8</ele>
        <time>2014-11-01T10:19:27Z</time>
      </trkpt>
      <trkpt lat="45.75057" lon="2.96829">
        <ele>950.8</ele>
        <time>2014-11-01T10:19:30Z</time>
      </trkpt>
      <trkpt lat="45.7508" lon="2.96822">
        <ele>951.24</ele>
        <time>2014-11-01T10:19:34Z</time>
      </trkpt>
      <trkpt lat="45.75099" lon="2.96818">
        <ele>950.85</ele>
        <time>2014-11-01T10:19:37Z</time>
      </trkpt>
      <trkpt lat="45.75116" lon="2.96812">
        <ele>950.81</ele>
        <time>2014-11-01T10:19:40Z</time>
      </trkpt>
      <trkpt lat="45.75139" lon="2.96805">
        <ele>950.74</ele>
        <time>2014-11-01T10:19:44Z</time>
      </trkpt>
      <trkpt lat="45.75162" lon="2.96799">
        <ele>951.73</ele>
        <time>2014-11-01T10:19:48Z</time>
      </trkpt>
      <trkpt lat="45.75183" lon="2.96794">
        <ele>952.29</ele>
        <time>2014-11-01T10:19:52Z</time>
      </trkpt>
      <trkpt lat="45.75203" lon="2.96791">
        <ele>952.27</ele>
        <time>2014-11-01T10:19:56Z</time>
      </trkpt>
      <trkpt lat="45.75221" lon="2.96789">
        <ele>950.95</ele>
        <time>2014-11-01T10:20:00Z</time>
      </trkpt>
      <trkpt lat="45.7524" lon="2.96785">
        <ele>951.55</ele>
        <time>2014-11-01T10:20:05Z</time>
      </trkpt>
      <trkpt lat="45.7526" lon="2.96787">
        <ele>953.53</ele>
        <time>2014-11-01T10:20:11Z</time>
      </trkpt>
      <trkpt lat="45.75277" lon="2.96799">
        <ele>954.09</ele>
        <time>2014-11-01T10:20:18Z</time>
      </trkpt>
      <trkpt lat="45.75287" lon="2.96775">
        <ele>956.79</ele>
        <time>2014-11-01T10:20:29Z</time>
      </trkpt>
      <trkpt lat="45.75295" lon="2.96752">
        <ele>958.53</ele>
        <time>2014-11-01T10:20:37Z</time>
      </trkpt>
      <trkpt lat="45.75314" lon="2.9674">
        <ele>958.79</ele>
        <time>2014-11-01T10:20:46Z</time>
      </trkpt>
      <trkpt lat="45.75331" lon="2.96729">
        <ele>960.27</ele>
        <time>2014-11-01T10:20:53Z</time>
      </trkpt>
      <trkpt lat="45.75349" lon="2.96721">
        <ele>960.64</ele>
        <time>2014-11-01T10:21:00Z</time>
      </trkpt>
      <trkpt lat="45.7537" lon="2.96713">
        <ele>962.52</ele>
        <time>2014-11-01T10:21:07Z</time>
      </trkpt>
      <trkpt lat="45.7539" lon="2.96707">
        <ele>962.03</ele>
        <time>2014-11-01T10:21:13Z</time>
      </trkpt>
      <trkpt lat="45.75409" lon="2.96704">
        <ele>961.44</ele>
        <time>2014-11-01T10:21:19Z</time>
      </trkpt>
      <trkpt lat="45.75427" lon="2.96695">
        <ele>965.87</ele>
        <time>2014-11-01T10:21:25Z</time>
      </trkpt>
      <trkpt lat="45.75445" lon="2.96689">
        <ele>969.86</ele>
        <time>2014-11-01T10:21:30Z</time>
      </trkpt>
      <trkpt lat="45.75461" lon="2.96679">
        <ele>971.02</ele>
        <time>2014-11-01T10:21:35Z</time>
      </trkpt>
      <trkpt lat="45.75479" lon="2.9667">
        <ele>970.99</ele>
        <time>2014-11-01T10:21:40Z</time>
      </trkpt>
      <trkpt lat="45.75496" lon="2.96661">
        <ele>971.99</ele>
        <time>2014-11-01T10:21:45Z</time>
      </trkpt>
      <trkpt lat="45.75515" lon="2.9665">
        <ele>976.27</ele>
        <time>2014-11-01T10:21:51Z</time>
      </trkpt>
      <trkpt lat="45.75534" lon="2.96644">
        <ele>978.16</ele>
        <time>2014-11-01T10:21:56Z</time>
      </trkpt>
      <trkpt lat="45.75551" lon="2.96634">
        <ele>979.45</ele>
        <time>2014-11-01T10:22:02Z</time>
      </trkpt>
      <trkpt lat="45.7557" lon="2.96623">
        <ele>979.29</ele>
        <time>2014-11-01T10:22:08Z</time>
      </trkpt>
      <trkpt lat="45.75588" lon="2.96616">
        <ele>979.6</ele>
        <time>2014-11-01T10:22:13Z</time>
      </trkpt>
      <trkpt lat="45.75606" lon="2.96605">
        <ele>978.87</ele>
        <time>2014-11-01T10:22:19Z</time>
      </trkpt>
      <trkpt lat="45.75626" lon="2.96596">
        <ele>978.58</ele>
        <time>2014-11-01T10:22:25Z</time>
      </trkpt>
      <trkpt lat="45.75644" lon="2.96588">
        <ele>980.7</ele>
        <time>2014-11-01T10:22:30Z</time>
      </trkpt>
      <trkpt lat="45.75662" lon="2.96579">
        <ele>981.92</ele>
        <time>2014-11-01T10:22:35Z</time>
      </trkpt>
      <trkpt lat="45.75682" lon="2.9657">
        <ele>983.44</ele>
        <time>2014-11-01T10:22:41Z</time>
      </trkpt>
      <trkpt lat="45.75703" lon="2.96561">
        <ele>981.37</ele>
        <time>2014-11-01T10:22:47Z</time>
      </trkpt>
      <trkpt lat="45.75723" lon="2.96555">
        <ele>980.17</ele>
        <time>2014-11-01T10:22:53Z</time>
      </trkpt>
      <trkpt lat="45.75741" lon="2.96546">
        <ele>978.79</ele>
        <time>2014-11-01T10:22:59Z</time>
      </trkpt>
      <trkpt lat="45.75761" lon="2.96541">
        <ele>980.25</ele>
        <time>2014-11-01T10:23:06Z</time>
      </trkpt>
      <trkpt lat="45.75779" lon="2.96532">
        <ele>978.75</ele>
        <time>2014-11-01T10:23:11Z</time>
      </trkpt>
      <trkpt lat="45.75798" lon="2.96528">
        <ele>979.98</ele>
        <time>2014-11-01T10:23:16Z</time>
      </trkpt>
      <trkpt lat="45.75816" lon="2.96524">
        <ele>977.12</ele>
        <time>2014-11-01T10:23:21Z</time>
      </trkpt>
      <trkpt lat="45.75836" lon="2.96521">
        <ele>975.54</ele>
        <time>2014-11-01T10:23:27Z</time>
      </trkpt>
      <trkpt lat="45.75838" lon="2.96547">
        <ele>977.67</ele>
        <time>2014-11-01T10:23:39Z</time>
      </trkpt>
      <trkpt lat="45.75829" lon="2.96571">
        <ele>973.07</ele>
        <time>2014-11-01T10:23:46Z</time>
      </trkpt>
      <trkpt lat="45.75825" lon="2.96599">
        <ele>976.3</ele>
        <time>2014-11-01T10:23:52Z</time>
      </trkpt>
      <trkpt lat="45.75815" lon="2.96624">
        <ele>982.53</ele>
        <time>2014-11-01T10:23:58Z</time>
      </trkpt>
      <trkpt lat="45.75804" lon="2.96646">
        <ele>983.83</ele>
        <time>2014-11-01T10:24:04Z</time>
      </trkpt>
      <trkpt lat="45.75798" lon="2.96675">
        <ele>982.11</ele>
        <time>2014-11-01T10:24:09Z</time>
      </trkpt>
      <trkpt lat="45.75792" lon="2.96701">
        <ele>983.62</ele>
        <time>2014-11-01T10:24:14Z</time>
      </trkpt>
      <trkpt lat="45.75785" lon="2.96727">
        <ele>982.79</ele>
        <time>2014-11-01T10:24:18Z</time>
      </trkpt>
      <trkpt lat="45.75782" lon="2.96757">
        <ele>981.36</ele>
        <time>2014-11-01T10:24:22Z</time>
      </trkpt>
      <trkpt lat="45.7577" lon="2.96784">
        <ele>980.5</ele>
        <time>2014-11-01T10:24:27Z</time>
      </trkpt>
      <trkpt lat="45.75766" lon="2.96813">
        <ele>979.41</ele>
        <time>2014-11-01T10:24:31Z</time>
      </trkpt>
      <trkpt lat="45.75761" lon="2.96847">
        <ele>978.34</ele>
        <time>2014-11-01T10:24:35Z</time>
      </trkpt>
      <trkpt lat="45.75752" lon="2.96871">
        <ele>977.49</ele>
        <time>2014-11-01T10:24:38Z</time>
      </trkpt>
      <trkpt lat="45.75742" lon="2.96899">
        <ele>978.97</ele>
        <time>2014-11-01T10:24:42Z</time>
      </trkpt>
      <trkpt lat="45.75738" lon="2.96927">
        <ele>979.45</ele>
        <time>2014-11-01T10:24:45Z</time>
      </trkpt>
      <trkpt lat="45.75728" lon="2.96949">
        <ele>972.77</ele>
        <time>2014-11-01T10:25:29Z</time>
      </trkpt>
      <trkpt lat="45.75734" lon="2.96974">
        <ele>970.4</ele>
        <time>2014-11-01T10:25:37Z</time>
      </trkpt>
      <trkpt lat="45.75729" lon="2.96999">
        <ele>969.37</ele>
        <time>2014-11-01T10:25:44Z</time>
      </trkpt>
      <trkpt lat="45.75724" lon="2.97024">
        <ele>968.4</ele>
        <time>2014-11-01T10:25:51Z</time>
      </trkpt>
      <trkpt lat="45.75718" lon="2.97052">
        <ele>972.04</ele>
        <time>2014-11-01T10:26:00Z</time>
      </trkpt>
      <trkpt lat="45.75718" lon="2.97079">
        <ele>967.06</ele>
        <time>2014-11-01T10:26:07Z</time>
      </trkpt>
      <trkpt lat="45.75712" lon="2.97105">
        <ele>965.76</ele>
        <time>2014-11-01T10:26:15Z</time>
      </trkpt>
      <trkpt lat="45.75707" lon="2.97132">
        <ele>963.94</ele>
        <time>2014-11-01T10:26:23Z</time>
      </trkpt>
      <trkpt lat="45.75705" lon="2.97158">
        <ele>961.91</ele>
        <time>2014-11-01T10:26:30Z</time>
      </trkpt>
      <trkpt lat="45.75692" lon="2.97178">
        <ele>970.15</ele>
        <time>2014-11-01T10:26:37Z</time>
      </trkpt>
      <trkpt lat="45.75685" lon="2.97207">
        <ele>970.62</ele>
        <time>2014-11-01T10:26:43Z</time>
      </trkpt>
      <trkpt lat="45.75679" lon="2.97236">
        <ele>970.36</ele>
        <time>2014-11-01T10:26:48Z</time>
      </trkpt>
      <trkpt lat="45.75671" lon="2.97266">
        <ele>967.21</ele>
        <time>2014-11-01T10:26:52Z</time>
      </trkpt>
      <trkpt lat="45.75662" lon="2.97293">
        <ele>966.45</ele>
        <time>2014-11-01T10:26:56Z</time>
      </trkpt>
      <trkpt lat="45.7566" lon="2.97322">
        <ele>966.76</ele>
        <time>2014-11-01T10:26:59Z</time>
      </trkpt>
      <trkpt lat="45.75653" lon="2.97354">
        <ele>965.36</ele>
        <time>2014-11-01T10:27:03Z</time>
      </trkpt>
      <trkpt lat="45.75643" lon="2.97376">
        <ele>967.21</ele>
        <time>2014-11-01T10:27:09Z</time>
      </trkpt>
      <trkpt lat="45.75662" lon="2.97385">
        <ele>964.69</ele>
        <time>2014-11-01T10:27:14Z</time>
      </trkpt>
      <trkpt lat="45.75684" lon="2.9739">
        <ele>961.6</ele>
        <time>2014-11-01T10:27:18Z</time>
      </trkpt>
      <trkpt lat="45.75704" lon="2.97397">
        <ele>957.91</ele>
        <time>2014-11-01T10:27:22Z</time>
      </trkpt>
      <trkpt lat="45.75725" lon="2.97402">
        <ele>956.49</ele>
        <time>2014-11-01T10:27:26Z</time>
      </trkpt>
      <trkpt lat="45.75744" lon="2.97406">
        <ele>954.47</ele>
        <time>2014-11-01T10:27:30Z</time>
      </trkpt>
      <trkpt lat="45.75763" lon="2.97407">
        <ele>952.15</ele>
        <time>2014-11-01T10:27:34Z</time>
      </trkpt>
      <trkpt lat="45.75784" lon="2.97405">
        <ele>950.38</ele>
        <time>2014-11-01T10:27:38Z</time>
      </trkpt>
      <trkpt lat="45.75806" lon="2.97404">
        <ele>951.15</ele>
        <time>2014-11-01T10:27:42Z</time>
      </trkpt>
      <trkpt lat="45.75826" lon="2.97403">
        <ele>951.72</ele>
        <time>2014-11-01T10:27:45Z</time>
      </trkpt>
      <trkpt lat="45.75847" lon="2.97402">
        <ele>951.66</ele>
        <time>2014-11-01T10:27:48Z</time>
      </trkpt>
      <trkpt lat="45.7587" lon="2.97402">
        <ele>951.16</ele>
        <time>2014-11-01T10:27:51Z</time>
      </trkpt>
      <trkpt lat="45.75891" lon="2.974">
        <ele>949.59</ele>
        <time>2014-11-01T10:27:54Z</time>
      </trkpt>
      <trkpt lat="45.7591" lon="2.97403">
        <ele>950.4</ele>
        <time>2014-11-01T10:27:57Z</time>
      </trkpt>
      <trkpt lat="45.75933" lon="2.97406">
        <ele>949.59</ele>
        <time>2014-11-01T10:28:01Z</time>
      </trkpt>
      <trkpt lat="45.75955" lon="2.97415">
        <ele>949.29</ele>
        <time>2014-11-01T10:28:05Z</time>
      </trkpt>
      <trkpt lat="45.75973" lon="2.97422">
        <ele>948.86</ele>
        <time>2014-11-01T10:28:08Z</time>
      </trkpt>
      <trkpt lat="45.75995" lon="2.97439">
        <ele>944.31</ele>
        <time>2014-11-01T10:28:11Z</time>
      </trkpt>
      <trkpt lat="45.76009" lon="2.97457">
        <ele>942.11</ele>
        <time>2014-11-01T10:28:14Z</time>
      </trkpt>
      <trkpt lat="45.76026" lon="2.97476">
        <ele>942.46</ele>
        <time>2014-11-01T10:28:17Z</time>
      </trkpt>
      <trkpt lat="45.76045" lon="2.97487">
        <ele>941.63</ele>
        <time>2014-11-01T10:28:20Z</time>
      </trkpt>
      <trkpt lat="45.76063" lon="2.97504">
        <ele>938.9</ele>
        <time>2014-11-01T10:28:23Z</time>
      </trkpt>
      <trkpt lat="45.76079" lon="2.97518">
        <ele>939.19</ele>
        <time>2014-11-01T10:28:26Z</time>
      </trkpt>
      <trkpt lat="45.76098" lon="2.97534">
        <ele>936.72</ele>
        <time>2014-11-01T10:28:29Z</time>
      </trkpt>
      <trkpt lat="45.76114" lon="2.97551">
        <ele>935.04</ele>
        <time>2014-11-01T10:28:32Z</time>
      </trkpt>
      <trkpt lat="45.76129" lon="2.97566">
        <ele>934.2</ele>
        <time>2014-11-01T10:28:35Z</time>
      </trkpt>
      <trkpt lat="45.76149" lon="2.97582">
        <ele>933.89</ele>
        <time>2014-11-01T10:28:39Z</time>
      </trkpt>
      <trkpt lat="45.76169" lon="2.97599">
        <ele>934.18</ele>
        <time>2014-11-01T10:28:43Z</time>
      </trkpt>
      <trkpt lat="45.76188" lon="2.97608">
        <ele>934.76</ele>
        <time>2014-11-01T10:28:47Z</time>
      </trkpt>
      <trkpt lat="45.76211" lon="2.97618">
        <ele>934.73</ele>
        <time>2014-11-01T10:28:51Z</time>
      </trkpt>
      <trkpt lat="45.76229" lon="2.97631">
        <ele>933.92</ele>
        <time>2014-11-01T10:28:54Z</time>
      </trkpt>
      <trkpt lat="45.76245" lon="2.97648">
        <ele>933.81</ele>
        <time>2014-11-01T10:28:57Z</time>
      </trkpt>
      <trkpt lat="45.76265" lon="2.97655">
        <ele>935.93</ele>
        <time>2014-11-01T10:29:00Z</time>
      </trkpt>
      <trkpt lat="45.76285" lon="2.97667">
        <ele>937.81</ele>
        <time>2014-11-01T10:29:04Z</time>
      </trkpt>
      <trkpt lat="45.76304" lon="2.97684">
        <ele>939.11</ele>
        <time>2014-11-01T10:29:08Z</time>
      </trkpt>
      <trkpt lat="45.76321" lon="2.97699">
        <ele>939.59</ele>
        <time>2014-11-01T10:29:11Z</time>
      </trkpt>
      <trkpt lat="45.76343" lon="2.97712">
        <ele>940.91</ele>
        <time>2014-11-01T10:29:15Z</time>
      </trkpt>
      <trkpt lat="45.7636" lon="2.97721">
        <ele>942.44</ele>
        <time>2014-11-01T10:29:18Z</time>
      </trkpt>
      <trkpt lat="45.76375" lon="2.97738">
        <ele>937.13</ele>
        <time>2014-11-01T10:29:21Z</time>
      </trkpt>
      <trkpt lat="45.76391" lon="2.97755">
        <ele>932.84</ele>
        <time>2014-11-01T10:29:24Z</time>
      </trkpt>
      <trkpt lat="45.76403" lon="2.97783">
        <ele>933.18</ele>
        <time>2014-11-01T10:29:28Z</time>
      </trkpt>
      <trkpt lat="45.76416" lon="2.97801">
        <ele>932.14</ele>
        <time>2014-11-01T10:29:30Z</time>
      </trkpt>
      <trkpt lat="45.76436" lon="2.97812">
        <ele>932.13</ele>
        <time>2014-11-01T10:29:34Z</time>
      </trkpt>
      <trkpt lat="45.76456" lon="2.97826">
        <ele>934.59</ele>
        <time>2014-11-01T10:29:39Z</time>
      </trkpt>
      <trkpt lat="45.76474" lon="2.97833">
        <ele>936.61</ele>
        <time>2014-11-01T10:29:45Z</time>
      </trkpt>
      <trkpt lat="45.76492" lon="2.97842">
        <ele>935.14</ele>
        <time>2014-11-01T10:29:50Z</time>
      </trkpt>
      <trkpt lat="45.76512" lon="2.97856">
        <ele>933.99</ele>
        <time>2014-11-01T10:29:56Z</time>
      </trkpt>
      <trkpt lat="45.76527" lon="2.97875">
        <ele>943.21</ele>
        <time>2014-11-01T10:30:05Z</time>
      </trkpt>
      <trkpt lat="45.76549" lon="2.9789">
        <ele>943.1</ele>
        <time>2014-11-01T10:30:11Z</time>
      </trkpt>
      <trkpt lat="45.76568" lon="2.9789">
        <ele>930.57</ele>
        <time>2014-11-01T10:30:15Z</time>
      </trkpt>
      <trkpt lat="45.76588" lon="2.97887">
        <ele>929.84</ele>
        <time>2014-11-01T10:30:21Z</time>
      </trkpt>
      <trkpt lat="45.76607" lon="2.97887">
        <ele>932.58</ele>
        <time>2014-11-01T10:30:26Z</time>
      </trkpt>
      <trkpt lat="45.76626" lon="2.97885">
        <ele>934.92</ele>
        <time>2014-11-01T10:30:31Z</time>
      </trkpt>
      <trkpt lat="45.76644" lon="2.97885">
        <ele>933.49</ele>
        <time>2014-11-01T10:30:36Z</time>
      </trkpt>
      <trkpt lat="45.76663" lon="2.97887">
        <ele>939.13</ele>
        <time>2014-11-01T10:30:45Z</time>
      </trkpt>
      <trkpt lat="45.76681" lon="2.97892">
        <ele>934.89</ele>
        <time>2014-11-01T10:30:52Z</time>
      </trkpt>
      <trkpt lat="45.767" lon="2.97895">
        <ele>937.33</ele>
        <time>2014-11-01T10:30:58Z</time>
      </trkpt>
      <trkpt lat="45.76721" lon="2.97901">
        <ele>939.19</ele>
        <time>2014-11-01T10:31:03Z</time>
      </trkpt>
      <trkpt lat="45.76738" lon="2.97911">
        <ele>941.26</ele>
        <time>2014-11-01T10:31:07Z</time>
      </trkpt>
      <trkpt lat="45.76744" lon="2.97938">
        <ele>945.88</ele>
        <time>2014-11-01T10:31:12Z</time>
      </trkpt>
      <trkpt lat="45.76741" lon="2.97967">
        <ele>951.18</ele>
        <time>2014-11-01T10:31:16Z</time>
      </trkpt>
      <trkpt lat="45.76736" lon="2.97993">
        <ele>951.35</ele>
        <time>2014-11-01T10:31:19Z</time>
      </trkpt>
      <trkpt lat="45.76738" lon="2.98021">
        <ele>950.24</ele>
        <time>2014-11-01T10:31:22Z</time>
      </trkpt>
      <trkpt lat="45.76743" lon="2.9805">
        <ele>946.23</ele>
        <time>2014-11-01T10:31:25Z</time>
      </trkpt>
      <trkpt lat="45.76738" lon="2.98081">
        <ele>942.73</ele>
        <time>2014-11-01T10:31:28Z</time>
      </trkpt>
      <trkpt lat="45.76734" lon="2.98112">
        <ele>938.79</ele>
        <time>2014-11-01T10:31:31Z</time>
      </trkpt>
      <trkpt lat="45.76728" lon="2.98145">
        <ele>937.92</ele>
        <time>2014-11-01T10:31:34Z</time>
      </trkpt>
      <trkpt lat="45.76725" lon="2.9818">
        <ele>937.31</ele>
        <time>2014-11-01T10:31:38Z</time>
      </trkpt>
      <trkpt lat="45.76726" lon="2.98208">
        <ele>937.11</ele>
        <time>2014-11-01T10:31:41Z</time>
      </trkpt>
      <trkpt lat="45.76735" lon="2.98236">
        <ele>929.71</ele>
        <time>2014-11-01T10:31:44Z</time>
      </trkpt>
      <trkpt lat="45.76741" lon="2.98265">
        <ele>927.54</ele>
        <time>2014-11-01T10:31:47Z</time>
      </trkpt>
      <trkpt lat="45.76748" lon="2.983">
        <ele>925.89</ele>
        <time>2014-11-01T10:31:50Z</time>
      </trkpt>
      <trkpt lat="45.76752" lon="2.98331">
        <ele>922.69</ele>
        <time>2014-11-01T10:31:53Z</time>
      </trkpt>
      <trkpt lat="45.76758" lon="2.98355">
        <ele>919.77</ele>
        <time>2014-11-01T10:31:55Z</time>
      </trkpt>
      <trkpt lat="45.76766" lon="2.98383">
        <ele>916.8</ele>
        <time>2014-11-01T10:31:58Z</time>
      </trkpt>
      <trkpt lat="45.76773" lon="2.98414">
        <ele>915.42</ele>
        <time>2014-11-01T10:32:01Z</time>
      </trkpt>
      <trkpt lat="45.76778" lon="2.98443">
        <ele>913.63</ele>
        <time>2014-11-01T10:32:04Z</time>
      </trkpt>
      <trkpt lat="45.76785" lon="2.98478">
        <ele>909.9</ele>
        <time>2014-11-01T10:32:07Z</time>
      </trkpt>
      <trkpt lat="45.76788" lon="2.98506">
        <ele>904.07</ele>
        <time>2014-11-01T10:32:09Z</time>
      </trkpt>
      <trkpt lat="45.76791" lon="2.98541">
        <ele>900.71</ele>
        <time>2014-11-01T10:32:12Z</time>
      </trkpt>
      <trkpt lat="45.76791" lon="2.98567">
        <ele>899.29</ele>
        <time>2014-11-01T10:32:15Z</time>
      </trkpt>
      <trkpt lat="45.76791" lon="2.98594">
        <ele>893.2</ele>
        <time>2014-11-01T10:32:21Z</time>
      </trkpt>
      <trkpt lat="45.76774" lon="2.98602">
        <ele>890.33</ele>
        <time>2014-11-01T10:32:28Z</time>
      </trkpt>
      <trkpt lat="45.76754" lon="2.98591">
        <ele>891.12</ele>
        <time>2014-11-01T10:32:34Z</time>
      </trkpt>
      <trkpt lat="45.76734" lon="2.98579">
        <ele>890.88</ele>
        <time>2014-11-01T10:32:38Z</time>
      </trkpt>
      <trkpt lat="45.76713" lon="2.9857">
        <ele>890.77</ele>
        <time>2014-11-01T10:32:43Z</time>
      </trkpt>
      <trkpt lat="45.76688" lon="2.98561">
        <ele>889.55</ele>
        <time>2014-11-01T10:32:46Z</time>
      </trkpt>
      <trkpt lat="45.76668" lon="2.98557">
        <ele>887.64</ele>
        <time>2014-11-01T10:32:49Z</time>
      </trkpt>
      <trkpt lat="45.76642" lon="2.9855">
        <ele>885.86</ele>
        <time>2014-11-01T10:32:54Z</time>
      </trkpt>
      <trkpt lat="45.76617" lon="2.98554">
        <ele>884.81</ele>
        <time>2014-11-01T10:32:57Z</time>
      </trkpt>
      <trkpt lat="45.76597" lon="2.98545">
        <ele>886.05</ele>
        <time>2014-11-01T10:33:00Z</time>
      </trkpt>
      <trkpt lat="45.76574" lon="2.98544">
        <ele>887.13</ele>
        <time>2014-11-01T10:33:04Z</time>
      </trkpt>
      <trkpt lat="45.76556" lon="2.98547">
        <ele>887.51</ele>
        <time>2014-11-01T10:33:08Z</time>
      </trkpt>
      <trkpt lat="45.76557" lon="2.98574">
        <ele>886.76</ele>
        <time>2014-11-01T10:33:13Z</time>
      </trkpt>
      <trkpt lat="45.7657" lon="2.98601">
        <ele>883.48</ele>
        <time>2014-11-01T10:33:17Z</time>
      </trkpt>
      <trkpt lat="45.76572" lon="2.98635">
        <ele>880.76</ele>
        <time>2014-11-01T10:33:20Z</time>
      </trkpt>
      <trkpt lat="45.76575" lon="2.98668">
        <ele>877.67</ele>
        <time>2014-11-01T10:33:23Z</time>
      </trkpt>
      <trkpt lat="45.76578" lon="2.98704">
        <ele>876.03</ele>
        <time>2014-11-01T10:33:26Z</time>
      </trkpt>
      <trkpt lat="45.7658" lon="2.98741">
        <ele>874.33</ele>
        <time>2014-11-01T10:33:29Z</time>
      </trkpt>
      <trkpt lat="45.76581" lon="2.98777">
        <ele>872.49</ele>
        <time>2014-11-01T10:33:32Z</time>
      </trkpt>
      <trkpt lat="45.76582" lon="2.98815">
        <ele>871.14</ele>
        <time>2014-11-01T10:33:35Z</time>
      </trkpt>
      <trkpt lat="45.76584" lon="2.98851">
        <ele>869.47</ele>
        <time>2014-11-01T10:33:38Z</time>
      </trkpt>
      <trkpt lat="45.76584" lon="2.98889">
        <ele>868.13</ele>
        <time>2014-11-01T10:33:41Z</time>
      </trkpt>
      <trkpt lat="45.7658" lon="2.98925">
        <ele>867.34</ele>
        <time>2014-11-01T10:33:44Z</time>
      </trkpt>
      <trkpt lat="45.76577" lon="2.9896">
        <ele>866.12</ele>
        <time>2014-11-01T10:33:47Z</time>
      </trkpt>
      <trkpt lat="45.76574" lon="2.98995">
        <ele>864.59</ele>
        <time>2014-11-01T10:33:50Z</time>
      </trkpt>
      <trkpt lat="45.76571" lon="2.99031">
        <ele>863.15</ele>
        <time>2014-11-01T10:33:53Z</time>
      </trkpt>
      <trkpt lat="45.76569" lon="2.99065">
        <ele>861.59</ele>
        <time>2014-11-01T10:33:56Z</time>
      </trkpt>
      <trkpt lat="45.7657" lon="2.99102">
        <ele>860.15</ele>
        <time>2014-11-01T10:33:59Z</time>
      </trkpt>
      <trkpt lat="45.76571" lon="2.99138">
        <ele>858.59</ele>
        <time>2014-11-01T10:34:02Z</time>
      </trkpt>
      <trkpt lat="45.76574" lon="2.99173">
        <ele>858.02</ele>
        <time>2014-11-01T10:34:05Z</time>
      </trkpt>
      <trkpt lat="45.76577" lon="2.9921">
        <ele>857.33</ele>
        <time>2014-11-01T10:34:08Z</time>
      </trkpt>
      <trkpt lat="45.76572" lon="2.99245">
        <ele>855.61</ele>
        <time>2014-11-01T10:34:11Z</time>
      </trkpt>
      <trkpt lat="45.76554" lon="2.99265">
        <ele>853.28</ele>
        <time>2014-11-01T10:34:14Z</time>
      </trkpt>
      <trkpt lat="45.76536" lon="2.99289">
        <ele>851.11</ele>
        <time>2014-11-01T10:34:17Z</time>
      </trkpt>
      <trkpt lat="45.76524" lon="2.99322">
        <ele>848.71</ele>
        <time>2014-11-01T10:34:20Z</time>
      </trkpt>
      <trkpt lat="45.76513" lon="2.99355">
        <ele>845.79</ele>
        <time>2014-11-01T10:34:23Z</time>
      </trkpt>
      <trkpt lat="45.76504" lon="2.99381">
        <ele>844.55</ele>
        <time>2014-11-01T10:34:25Z</time>
      </trkpt>
      <trkpt lat="45.76494" lon="2.99404">
        <ele>843.99</ele>
        <time>2014-11-01T10:34:27Z</time>
      </trkpt>
      <trkpt lat="45.76492" lon="2.99441">
        <ele>842.95</ele>
        <time>2014-11-01T10:34:30Z</time>
      </trkpt>
      <trkpt lat="45.76496" lon="2.99477">
        <ele>841.57</ele>
        <time>2014-11-01T10:34:33Z</time>
      </trkpt>
      <trkpt lat="45.76495" lon="2.99505">
        <ele>840.49</ele>
        <time>2014-11-01T10:34:35Z</time>
      </trkpt>
      <trkpt lat="45.76493" lon="2.99534">
        <ele>839.47</ele>
        <time>2014-11-01T10:34:37Z</time>
      </trkpt>
      <trkpt lat="45.76492" lon="2.99567">
        <ele>837.72</ele>
        <time>2014-11-01T10:34:39Z</time>
      </trkpt>
      <trkpt lat="45.7649" lon="2.99601">
        <ele>836.53</ele>
        <time>2014-11-01T10:34:41Z</time>
      </trkpt>
      <trkpt lat="45.76486" lon="2.99633">
        <ele>834.48</ele>
        <time>2014-11-01T10:34:43Z</time>
      </trkpt>
      <trkpt lat="45.7648" lon="2.99659">
        <ele>832.72</ele>
        <time>2014-11-01T10:34:45Z</time>
      </trkpt>
      <trkpt lat="45.76478" lon="2.99694">
        <ele>831.16</ele>
        <time>2014-11-01T10:34:48Z</time>
      </trkpt>
      <trkpt lat="45.76487" lon="2.99719">
        <ele>832.47</ele>
        <time>2014-11-01T10:34:51Z</time>
      </trkpt>
      <trkpt lat="45.765" lon="2.99741">
        <ele>832.72</ele>
        <time>2014-11-01T10:34:55Z</time>
      </trkpt>
      <trkpt lat="45.76481" lon="2.99751">
        <ele>833.79</ele>
        <time>2014-11-01T10:35:03Z</time>
      </trkpt>
      <trkpt lat="45.7647" lon="2.99776">
        <ele>832.42</ele>
        <time>2014-11-01T10:35:07Z</time>
      </trkpt>
      <trkpt lat="45.76461" lon="2.99799">
        <ele>831.88</ele>
        <time>2014-11-01T10:35:10Z</time>
      </trkpt>
      <trkpt lat="45.76452" lon="2.99829">
        <ele>831.8</ele>
        <time>2014-11-01T10:35:14Z</time>
      </trkpt>
      <trkpt lat="45.76445" lon="2.9986">
        <ele>831.8</ele>
        <time>2014-11-01T10:35:18Z</time>
      </trkpt>
      <trkpt lat="45.76446" lon="2.99891">
        <ele>832.3</ele>
        <time>2014-11-01T10:35:22Z</time>
      </trkpt>
      <trkpt lat="45.76451" lon="2.99919">
        <ele>833.64</ele>
        <time>2014-11-01T10:35:26Z</time>
      </trkpt>
      <trkpt lat="45.76455" lon="2.99949">
        <ele>834.73</ele>
        <time>2014-11-01T10:35:31Z</time>
      </trkpt>
      <trkpt lat="45.7646" lon="2.99974">
        <ele>834.04</ele>
        <time>2014-11-01T10:35:35Z</time>
      </trkpt>
      <trkpt lat="45.76466" lon="3.00003">
        <ele>833.06</ele>
        <time>2014-11-01T10:35:40Z</time>
      </trkpt>
      <trkpt lat="45.7647" lon="3.00034">
        <ele>832.81</ele>
        <time>2014-11-01T10:35:45Z</time>
      </trkpt>
      <trkpt lat="45.76474" lon="3.0006">
        <ele>833.55</ele>
        <time>2014-11-01T10:35:50Z</time>
      </trkpt>
      <trkpt lat="45.7648" lon="3.0009">
        <ele>835.38</ele>
        <time>2014-11-01T10:35:55Z</time>
      </trkpt>
      <trkpt lat="45.76486" lon="3.00117">
        <ele>835.69</ele>
        <time>2014-11-01T10:36:00Z</time>
      </trkpt>
      <trkpt lat="45.7649" lon="3.00142">
        <ele>837.4</ele>
        <time>2014-11-01T10:36:07Z</time>
      </trkpt>
      <trkpt lat="45.76494" lon="3.00171">
        <ele>837.52</ele>
        <time>2014-11-01T10:36:14Z</time>
      </trkpt>
      <trkpt lat="45.76499" lon="3.00199">
        <ele>838.04</ele>
        <time>2014-11-01T10:36:20Z</time>
      </trkpt>
      <trkpt lat="45.765" lon="3.00226">
        <ele>840.03</ele>
        <time>2014-11-01T10:36:25Z</time>
      </trkpt>
      <trkpt lat="45.76503" lon="3.00255">
        <ele>838.87</ele>
        <time>2014-11-01T10:36:30Z</time>
      </trkpt>
      <trkpt lat="45.76504" lon="3.00287">
        <ele>838.58</ele>
        <time>2014-11-01T10:36:35Z</time>
      </trkpt>
      <trkpt lat="45.76494" lon="3.00314">
        <ele>839.85</ele>
        <time>2014-11-01T10:36:40Z</time>
      </trkpt>
      <trkpt lat="45.76486" lon="3.00338">
        <ele>840.77</ele>
        <time>2014-11-01T10:36:45Z</time>
      </trkpt>
      <trkpt lat="45.76487" lon="3.00369">
        <ele>842.52</ele>
        <time>2014-11-01T10:36:51Z</time>
      </trkpt>
      <trkpt lat="45.76487" lon="3.00395">
        <ele>843.76</ele>
        <time>2014-11-01T10:36:56Z</time>
      </trkpt>
      <trkpt lat="45.76473" lon="3.00418">
        <ele>845.53</ele>
        <time>2014-11-01T10:37:02Z</time>
      </trkpt>
      <trkpt lat="45.76458" lon="3.00432">
        <ele>846.29</ele>
        <time>2014-11-01T10:37:07Z</time>
      </trkpt>
      <trkpt lat="45.76442" lon="3.00449">
        <ele>846.78</ele>
        <time>2014-11-01T10:37:12Z</time>
      </trkpt>
      <trkpt lat="45.76429" lon="3.00472">
        <ele>847.77</ele>
        <time>2014-11-01T10:37:17Z</time>
      </trkpt>
      <trkpt lat="45.76421" lon="3.00496">
        <ele>846.42</ele>
        <time>2014-11-01T10:37:21Z</time>
      </trkpt>
      <trkpt lat="45.76413" lon="3.00526">
        <ele>845.84</ele>
        <time>2014-11-01T10:37:25Z</time>
      </trkpt>
      <trkpt lat="45.76417" lon="3.00552">
        <ele>844.93</ele>
        <time>2014-11-01T10:37:28Z</time>
      </trkpt>
      <trkpt lat="45.76431" lon="3.00577">
        <ele>843.87</ele>
        <time>2014-11-01T10:37:32Z</time>
      </trkpt>
      <trkpt lat="45.76415" lon="3.00597">
        <ele>840.63</ele>
        <time>2014-11-01T10:37:39Z</time>
      </trkpt>
      <trkpt lat="45.76397" lon="3.00603">
        <ele>840.32</ele>
        <time>2014-11-01T10:37:44Z</time>
      </trkpt>
      <trkpt lat="45.76379" lon="3.00596">
        <ele>841.76</ele>
        <time>2014-11-01T10:38:09Z</time>
      </trkpt>
      <trkpt lat="45.76359" lon="3.00606">
        <ele>840.42</ele>
        <time>2014-11-01T10:38:15Z</time>
      </trkpt>
      <trkpt lat="45.76338" lon="3.00621">
        <ele>837.9</ele>
        <time>2014-11-01T10:38:19Z</time>
      </trkpt>
      <trkpt lat="45.7632" lon="3.00626">
        <ele>836.19</ele>
        <time>2014-11-01T10:38:22Z</time>
      </trkpt>
      <trkpt lat="45.76302" lon="3.00619">
        <ele>834.97</ele>
        <time>2014-11-01T10:38:25Z</time>
      </trkpt>
      <trkpt lat="45.76283" lon="3.00603">
        <ele>833.43</ele>
        <time>2014-11-01T10:38:29Z</time>
      </trkpt>
      <trkpt lat="45.76266" lon="3.00587">
        <ele>832.84</ele>
        <time>2014-11-01T10:38:33Z</time>
      </trkpt>
      <trkpt lat="45.76249" lon="3.00574">
        <ele>834.61</ele>
        <time>2014-11-01T10:38:38Z</time>
      </trkpt>
      <trkpt lat="45.76237" lon="3.00594">
        <ele>833.04</ele>
        <time>2014-11-01T10:38:42Z</time>
      </trkpt>
      <trkpt lat="45.76233" lon="3.00626">
        <ele>832</ele>
        <time>2014-11-01T10:38:46Z</time>
      </trkpt>
      <trkpt lat="45.76223" lon="3.00655">
        <ele>832.69</ele>
        <time>2014-11-01T10:38:50Z</time>
      </trkpt>
      <trkpt lat="45.7621" lon="3.00681">
        <ele>831.1</ele>
        <time>2014-11-01T10:38:54Z</time>
      </trkpt>
      <trkpt lat="45.76213" lon="3.00707">
        <ele>830.8</ele>
        <time>2014-11-01T10:39:00Z</time>
      </trkpt>
      <trkpt lat="45.7623" lon="3.00729">
        <ele>832.05</ele>
        <time>2014-11-01T10:39:05Z</time>
      </trkpt>
      <trkpt lat="45.76236" lon="3.00755">
        <ele>830.06</ele>
        <time>2014-11-01T10:39:09Z</time>
      </trkpt>
      <trkpt lat="45.76247" lon="3.00785">
        <ele>828.69</ele>
        <time>2014-11-01T10:39:13Z</time>
      </trkpt>
      <trkpt lat="45.76252" lon="3.00814">
        <ele>829.42</ele>
        <time>2014-11-01T10:39:17Z</time>
      </trkpt>
      <trkpt lat="45.76259" lon="3.00844">
        <ele>832.09</ele>
        <time>2014-11-01T10:39:21Z</time>
      </trkpt>
      <trkpt lat="45.76267" lon="3.00869">
        <ele>833.21</ele>
        <time>2014-11-01T10:39:24Z</time>
      </trkpt>
      <trkpt lat="45.76278" lon="3.0089">
        <ele>833.73</ele>
        <time>2014-11-01T10:39:27Z</time>
      </trkpt>
      <trkpt lat="45.76288" lon="3.00914">
        <ele>834.54</ele>
        <time>2014-11-01T10:39:30Z</time>
      </trkpt>
      <trkpt lat="45.76294" lon="3.00939">
        <ele>834.02</ele>
        <time>2014-11-01T10:39:33Z</time>
      </trkpt>
      <trkpt lat="45.76304" lon="3.00964">
        <ele>833.83</ele>
        <time>2014-11-01T10:39:36Z</time>
      </trkpt>
      <trkpt lat="45.76313" lon="3.00986">
        <ele>834.3</ele>
        <time>2014-11-01T10:39:39Z</time>
      </trkpt>
      <trkpt lat="45.76325" lon="3.01007">
        <ele>835.86</ele>
        <time>2014-11-01T10:39:42Z</time>
      </trkpt>
      <trkpt lat="45.76342" lon="3.01029">
        <ele>835.24</ele>
        <time>2014-11-01T10:39:46Z</time>
      </trkpt>
      <trkpt lat="45.76359" lon="3.01049">
        <ele>835.08</ele>
        <time>2014-11-01T10:39:50Z</time>
      </trkpt>
      <trkpt lat="45.76376" lon="3.01066">
        <ele>833.88</ele>
        <time>2014-11-01T10:39:54Z</time>
      </trkpt>
      <trkpt lat="45.76385" lon="3.01094">
        <ele>834.86</ele>
        <time>2014-11-01T10:40:00Z</time>
      </trkpt>
      <trkpt lat="45.76395" lon="3.0112">
        <ele>834.05</ele>
        <time>2014-11-01T10:40:05Z</time>
      </trkpt>
      <trkpt lat="45.76405" lon="3.01144">
        <ele>834.55</ele>
        <time>2014-11-01T10:40:11Z</time>
      </trkpt>
      <trkpt lat="45.76417" lon="3.01167">
        <ele>836.97</ele>
        <time>2014-11-01T10:40:15Z</time>
      </trkpt>
      <trkpt lat="45.7643" lon="3.01192">
        <ele>832.18</ele>
        <time>2014-11-01T10:40:19Z</time>
      </trkpt>
      <trkpt lat="45.76441" lon="3.01216">
        <ele>829.37</ele>
        <time>2014-11-01T10:40:24Z</time>
      </trkpt>
      <trkpt lat="45.7645" lon="3.01241">
        <ele>828.83</ele>
        <time>2014-11-01T10:40:28Z</time>
      </trkpt>
      <trkpt lat="45.76458" lon="3.01271">
        <ele>831.36</ele>
        <time>2014-11-01T10:40:33Z</time>
      </trkpt>
      <trkpt lat="45.76472" lon="3.01293">
        <ele>830.77</ele>
        <time>2014-11-01T10:40:37Z</time>
      </trkpt>
      <trkpt lat="45.76488" lon="3.0132">
        <ele>825.67</ele>
        <time>2014-11-01T10:40:40Z</time>
      </trkpt>
      <trkpt lat="45.76497" lon="3.01349">
        <ele>823.53</ele>
        <time>2014-11-01T10:40:43Z</time>
      </trkpt>
      <trkpt lat="45.76505" lon="3.01376">
        <ele>821.27</ele>
        <time>2014-11-01T10:40:46Z</time>
      </trkpt>
      <trkpt lat="45.76511" lon="3.01401">
        <ele>819.98</ele>
        <time>2014-11-01T10:40:49Z</time>
      </trkpt>
      <trkpt lat="45.76512" lon="3.01432">
        <ele>822.37</ele>
        <time>2014-11-01T10:40:53Z</time>
      </trkpt>
      <trkpt lat="45.76512" lon="3.01466">
        <ele>823.52</ele>
        <time>2014-11-01T10:40:57Z</time>
      </trkpt>
      <trkpt lat="45.76509" lon="3.01497">
        <ele>825.95</ele>
        <time>2014-11-01T10:41:02Z</time>
      </trkpt>
      <trkpt lat="45.76508" lon="3.01523">
        <ele>824.56</ele>
        <time>2014-11-01T10:41:06Z</time>
      </trkpt>
      <trkpt lat="45.76488" lon="3.01518">
        <ele>821.83</ele>
        <time>2014-11-01T10:41:15Z</time>
      </trkpt>
      <trkpt lat="45.7648" lon="3.01547">
        <ele>822.92</ele>
        <time>2014-11-01T10:41:29Z</time>
      </trkpt>
      <trkpt lat="45.7648" lon="3.0158">
        <ele>822.8</ele>
        <time>2014-11-01T10:41:34Z</time>
      </trkpt>
      <trkpt lat="45.76479" lon="3.01606">
        <ele>821.92</ele>
        <time>2014-11-01T10:41:37Z</time>
      </trkpt>
      <trkpt lat="45.76477" lon="3.01634">
        <ele>821.31</ele>
        <time>2014-11-01T10:41:40Z</time>
      </trkpt>
      <trkpt lat="45.76476" lon="3.01667">
        <ele>820.36</ele>
        <time>2014-11-01T10:41:43Z</time>
      </trkpt>
      <trkpt lat="45.76474" lon="3.017">
        <ele>818.62</ele>
        <time>2014-11-01T10:41:46Z</time>
      </trkpt>
      <trkpt lat="45.76473" lon="3.01735">
        <ele>817.15</ele>
        <time>2014-11-01T10:41:49Z</time>
      </trkpt>
      <trkpt lat="45.76479" lon="3.0177">
        <ele>815.47</ele>
        <time>2014-11-01T10:41:52Z</time>
      </trkpt>
      <trkpt lat="45.76501" lon="3.01794">
        <ele>814.38</ele>
        <time>2014-11-01T10:41:55Z</time>
      </trkpt>
      <trkpt lat="45.76529" lon="3.01804">
        <ele>814.75</ele>
        <time>2014-11-01T10:41:58Z</time>
      </trkpt>
      <trkpt lat="45.76549" lon="3.01803">
        <ele>814.29</ele>
        <time>2014-11-01T10:42:00Z</time>
      </trkpt>
      <trkpt lat="45.7657" lon="3.01796">
        <ele>812.92</ele>
        <time>2014-11-01T10:42:02Z</time>
      </trkpt>
      <trkpt lat="45.76592" lon="3.0178">
        <ele>810.83</ele>
        <time>2014-11-01T10:42:04Z</time>
      </trkpt>
      <trkpt lat="45.76604" lon="3.01751">
        <ele>808.06</ele>
        <time>2014-11-01T10:42:06Z</time>
      </trkpt>
      <trkpt lat="45.76615" lon="3.01722">
        <ele>806.36</ele>
        <time>2014-11-01T10:42:08Z</time>
      </trkpt>
      <trkpt lat="45.76626" lon="3.0169">
        <ele>803.19</ele>
        <time>2014-11-01T10:42:10Z</time>
      </trkpt>
      <trkpt lat="45.76643" lon="3.01663">
        <ele>800.9</ele>
        <time>2014-11-01T10:42:12Z</time>
      </trkpt>
      <trkpt lat="45.76666" lon="3.01647">
        <ele>799.32</ele>
        <time>2014-11-01T10:42:14Z</time>
      </trkpt>
      <trkpt lat="45.76688" lon="3.01635">
        <ele>797.68</ele>
        <time>2014-11-01T10:42:16Z</time>
      </trkpt>
      <trkpt lat="45.76704" lon="3.01608">
        <ele>795.02</ele>
        <time>2014-11-01T10:42:18Z</time>
      </trkpt>
      <trkpt lat="45.76713" lon="3.01573">
        <ele>792.35</ele>
        <time>2014-11-01T10:42:20Z</time>
      </trkpt>
      <trkpt lat="45.76718" lon="3.01537">
        <ele>789.44</ele>
        <time>2014-11-01T10:42:22Z</time>
      </trkpt>
      <trkpt lat="45.7672" lon="3.01501">
        <ele>787.46</ele>
        <time>2014-11-01T10:42:24Z</time>
      </trkpt>
      <trkpt lat="45.76718" lon="3.01463">
        <ele>785.21</ele>
        <time>2014-11-01T10:42:26Z</time>
      </trkpt>
      <trkpt lat="45.76727" lon="3.01428">
        <ele>782.9</ele>
        <time>2014-11-01T10:42:28Z</time>
      </trkpt>
      <trkpt lat="45.76747" lon="3.01409">
        <ele>781.57</ele>
        <time>2014-11-01T10:42:30Z</time>
      </trkpt>
      <trkpt lat="45.76768" lon="3.01398">
        <ele>781.74</ele>
        <time>2014-11-01T10:42:32Z</time>
      </trkpt>
      <trkpt lat="45.76787" lon="3.01384">
        <ele>781.78</ele>
        <time>2014-11-01T10:42:34Z</time>
      </trkpt>
      <trkpt lat="45.76804" lon="3.01372">
        <ele>781.8</ele>
        <time>2014-11-01T10:42:36Z</time>
      </trkpt>
      <trkpt lat="45.76826" lon="3.01362">
        <ele>782.55</ele>
        <time>2014-11-01T10:42:39Z</time>
      </trkpt>
      <trkpt lat="45.7684" lon="3.01387">
        <ele>782.78</ele>
        <time>2014-11-01T10:42:43Z</time>
      </trkpt>
      <trkpt lat="45.7684" lon="3.01416">
        <ele>782.3</ele>
        <time>2014-11-01T10:42:46Z</time>
      </trkpt>
      <trkpt lat="45.76837" lon="3.01443">
        <ele>781.86</ele>
        <time>2014-11-01T10:42:49Z</time>
      </trkpt>
      <trkpt lat="45.76834" lon="3.01469">
        <ele>782.56</ele>
        <time>2014-11-01T10:42:52Z</time>
      </trkpt>
      <trkpt lat="45.76828" lon="3.01501">
        <ele>782.78</ele>
        <time>2014-11-01T10:42:56Z</time>
      </trkpt>
      <trkpt lat="45.7683" lon="3.0153">
        <ele>782.3</ele>
        <time>2014-11-01T10:43:00Z</time>
      </trkpt>
      <trkpt lat="45.76835" lon="3.0156">
        <ele>780.46</ele>
        <time>2014-11-01T10:43:04Z</time>
      </trkpt>
      <trkpt lat="45.76841" lon="3.01586">
        <ele>779.38</ele>
        <time>2014-11-01T10:43:07Z</time>
      </trkpt>
      <trkpt lat="45.76857" lon="3.01609">
        <ele>778</ele>
        <time>2014-11-01T10:43:10Z</time>
      </trkpt>
      <trkpt lat="45.76878" lon="3.01625">
        <ele>776.2</ele>
        <time>2014-11-01T10:43:13Z</time>
      </trkpt>
      <trkpt lat="45.76888" lon="3.0165">
        <ele>775.85</ele>
        <time>2014-11-01T10:43:16Z</time>
      </trkpt>
      <trkpt lat="45.76892" lon="3.01679">
        <ele>775.81</ele>
        <time>2014-11-01T10:43:19Z</time>
      </trkpt>
      <trkpt lat="45.76888" lon="3.01709">
        <ele>774.42</ele>
        <time>2014-11-01T10:43:22Z</time>
      </trkpt>
      <trkpt lat="45.7688" lon="3.01739">
        <ele>773.38</ele>
        <time>2014-11-01T10:43:25Z</time>
      </trkpt>
      <trkpt lat="45.7687" lon="3.0177">
        <ele>771.62</ele>
        <time>2014-11-01T10:43:28Z</time>
      </trkpt>
      <trkpt lat="45.7686" lon="3.01807">
        <ele>769.65</ele>
        <time>2014-11-01T10:43:31Z</time>
      </trkpt>
      <trkpt lat="45.76858" lon="3.01834">
        <ele>767.76</ele>
        <time>2014-11-01T10:43:33Z</time>
      </trkpt>
      <trkpt lat="45.76858" lon="3.01861">
        <ele>766.04</ele>
        <time>2014-11-01T10:43:35Z</time>
      </trkpt>
      <trkpt lat="45.76859" lon="3.0189">
        <ele>764.36</ele>
        <time>2014-11-01T10:43:37Z</time>
      </trkpt>
      <trkpt lat="45.76863" lon="3.01917">
        <ele>762.69</ele>
        <time>2014-11-01T10:43:39Z</time>
      </trkpt>
      <trkpt lat="45.76869" lon="3.01943">
        <ele>762.02</ele>
        <time>2014-11-01T10:43:41Z</time>
      </trkpt>
      <trkpt lat="45.76876" lon="3.01969">
        <ele>760.35</ele>
        <time>2014-11-01T10:43:43Z</time>
      </trkpt>
      <trkpt lat="45.76883" lon="3.01996">
        <ele>758.69</ele>
        <time>2014-11-01T10:43:45Z</time>
      </trkpt>
      <trkpt lat="45.76888" lon="3.0203">
        <ele>756.54</ele>
        <time>2014-11-01T10:43:48Z</time>
      </trkpt>
      <trkpt lat="45.76887" lon="3.02063">
        <ele>754.27</ele>
        <time>2014-11-01T10:43:51Z</time>
      </trkpt>
      <trkpt lat="45.76891" lon="3.02094">
        <ele>750.86</ele>
        <time>2014-11-01T10:43:54Z</time>
      </trkpt>
      <trkpt lat="45.769" lon="3.02128">
        <ele>749.56</ele>
        <time>2014-11-01T10:43:57Z</time>
      </trkpt>
      <trkpt lat="45.76916" lon="3.02158">
        <ele>746.77</ele>
        <time>2014-11-01T10:44:00Z</time>
      </trkpt>
      <trkpt lat="45.76927" lon="3.02179">
        <ele>744.79</ele>
        <time>2014-11-01T10:44:02Z</time>
      </trkpt>
      <trkpt lat="45.76939" lon="3.02211">
        <ele>742.55</ele>
        <time>2014-11-01T10:44:05Z</time>
      </trkpt>
      <trkpt lat="45.76943" lon="3.02239">
        <ele>741.24</ele>
        <time>2014-11-01T10:44:07Z</time>
      </trkpt>
      <trkpt lat="45.76944" lon="3.02268">
        <ele>740.16</ele>
        <time>2014-11-01T10:44:09Z</time>
      </trkpt>
      <trkpt lat="45.76945" lon="3.02296">
        <ele>739.39</ele>
        <time>2014-11-01T10:44:11Z</time>
      </trkpt>
      <trkpt lat="45.76946" lon="3.02323">
        <ele>738.45</ele>
        <time>2014-11-01T10:44:13Z</time>
      </trkpt>
      <trkpt lat="45.76947" lon="3.02351">
        <ele>735.96</ele>
        <time>2014-11-01T10:44:15Z</time>
      </trkpt>
      <trkpt lat="45.76952" lon="3.02378">
        <ele>735.09</ele>
        <time>2014-11-01T10:44:17Z</time>
      </trkpt>
      <trkpt lat="45.76957" lon="3.02413">
        <ele>733.46</ele>
        <time>2014-11-01T10:44:20Z</time>
      </trkpt>
      <trkpt lat="45.76958" lon="3.02448">
        <ele>732.38</ele>
        <time>2014-11-01T10:44:23Z</time>
      </trkpt>
      <trkpt lat="45.7696" lon="3.02479">
        <ele>731.87</ele>
        <time>2014-11-01T10:44:26Z</time>
      </trkpt>
      <trkpt lat="45.76958" lon="3.02507">
        <ele>731.81</ele>
        <time>2014-11-01T10:44:29Z</time>
      </trkpt>
      <trkpt lat="45.7695" lon="3.02532">
        <ele>732.55</ele>
        <time>2014-11-01T10:44:33Z</time>
      </trkpt>
      <trkpt lat="45.76962" lon="3.02554">
        <ele>732.79</ele>
        <time>2014-11-01T10:44:38Z</time>
      </trkpt>
      <trkpt lat="45.7697" lon="3.0258">
        <ele>732.36</ele>
        <time>2014-11-01T10:44:42Z</time>
      </trkpt>
      <trkpt lat="45.76978" lon="3.02609">
        <ele>731.88</ele>
        <time>2014-11-01T10:44:47Z</time>
      </trkpt>
      <trkpt lat="45.76985" lon="3.02636">
        <ele>731.8</ele>
        <time>2014-11-01T10:44:52Z</time>
      </trkpt>
      <trkpt lat="45.76995" lon="3.0266">
        <ele>732.77</ele>
        <time>2014-11-01T10:44:57Z</time>
      </trkpt>
      <trkpt lat="45.77003" lon="3.02687">
        <ele>734.75</ele>
        <time>2014-11-01T10:45:03Z</time>
      </trkpt>
      <trkpt lat="45.77014" lon="3.0271">
        <ele>734.05</ele>
        <time>2014-11-01T10:45:08Z</time>
      </trkpt>
      <trkpt lat="45.77027" lon="3.02731">
        <ele>732.93</ele>
        <time>2014-11-01T10:45:13Z</time>
      </trkpt>
      <trkpt lat="45.77037" lon="3.0276">
        <ele>731.83</ele>
        <time>2014-11-01T10:45:18Z</time>
      </trkpt>
      <trkpt lat="45.77049" lon="3.02787">
        <ele>731.36</ele>
        <time>2014-11-01T10:45:23Z</time>
      </trkpt>
      <trkpt lat="45.7706" lon="3.02811">
        <ele>732.04</ele>
        <time>2014-11-01T10:45:28Z</time>
      </trkpt>
      <trkpt lat="45.7707" lon="3.02838">
        <ele>734.33</ele>
        <time>2014-11-01T10:45:34Z</time>
      </trkpt>
      <trkpt lat="45.77072" lon="3.02869">
        <ele>736.23</ele>
        <time>2014-11-01T10:45:40Z</time>
      </trkpt>
      <trkpt lat="45.77081" lon="3.02895">
        <ele>736.84</ele>
        <time>2014-11-01T10:45:45Z</time>
      </trkpt>
      <trkpt lat="45.77096" lon="3.02914">
        <ele>738.24</ele>
        <time>2014-11-01T10:45:50Z</time>
      </trkpt>
      <trkpt lat="45.77116" lon="3.02928">
        <ele>737.81</ele>
        <time>2014-11-01T10:45:55Z</time>
      </trkpt>
      <trkpt lat="45.77133" lon="3.02939">
        <ele>737.8</ele>
        <time>2014-11-01T10:45:59Z</time>
      </trkpt>
      <trkpt lat="45.77149" lon="3.02954">
        <ele>737.3</ele>
        <time>2014-11-01T10:46:03Z</time>
      </trkpt>
      <trkpt lat="45.77167" lon="3.02966">
        <ele>737.08</ele>
        <time>2014-11-01T10:46:07Z</time>
      </trkpt>
      <trkpt lat="45.77187" lon="3.02977">
        <ele>736.82</ele>
        <time>2014-11-01T10:46:11Z</time>
      </trkpt>
      <trkpt lat="45.77208" lon="3.0299">
        <ele>734.18</ele>
        <time>2014-11-01T10:46:15Z</time>
      </trkpt>
      <trkpt lat="45.77227" lon="3.03006">
        <ele>732.64</ele>
        <time>2014-11-01T10:46:19Z</time>
      </trkpt>
      <trkpt lat="45.77244" lon="3.0302">
        <ele>732.79</ele>
        <time>2014-11-01T10:46:23Z</time>
      </trkpt>
      <trkpt lat="45.77262" lon="3.03033">
        <ele>734.49</ele>
        <time>2014-11-01T10:46:28Z</time>
      </trkpt>
      <trkpt lat="45.77279" lon="3.03043">
        <ele>736.47</ele>
        <time>2014-11-01T10:46:32Z</time>
      </trkpt>
      <trkpt lat="45.77302" lon="3.03053">
        <ele>736.78</ele>
        <time>2014-11-01T10:46:36Z</time>
      </trkpt>
      <trkpt lat="45.77322" lon="3.03062">
        <ele>736.67</ele>
        <time>2014-11-01T10:46:39Z</time>
      </trkpt>
      <trkpt lat="45.77339" lon="3.03082">
        <ele>736.03</ele>
        <time>2014-11-01T10:46:42Z</time>
      </trkpt>
      <trkpt lat="45.77354" lon="3.03103">
        <ele>736.7</ele>
        <time>2014-11-01T10:46:45Z</time>
      </trkpt>
      <trkpt lat="45.77372" lon="3.03121">
        <ele>734.91</ele>
        <time>2014-11-01T10:46:48Z</time>
      </trkpt>
      <trkpt lat="45.77393" lon="3.03141">
        <ele>729.06</ele>
        <time>2014-11-01T10:46:51Z</time>
      </trkpt>
      <trkpt lat="45.77411" lon="3.03159">
        <ele>726.21</ele>
        <time>2014-11-01T10:46:54Z</time>
      </trkpt>
      <trkpt lat="45.7743" lon="3.03173">
        <ele>725.85</ele>
        <time>2014-11-01T10:46:57Z</time>
      </trkpt>
      <trkpt lat="45.77449" lon="3.03166">
        <ele>726.42</ele>
        <time>2014-11-01T10:47:04Z</time>
      </trkpt>
      <trkpt lat="45.77469" lon="3.03164">
        <ele>725.1</ele>
        <time>2014-11-01T10:47:09Z</time>
      </trkpt>
      <trkpt lat="45.77489" lon="3.03171">
        <ele>721.62</ele>
        <time>2014-11-01T10:47:15Z</time>
      </trkpt>
      <trkpt lat="45.77501" lon="3.03151">
        <ele>717.7</ele>
        <time>2014-11-01T10:47:20Z</time>
      </trkpt>
      <trkpt lat="45.77497" lon="3.03124">
        <ele>715.17</ele>
        <time>2014-11-01T10:47:24Z</time>
      </trkpt>
      <trkpt lat="45.77513" lon="3.03108">
        <ele>714.82</ele>
        <time>2014-11-01T10:47:28Z</time>
      </trkpt>
      <trkpt lat="45.77531" lon="3.03114">
        <ele>712.11</ele>
        <time>2014-11-01T10:47:33Z</time>
      </trkpt>
      <trkpt lat="45.77548" lon="3.03123">
        <ele>712.32</ele>
        <time>2014-11-01T10:47:37Z</time>
      </trkpt>
      <trkpt lat="45.77567" lon="3.03133">
        <ele>713.66</ele>
        <time>2014-11-01T10:47:42Z</time>
      </trkpt>
      <trkpt lat="45.7759" lon="3.03134">
        <ele>712.61</ele>
        <time>2014-11-01T10:47:47Z</time>
      </trkpt>
      <trkpt lat="45.77608" lon="3.03121">
        <ele>711.91</ele>
        <time>2014-11-01T10:47:51Z</time>
      </trkpt>
      <trkpt lat="45.77632" lon="3.03129">
        <ele>710.24</ele>
        <time>2014-11-01T10:47:55Z</time>
      </trkpt>
      <trkpt lat="45.77652" lon="3.03137">
        <ele>708.6</ele>
        <time>2014-11-01T10:47:58Z</time>
      </trkpt>
      <trkpt lat="45.77671" lon="3.03146">
        <ele>708.27</ele>
        <time>2014-11-01T10:48:01Z</time>
      </trkpt>
      <trkpt lat="45.77688" lon="3.03159">
        <ele>707.86</ele>
        <time>2014-11-01T10:48:04Z</time>
      </trkpt>
      <trkpt lat="45.777" lon="3.0318">
        <ele>708.68</ele>
        <time>2014-11-01T10:48:07Z</time>
      </trkpt>
      <trkpt lat="45.77725" lon="3.03185">
        <ele>709.04</ele>
        <time>2014-11-01T10:48:11Z</time>
      </trkpt>
      <trkpt lat="45.77747" lon="3.03181">
        <ele>708.38</ele>
        <time>2014-11-01T10:48:15Z</time>
      </trkpt>
      <trkpt lat="45.77765" lon="3.03201">
        <ele>706.46</ele>
        <time>2014-11-01T10:48:19Z</time>
      </trkpt>
      <trkpt lat="45.7778" lon="3.0322">
        <ele>705.76</ele>
        <time>2014-11-01T10:48:22Z</time>
      </trkpt>
      <trkpt lat="45.77797" lon="3.03241">
        <ele>704.92</ele>
        <time>2014-11-01T10:48:25Z</time>
      </trkpt>
      <trkpt lat="45.77818" lon="3.03258">
        <ele>703.44</ele>
        <time>2014-11-01T10:48:28Z</time>
      </trkpt>
      <trkpt lat="45.77841" lon="3.03273">
        <ele>703.38</ele>
        <time>2014-11-01T10:48:31Z</time>
      </trkpt>
      <trkpt lat="45.77859" lon="3.03284">
        <ele>703.69</ele>
        <time>2014-11-01T10:48:33Z</time>
      </trkpt>
      <trkpt lat="45.77881" lon="3.03295">
        <ele>702.52</ele>
        <time>2014-11-01T10:48:35Z</time>
      </trkpt>
      <trkpt lat="45.77903" lon="3.03307">
        <ele>699.98</ele>
        <time>2014-11-01T10:48:37Z</time>
      </trkpt>
      <trkpt lat="45.77926" lon="3.03322">
        <ele>698.09</ele>
        <time>2014-11-01T10:48:39Z</time>
      </trkpt>
      <trkpt lat="45.77946" lon="3.03343">
        <ele>696.62</ele>
        <time>2014-11-01T10:48:41Z</time>
      </trkpt>
      <trkpt lat="45.77961" lon="3.03371">
        <ele>696</ele>
        <time>2014-11-01T10:48:43Z</time>
      </trkpt>
      <trkpt lat="45.77973" lon="3.03399">
        <ele>695.85</ele>
        <time>2014-11-01T10:48:45Z</time>
      </trkpt>
      <trkpt lat="45.77985" lon="3.03425">
        <ele>695.31</ele>
        <time>2014-11-01T10:48:47Z</time>
      </trkpt>
      <trkpt lat="45.78003" lon="3.03443">
        <ele>694.93</ele>
        <time>2014-11-01T10:48:49Z</time>
      </trkpt>
      <trkpt lat="45.78022" lon="3.03451">
        <ele>694.33</ele>
        <time>2014-11-01T10:48:51Z</time>
      </trkpt>
      <trkpt lat="45.78038" lon="3.03468">
        <ele>692.68</ele>
        <time>2014-11-01T10:48:53Z</time>
      </trkpt>
      <trkpt lat="45.78045" lon="3.03495">
        <ele>692.02</ele>
        <time>2014-11-01T10:48:55Z</time>
      </trkpt>
      <trkpt lat="45.78054" lon="3.03529">
        <ele>691.83</ele>
        <time>2014-11-01T10:48:58Z</time>
      </trkpt>
      <trkpt lat="45.78065" lon="3.03556">
        <ele>691.18</ele>
        <time>2014-11-01T10:49:01Z</time>
      </trkpt>
      <trkpt lat="45.78084" lon="3.03554">
        <ele>692.78</ele>
        <time>2014-11-01T10:49:06Z</time>
      </trkpt>
    </trkseg>
  </trk>
</gpx>